[[{"header":{"parameterUnit":"m.s-1","parameterCategory":1,"la1":30.6,"la2":28.766,"lo1":-90.7593,"lo2":-88.6598,"dy":0.0162,"dx":0.0183,"nx":116,"ny":114,"refTime":"2023-05-09T00:00:00:Z","depth":0,"parameterNumber":2,"parameterNumberName":"U-component_of_WINDS"},"data":[0.0,0.0,0.0,0.0,0.0,0.0,0.0,0.0,0.0,0.0,0.0,0.0,0.0,0.0,0.0,0.0,0.0,0.0,0.0,0.0,0.0,0.0,0.0,0.0,0.0,0.0,0.0,0.0,0.0,0.0,0.0,0.0,0.0,0.0,0.0,0.0,0.0,0.0,0.0,0.0,0.0,0.0,0.0,0.0,0.0,0.0,0.0,0.0,0.0,0.0,0.0,0.0,0.0,0.0,0.0,0.0,0.0,0.0,0.0,0.0,0.0,0.0,0.0,0.0,0.0,0.0,0.0,0.0,0.0,0.0,0.0,0.0,0.0,0.0,0.0,0.0,0.0,0.0,0.0,0.0,0.0,0.0,0.0,0.0,0.0,0.0,0.0,0.0,0.0,0.0,0.0,0.0,0.0,0.0,0.0,0.0,0.0,0.0,0.0,0.0,0.0,0.0,0.0,0.0,0.0,0.0,0.0,0.0,0.0,0.0,0.0,0.0,0.0,0.0,0.0,0.0,0.0,0.0,0.0,0.0,0.0,0.0,0.0,0.0,0.0,0.0,0.0,0.0,0.0,0.0,0.0,0.0,0.0,0.0,0.0,0.0,0.0,0.0,0.0,0.0,0.0,0.0,0.0,0.0,0.0,0.0,0.0,0.0,0.0,0.0,0.0,0.0,0.0,0.0,0.0,0.0,0.0,0.0,0.0,0.0,0.0,0.0,0.0,0.0,0.0,0.0,0.0,0.0,0.0,0.0,0.0,0.0,0.0,0.0,0.0,0.0,0.0,0.0,0.0,0.0,0.0,0.0,0.0,0.0,0.0,0.0,0.0,0.0,0.0,0.0,0.0,0.0,0.0,0.0,0.0,0.0,0.0,0.0,0.0,0.0,0.0,0.0,0.0,0.0,0.0,0.0,0.0,0.0,0.0,0.0,0.0,0.0,0.0,0.0,0.0,0.0,0.0,0.0,0.0,0.0,0.0,0.0,0.0,0.0,0.0,0.0,0.0,0.0,0.0,0.0,0.0,0.0,0.0,0.0,0.0,0.0,0.0,0.0,0.0,0.0,0.0,0.0,0.0,0.0,0.0,0.0,0.0,0.0,0.0,0.0,0.0,0.0,0.0,0.0,0.0,0.0,0.0,0.0,0.0,0.0,0.0,0.0,0.0,0.0,0.0,0.0,0.0,0.0,0.0,0.0,0.0,0.0,0.0,0.0,0.0,0.0,0.0,0.0,0.0,0.0,0.0,0.0,0.0,0.0,0.0,0.0,0.0,0.0,0.0,0.0,0.0,0.0,0.0,0.0,0.0,0.0,0.0,0.0,0.0,0.0,0.0,0.0,0.0,0.0,0.0,0.0,0.0,0.0,0.0,0.0,0.0,0.0,0.0,0.0,0.0,0.0,0.0,0.0,0.0,0.0,0.0,0.0,0.0,0.0,0.0,0.0,0.0,0.0,0.0,0.0,0.0,0.0,0.0,0.0,0.0,0.0,0.0,0.0,0.0,0.0,0.0,0.0,0.0,0.0,0.0,0.0,0.0,0.0,0.0,0.0,0.0,0.0,0.0,0.0,0.0,0.0,0.0,0.0,0.0,0.0,0.0,0.0,0.0,0.0,0.0,0.0,0.0,0.0,0.0,0.0,0.0,0.0,0.0,0.0,0.0,0.0,0.0,0.0,0.0,0.0,0.0,0.0,0.0,0.0,0.0,0.0,0.0,0.0,0.0,0.0,0.0,0.0,0.0,0.0,0.0,0.0,0.0,0.0,0.0,0.0,0.0,0.0,0.0,0.0,0.0,0.0,0.0,0.0,0.0,0.0,0.0,0.0,0.0,0.0,0.0,0.0,0.0,0.0,0.0,0.0,0.0,0.0,0.0,0.0,0.0,0.0,0.0,0.0,0.0,0.0,0.0,0.0,0.0,0.0,0.0,0.0,0.0,0.0,0.0,0.0,0.0,0.0,0.0,0.0,0.0,0.0,0.0,0.0,0.0,0.0,0.0,0.0,0.0,0.0,0.0,0.0,0.0,0.0,0.0,0.0,0.0,0.0,0.0,0.0,0.0,0.0,0.0,0.0,0.0,0.0,0.0,0.0,0.0,0.0,0.0,0.0,0.0,0.0,0.0,0.0,0.0,0.0,0.0,0.0,0.0,0.0,0.0,0.0,0.0,0.0,0.0,0.0,0.0,0.0,0.0,0.0,0.0,0.0,0.0,0.0,0.0,0.0,0.0,0.0,0.0,0.0,0.0,0.0,0.0,0.0,0.0,0.0,0.0,0.0,0.0,0.0,0.0,0.0,0.0,0.0,0.0,0.0,0.0,0.0,0.0,0.0,0.0,0.0,0.0,0.0,0.0,0.0,0.0,0.0,0.0,0.0,0.0,0.0,0.0,0.0,0.0,0.0,0.0,0.0,0.0,0.0,0.0,0.0,0.0,0.0,0.0,0.0,0.0,0.0,0.0,0.0,0.0,0.0,0.0,0.0,0.0,0.0,0.0,0.0,0.0,0.0,0.0,0.0,0.0,0.0,0.0,0.0,0.0,0.0,0.0,0.0,0.0,0.0,0.0,0.0,0.0,0.0,0.0,0.0,0.0,0.0,0.0,0.0,0.0,0.0,0.0,0.0,0.0,0.0,0.0,0.0,0.0,0.0,0.0,0.0,0.0,0.0,0.0,0.0,0.0,0.0,0.0,0.0,0.0,0.0,0.0,0.0,0.0,0.0,0.0,0.0,0.0,0.0,0.0,0.0,0.0,0.0,0.0,0.0,0.0,0.0,0.0,0.0,0.0,0.0,0.0,0.0,0.0,0.0,0.0,0.0,0.0,0.0,0.0,0.0,0.0,0.0,0.0,0.0,0.0,0.0,0.0,0.0,0.0,0.0,0.0,0.0,0.0,0.0,0.0,0.0,0.0,0.0,0.0,0.0,0.0,0.0,0.0,0.0,0.0,0.0,0.0,0.0,0.0,0.0,0.0,0.0,0.0,0.0,0.0,0.0,0.0,0.0,0.0,0.0,0.0,0.0,0.0,0.0,0.0,0.0,0.0,0.0,0.0,0.0,0.0,0.0,0.0,0.0,0.0,0.0,0.0,0.0,0.0,0.0,0.0,0.0,0.0,0.0,0.0,0.0,0.0,0.0,0.0,0.0,0.0,0.0,0.0,0.0,0.0,0.0,0.0,0.0,0.0,0.0,0.0,0.0,0.0,0.0,0.0,0.0,0.0,0.0,0.0,0.0,0.0,0.0,0.0,0.0,0.0,0.0,0.0,0.0,0.0,0.0,0.0,0.0,0.0,0.0,0.0,0.0,0.0,0.0,0.0,0.0,0.0,0.0,0.0,0.0,0.0,0.0,0.0,0.0,0.0,0.0,0.0,0.0,0.0,0.0,0.0,0.0,0.0,0.0,0.0,0.0,0.0,0.0,0.0,0.0,0.0,0.0,0.0,0.0,0.0,0.0,0.0,0.0,0.0,0.0,0.0,0.0,0.0,0.0,0.0,0.0,0.0,0.0,0.0,0.0,0.0,0.0,0.0,0.0,0.0,0.0,0.0,0.0,0.0,0.0,0.0,0.0,0.0,0.0,0.0,0.0,0.0,0.0,0.0,0.0,0.0,0.0,0.0,0.0,0.0,0.0,0.0,0.0,0.0,0.0,0.0,0.0,0.0,0.0,0.0,0.0,0.0,0.0,0.0,0.0,0.0,0.0,0.0,0.0,0.0,0.0,0.0,0.0,0.0,0.0,0.0,0.0,0.0,0.0,0.0,0.0,0.0,0.0,0.0,0.0,0.0,0.0,0.0,0.0,0.0,0.0,0.0,0.0,0.0,0.0,0.0,0.0,0.0,0.0,0.0,0.0,0.0,0.0,0.0,0.0,0.0,0.0,0.0,0.0,0.0,0.0,0.0,0.0,0.0,0.0,0.0,0.0,0.0,0.0,0.0,0.0,0.0,0.0,0.0,0.0,0.0,0.0,0.0,0.0,0.0,0.0,0.0,0.0,0.0,0.0,0.0,0.0,0.0,0.0,0.0,0.0,0.0,0.0,0.0,0.0,0.0,0.0,0.0,0.0,0.0,0.0,0.0,0.0,0.0,0.0,0.0,0.0,0.0,0.0,0.0,0.0,0.0,0.0,0.0,0.0,0.0,0.0,0.0,0.0,0.0,0.0,0.0,0.0,0.0,0.0,0.0,0.0,0.0,0.0,0.0,0.0,0.0,0.0,0.0,0.0,0.0,0.0,0.0,0.0,0.0,0.0,0.0,0.0,0.0,0.0,0.0,0.0,0.0,0.0,0.0,0.0,0.0,0.0,0.0,0.0,0.0,0.0,0.0,0.0,0.0,0.0,0.0,0.0,0.0,0.0,0.0,0.0,0.0,0.0,0.0,0.0,0.0,0.0,0.0,0.0,0.0,0.0,0.0,0.0,0.0,0.0,0.0,0.0,0.0,0.0,0.0,0.0,0.0,0.0,0.0,0.0,0.0,0.0,0.0,0.0,0.0,0.0,0.0,0.0,0.0,0.0,0.0,0.0,0.0,0.0,0.0,0.0,0.0,0.0,0.0,0.0,0.0,0.0,0.0,0.0,0.0,0.0,0.0,0.0,0.0,0.0,0.0,0.0,0.0,0.0,0.0,0.0,0.0,0.0,0.0,0.0,0.0,0.0,0.0,0.0,0.0,0.0,0.0,0.0,0.0,0.0,0.0,0.0,0.0,0.0,0.0,0.0,0.0,0.0,0.0,0.0,0.0,0.0,0.0,0.0,0.0,0.0,0.0,0.0,0.0,0.0,0.0,0.0,0.0,0.0,0.0,0.0,0.0,0.0,0.0,0.0,0.0,0.0,0.0,0.0,0.0,0.0,0.0,0.0,0.0,0.0,0.0,0.0,0.0,0.0,0.0,0.0,0.0,0.0,0.0,0.0,0.0,0.0,0.0,0.0,0.0,0.0,0.0,0.0,0.0,0.0,0.0,0.0,0.0,0.0,0.0,0.0,0.0,0.0,0.0,0.0,0.0,0.0,0.0,0.0,0.0,0.0,0.0,0.0,0.0,0.0,0.0,0.0,0.0,0.0,0.0,0.0,0.0,0.0,0.0,0.0,0.0,0.0,0.0,0.0,0.0,0.0,0.0,0.0,0.0,0.0,0.0,0.0,0.0,0.0,0.0,0.0,0.0,0.0,0.0,0.0,0.0,0.0,0.0,0.0,0.0,0.0,0.0,0.0,0.0,0.0,0.0,0.0,0.0,0.0,0.0,0.0,0.0,0.0,0.0,0.0,0.0,0.0,0.0,0.0,0.0,0.0,0.0,0.0,0.0,0.0,0.0,0.0,0.0,0.0,0.0,0.0,0.0,0.0,0.0,0.0,0.0,0.0,0.0,0.0,0.0,0.0,0.0,0.0,0.0,0.0,0.0,0.0,0.0,0.0,0.0,0.0,0.0,0.0,0.0,0.0,0.0,0.0,0.0,0.0,0.0,0.0,0.0,0.0,0.0,0.0,0.0,0.0,0.0,0.0,0.0,0.0,0.0,0.0,0.0,0.0,0.0,0.0,0.0,0.0,0.0,0.0,0.0,0.0,0.0,0.0,0.0,0.0,0.0,0.0,0.0,0.0,0.0,0.0,0.0,0.0,0.0,0.0,0.0,0.0,0.0,0.0,0.0,0.0,0.0,0.0,0.0,0.0,0.0,0.0,0.0,0.0,0.0,0.0,0.0,0.0,0.0,0.0,0.0,0.0,0.0,0.0,0.0,0.0,0.0,0.0,0.0,0.0,0.0,0.0,0.0,0.0,0.0,0.0,0.0,0.0,0.0,0.0,0.0,0.0,0.0,0.0,0.0,0.0,0.0,0.0,0.0,0.0,0.0,0.0,0.0,0.0,0.0,0.0,0.0,0.0,0.0,0.0,0.0,0.0,0.0,0.0,0.0,0.0,0.0,0.0,0.0,0.0,0.0,0.0,0.0,0.0,0.0,0.0,0.0,0.0,0.0,0.0,0.0,0.0,0.0,0.0,0.0,0.0,0.0,0.0,0.0,0.0,0.0,0.0,0.0,0.0,0.0,0.0,0.0,0.0,0.0,0.0,0.0,0.0,0.0,0.0,0.0,0.0,0.0,0.0,-2.9956,-3.0,0.0,0.0,0.0,0.0,0.0,0.0,0.0,0.0,0.0,0.0,0.0,0.0,0.0,0.0,0.0,0.0,0.0,0.0,0.0,0.0,0.0,0.0,0.0,0.0,0.0,0.0,0.0,0.0,0.0,0.0,0.0,0.0,0.0,0.0,0.0,0.0,0.0,-2.3075,-2.3075,-2.3535,-2.4332,-2.4189,-2.421,-2.4305,0.0,0.0,0.0,0.0,0.0,0.0,0.0,0.0,0.0,0.0,0.0,0.0,0.0,0.0,0.0,0.0,0.0,0.0,0.0,0.0,0.0,0.0,0.0,0.0,0.0,0.0,0.0,0.0,0.0,0.0,0.0,0.0,0.0,0.0,0.0,0.0,0.0,0.0,0.0,0.0,0.0,0.0,0.0,0.0,0.0,0.0,0.0,0.0,0.0,0.0,0.0,0.0,0.0,0.0,0.0,0.0,0.0,0.0,0.0,0.0,0.0,0.0,0.0,0.0,0.0,0.0,0.0,0.0,0.0,0.0,-2.9768,-3.0001,0.0,0.0,0.0,0.0,0.0,0.0,0.0,0.0,0.0,0.0,0.0,0.0,0.0,0.0,0.0,0.0,0.0,0.0,0.0,0.0,0.0,0.0,0.0,-2.011,-2.0309,-2.0636,-2.0674,-2.083,0.0,0.0,0.0,0.0,0.0,0.0,-2.204,-2.2314,-2.2754,-2.3294,-2.3366,-2.3868,-2.4687,-2.5066,-2.5076,-2.4762,-2.4726,0.0,0.0,0.0,0.0,0.0,0.0,0.0,0.0,0.0,0.0,0.0,0.0,0.0,0.0,0.0,0.0,0.0,0.0,0.0,0.0,0.0,0.0,0.0,0.0,0.0,0.0,0.0,0.0,0.0,0.0,0.0,0.0,0.0,0.0,0.0,0.0,0.0,0.0,0.0,0.0,0.0,0.0,0.0,0.0,0.0,0.0,0.0,0.0,0.0,0.0,0.0,0.0,0.0,0.0,0.0,0.0,0.0,0.0,0.0,0.0,0.0,0.0,0.0,-2.8477,-2.8943,-2.8943,-2.8943,-2.9036,-2.9225,-2.9617,-2.9718,-2.9541,-2.9326,0.0,0.0,0.0,0.0,0.0,0.0,0.0,0.0,0.0,0.0,0.0,0.0,0.0,0.0,0.0,0.0,0.0,0.0,0.0,0.0,0.0,-1.9409,-1.9833,-2.0168,-2.0101,-2.033,-2.1098,0.0,0.0,0.0,0.0,0.0,-2.2399,-2.245,-2.2689,-2.3135,-2.3788,-2.4149,-2.4309,-2.4558,-2.4934,-2.539,-2.5764,-2.5894,-2.5698,0.0,0.0,0.0,0.0,0.0,0.0,0.0,0.0,0.0,0.0,0.0,0.0,0.0,0.0,0.0,0.0,0.0,0.0,0.0,0.0,0.0,0.0,0.0,0.0,0.0,0.0,0.0,0.0,0.0,0.0,0.0,0.0,0.0,0.0,0.0,0.0,0.0,0.0,0.0,0.0,0.0,-2.5693,-2.5693,0.0,0.0,0.0,0.0,0.0,0.0,0.0,0.0,0.0,0.0,0.0,0.0,0.0,-2.7152,-2.701,-2.8359,-2.9029,-2.905,-2.9558,-2.9802,-2.9802,-2.9802,-3.0334,-3.1194,-3.127,0.0,-2.7894,-2.7874,0.0,0.0,0.0,0.0,0.0,0.0,0.0,0.0,0.0,0.0,0.0,0.0,0.0,0.0,0.0,0.0,0.0,0.0,0.0,0.0,0.0,-1.9653,-2.0055,-2.0764,-2.0772,-2.088,-2.1229,-2.1441,0.0,0.0,0.0,-2.1361,-2.1562,-2.1576,-2.2157,-2.3272,-2.3914,-2.4333,-2.4538,-2.4648,-2.4867,-2.5123,-2.5487,-2.5779,-2.6009,-2.6365,0.0,0.0,0.0,0.0,0.0,0.0,0.0,0.0,0.0,0.0,0.0,0.0,0.0,0.0,0.0,0.0,0.0,0.0,0.0,0.0,0.0,0.0,0.0,0.0,0.0,0.0,0.0,0.0,0.0,0.0,0.0,0.0,0.0,0.0,0.0,0.0,0.0,0.0,0.0,-2.5187,-2.5547,-2.6055,-2.5723,-2.5547,0.0,0.0,0.0,0.0,0.0,0.0,0.0,0.0,0.0,-2.6445,-2.7398,-2.7693,-2.7102,-2.7699,-2.8,-2.8,-2.8255,-2.8287,-2.8337,-2.8836,-2.9282,-2.9774,-3.0387,-2.9987,-2.8946,-2.9465,-2.9462,-2.9116,0.0,0.0,0.0,0.0,-2.8029,-2.7765,0.0,0.0,0.0,0.0,0.0,0.0,0.0,0.0,0.0,0.0,0.0,0.0,-1.9734,-1.9941,-2.0353,-2.119,-2.1349,-2.1428,-2.1576,-2.1523,-2.1517,-2.1506,-2.0867,-2.0708,-2.1087,-2.1235,-2.1916,-2.3141,-2.3678,-2.4082,-2.4334,-2.4334,-2.439,-2.4556,-2.4778,-2.5289,-2.5979,-2.6116,-2.6096,-2.5951,0.0,0.0,0.0,0.0,0.0,0.0,0.0,0.0,0.0,0.0,0.0,0.0,0.0,0.0,0.0,0.0,0.0,0.0,0.0,0.0,0.0,0.0,0.0,0.0,0.0,0.0,0.0,0.0,0.0,0.0,0.0,0.0,0.0,0.0,0.0,0.0,0.0,-2.5332,-2.5644,-2.6309,-2.6094,-2.5996,0.0,0.0,0.0,0.0,0.0,0.0,-2.6855,-2.7643,-2.7844,-2.7168,-2.7934,-2.7974,-2.7344,-2.7441,-2.75,-2.75,-2.7617,-2.7676,-2.7676,-2.8333,-2.8798,-2.9086,-2.988,-3.0385,-3.07,-3.0924,-3.0994,-3.0853,-3.0062,-2.9753,-2.9789,-2.9756,-2.9604,-2.9475,0.0,0.0,0.0,0.0,0.0,0.0,0.0,0.0,0.0,0.0,0.0,-1.9352,-1.9447,-1.9971,-2.0527,-2.0909,-2.1206,-2.1539,-2.1963,-2.1979,-2.1979,-2.1963,-2.1258,-2.1211,-2.1916,-2.2227,-2.2434,-2.2537,-2.2871,-2.3046,-2.3062,-2.3062,-2.3416,-2.3977,-2.3977,-2.4573,-2.5522,-2.5201,-2.5445,-2.6012,-2.5325,0.0,0.0,0.0,0.0,0.0,0.0,0.0,0.0,0.0,0.0,0.0,0.0,0.0,0.0,0.0,0.0,0.0,0.0,0.0,0.0,0.0,0.0,0.0,0.0,0.0,0.0,0.0,0.0,0.0,0.0,0.0,0.0,0.0,0.0,0.0,0.0,0.0,0.0,-2.6387,-2.6367,0.0,0.0,0.0,0.0,-2.5732,-2.6172,-2.6426,-2.6426,-2.6847,-2.7258,-2.7669,-2.7741,-2.7885,-2.8223,-2.8613,-2.8828,-2.8828,-2.9238,-2.9434,-2.9434,-2.9489,-3.0078,-3.1024,-3.1078,-3.1728,-3.2616,-3.0992,-3.0488,-3.0695,-3.0627,-3.0743,-3.0913,-3.0721,-3.0627,-3.0579,0.0,0.0,0.0,0.0,0.0,0.0,0.0,0.0,-1.8986,-1.9431,-1.9431,-1.9894,-2.1165,-2.1155,-2.1454,-2.2483,-2.2496,-2.2418,-2.2307,-2.2291,-2.2263,-2.2185,-2.1542,-2.1481,-2.1995,-2.2139,-2.237,-2.2831,-2.2958,-2.3022,-2.3022,-2.3022,-2.3135,-2.3304,-2.3304,-2.3727,-2.4535,-2.5357,-2.5828,-2.5974,-2.6295,-2.5977,0.0,0.0,0.0,0.0,0.0,0.0,0.0,0.0,0.0,0.0,0.0,0.0,0.0,0.0,0.0,0.0,0.0,0.0,0.0,0.0,0.0,0.0,0.0,0.0,0.0,0.0,0.0,0.0,0.0,0.0,0.0,0.0,0.0,0.0,0.0,0.0,0.0,-2.72,-2.6973,0.0,-2.6973,-2.6973,-2.709,-2.7363,-2.7773,-2.8144,-2.8418,-2.8574,-2.873,-2.8941,-2.8941,-2.8965,-2.9121,-2.9258,-2.9336,-2.9336,-2.9492,-2.9626,-2.9626,-3.0163,-3.0585,-3.097,-3.1713,-3.2254,-3.2641,-3.2938,-3.223,-3.0899,-3.0373,-3.0493,-3.0946,-3.0844,-3.0816,-3.0886,0.0,0.0,0.0,0.0,0.0,0.0,0.0,0.0,-1.9034,-1.967,-1.9654,-2.0214,-2.1869,-2.1872,-2.2226,-2.338,-2.3351,-2.3191,-2.3005,-2.2725,-2.2549,-2.2448,-2.2116,-2.2001,-2.228,-2.2521,-2.2941,-2.3537,-2.3537,-2.3529,-2.3543,-2.3543,-2.3486,-2.3371,-2.3371,-2.3536,-2.382,-2.504,-2.5588,-2.5703,-2.6252,-2.6055,-2.55,0.0,0.0,0.0,0.0,0.0,0.0,0.0,0.0,0.0,0.0,0.0,0.0,0.0,0.0,0.0,0.0,0.0,0.0,0.0,0.0,0.0,0.0,0.0,0.0,0.0,0.0,0.0,0.0,0.0,0.0,0.0,0.0,0.0,0.0,-2.654,-2.7031,-2.765,-2.7656,-2.7715,-2.7871,-2.8198,-2.8418,-2.8711,-2.8984,-2.9258,-2.9551,-2.9626,-2.9629,-2.9785,-2.9785,-2.9863,-3.0019,-3.0019,-3.0019,-3.0019,-3.0019,-3.0019,-3.0076,-3.0565,-3.0826,-3.0882,-3.1608,-3.1941,-3.2051,-3.2942,-3.233,-3.0914,-3.176,-3.2347,-3.2718,-3.2302,-3.2153,-3.2252,0.0,0.0,0.0,0.0,0.0,0.0,-1.8781,-1.8781,-1.897,-1.9399,-1.9718,-2.0294,-2.1353,-2.2035,-2.2694,-2.336,-2.3706,-2.3904,-2.3888,-2.3173,-2.2794,-2.2794,-2.2794,-2.2864,-2.2918,-2.3574,-2.4102,-2.4523,-2.4523,-2.4532,-2.4584,-2.4584,-2.4466,-2.4114,-2.4114,-2.3922,-2.362,-2.4163,-2.4687,-2.5148,-2.5073,-2.527,-2.5629,0.0,0.0,0.0,0.0,0.0,0.0,0.0,0.0,0.0,0.0,0.0,0.0,0.0,0.0,0.0,0.0,0.0,0.0,0.0,0.0,0.0,0.0,0.0,0.0,0.0,0.0,0.0,0.0,0.0,0.0,0.0,0.0,0.0,-2.7695,-2.7695,-2.7767,-2.7787,-2.8437,-2.8769,-2.8379,-2.9082,-2.9626,-2.9646,-2.9646,-2.9646,-2.9665,-2.9665,-2.9805,-3.0195,-3.0215,-3.043,-3.0879,-3.0898,-3.0898,-3.0898,-3.0898,-3.0898,-3.0898,-3.0898,-3.0898,-3.0898,-3.0898,-3.0898,-3.0898,-3.0937,-3.0683,-3.0668,-3.4637,-3.6207,-3.6081,-3.4901,-3.4537,-3.4537,0.0,0.0,0.0,0.0,0.0,0.0,-1.8781,-1.8781,-1.9192,-2.0281,-2.0265,-2.0931,-2.2908,-2.2848,-2.3062,-2.4055,-2.3983,-2.369,-2.3124,-2.2893,-2.2794,-2.2794,-2.3241,-2.3678,-2.4043,-2.4258,-2.4539,-2.4845,-2.4845,-2.4895,-2.4877,-2.4877,-2.4818,-2.476,-2.476,-2.4711,-2.4613,-2.4787,-2.4803,-2.4721,-2.5,-2.5147,-2.5099,0.0,0.0,0.0,0.0,0.0,0.0,0.0,0.0,0.0,0.0,0.0,0.0,0.0,0.0,0.0,0.0,0.0,0.0,0.0,0.0,0.0,0.0,0.0,0.0,0.0,0.0,0.0,0.0,0.0,0.0,0.0,-2.7596,-2.8072,-2.7839,-2.8272,-2.8691,-2.9059,-2.9258,-2.9355,-2.9219,-2.9489,-2.9687,-3.0,-3.0019,-3.0176,-3.0508,-3.0527,-3.0586,-3.0703,-3.0703,-3.0762,-3.0898,-3.0898,-3.0898,-3.0898,-3.0898,-3.0898,-3.0898,-3.0898,-3.0898,-3.0898,-3.0898,-3.0898,-3.0937,-3.1845,-3.2109,-3.2003,-3.194,-3.2205,-3.2609,-3.2233,-3.2663,-3.3272,0.0,0.0,0.0,0.0,0.0,0.0,-1.8781,-1.8781,-1.9239,-2.0459,-2.0524,-2.131,-2.3339,-2.3348,-2.3603,-2.4484,-2.4216,-2.3771,-2.3185,-2.2919,-2.2833,-2.3151,-2.3665,-2.4259,-2.4832,-2.5,-2.5268,-2.5637,-2.5637,-2.5645,-2.5694,-2.5694,-2.5635,-2.544,-2.544,-2.5374,-2.5225,-2.5225,-2.501,-2.4721,-2.5003,-2.5034,-2.4845,-2.472,-2.4845,-2.4963,-2.428,-2.4496,-2.4948,-2.4466,0.0,0.0,0.0,0.0,0.0,0.0,0.0,0.0,0.0,0.0,0.0,0.0,0.0,0.0,0.0,0.0,0.0,0.0,0.0,0.0,0.0,0.0,0.0,0.0,-2.8427,-2.8832,-2.8843,-2.903,-2.9277,-2.9607,-2.9726,-2.9824,-2.9824,-3.0019,-3.0215,-3.0469,-3.0488,-3.0605,-3.0879,-3.1055,-3.1152,-3.1152,-3.1328,-3.1426,-3.1426,-3.1426,-3.1426,-3.1426,-3.1426,-3.1426,-3.1426,-3.1426,-3.1426,-3.1426,-3.1426,-3.1426,-3.1465,-3.1974,-3.2223,0.0,0.0,0.0,0.0,0.0,-3.1934,-3.2045,0.0,0.0,0.0,0.0,0.0,0.0,-1.8781,-1.8827,-1.9222,-2.0232,-2.0671,-2.1492,-2.3176,-2.3631,-2.4077,-2.4603,-2.4347,-2.4059,-2.3684,-2.3066,-2.3032,-2.3665,-2.4127,-2.4693,-2.5412,-2.5806,-2.6182,-2.6559,-2.6559,-2.6611,-2.6631,-2.6631,-2.651,-2.6189,-2.6189,-2.6023,-2.5741,-2.5741,-2.5525,-2.5118,-2.5118,-2.5016,-2.4834,-2.4577,-2.4826,-2.5243,-2.438,-2.444,-2.4833,-2.4535,0.0,0.0,0.0,0.0,0.0,0.0,0.0,0.0,0.0,0.0,0.0,0.0,0.0,0.0,0.0,0.0,0.0,0.0,0.0,0.0,0.0,0.0,0.0,0.0,-2.9355,-2.9785,-3.0215,-2.9961,-2.9783,-2.9783,-3.0059,-3.0273,-3.0273,-3.0703,-3.0957,-3.0957,-3.1016,-3.1035,-3.1035,-3.1387,0.0,0.0,0.0,-3.2229,-3.2229,-3.2229,-3.2229,-3.2229,-3.2229,-3.2229,-3.2229,-3.2229,-3.2229,-3.2229,-3.2229,-3.2229,-3.2148,-3.1758,-3.1582,-3.1722,-3.3365,-3.4,-3.3888,-3.2856,-3.1845,-3.1054,0.0,0.0,0.0,0.0,0.0,0.0,-1.8781,-1.8966,-1.9501,-2.0473,-2.108,-2.2013,-2.344,-2.39,-2.4091,-2.3905,-2.4093,-2.3939,-2.3271,-2.3409,-2.3528,-2.3699,-2.4624,-2.536,-2.5823,-2.6182,-2.6576,-2.6953,-2.6953,-2.7004,-2.7012,-2.7012,-2.6952,-2.6891,-2.6891,-2.6857,-2.6789,-2.6789,-2.6431,-2.5915,-2.5915,-2.5635,-2.5241,-2.4918,-2.5107,-2.5485,-2.4654,-2.4593,-2.488,-2.4367,-2.4631,-2.5087,-2.479,-2.4977,0.0,0.0,0.0,0.0,0.0,0.0,0.0,0.0,0.0,0.0,0.0,0.0,0.0,0.0,0.0,0.0,0.0,0.0,0.0,-2.9297,-2.9805,-3.0234,-3.0703,-3.0684,-3.0644,-3.0644,-3.0703,-3.0762,-3.0762,-3.1152,-3.1406,-3.1406,-3.1719,-3.1914,-3.1914,-3.1992,-3.2051,-3.2051,-3.2129,-3.2229,-3.2229,-3.2229,-3.2229,-3.2229,-3.2229,0.0,-3.2229,-3.2229,-3.2229,-3.2229,-3.2229,-3.2229,-3.2168,-3.207,-3.2051,-3.2013,-3.17,-3.1556,-3.1556,-3.1344,-3.1112,-3.0957,0.0,0.0,0.0,0.0,0.0,0.0,-1.8966,-1.9104,-1.9529,-2.0495,-2.104,-2.1708,-2.274,-2.3169,-2.3306,-2.3169,-2.3271,-2.3306,-2.3117,-2.346,-2.3836,-2.4247,-2.5155,-2.5737,-2.5885,-2.6491,-2.6884,-2.7073,-2.7073,-2.7073,-2.7073,-2.7073,-2.7073,-2.7073,-2.7073,-2.7073,-2.7073,-2.7073,-2.691,-2.6602,-2.6602,-2.6321,-2.5908,-2.5201,-2.5303,-2.5757,-2.5321,-2.5466,-2.5834,-2.5555,-2.5561,-2.5698,-2.5212,-2.5197,-2.5397,0.0,0.0,0.0,0.0,0.0,0.0,0.0,0.0,0.0,0.0,0.0,0.0,0.0,0.0,-2.8095,-2.8265,0.0,-2.9286,-2.947,-3.0277,-3.082,-3.0759,-3.1209,-3.1445,-3.123,-3.1211,-3.1289,-3.1504,-3.1719,-3.1836,-3.1836,-3.2051,-3.2229,-3.2229,-3.2363,-3.248,-3.248,-3.2695,-3.2793,-3.2793,-3.2793,-3.2793,-3.2793,-3.2793,-3.2793,-3.2793,-3.2793,-3.2793,-3.2793,-3.2793,-3.2793,-3.2773,-3.2559,-3.2363,-3.219,-3.1699,-3.1406,-3.1191,-3.0976,-3.0898,-3.0898,0.0,0.0,0.0,0.0,0.0,0.0,0.0,-1.9196,-1.9494,-2.0322,-2.0802,-2.1334,-2.1904,-2.2379,-2.2568,-2.25,-2.2551,-2.2757,-2.3083,-2.3597,-2.4162,-2.4795,-2.5463,-2.5799,-2.5885,-2.661,-2.7004,-2.7073,-2.7073,-2.7073,-2.7073,-2.7073,-2.7073,-2.7073,-2.7073,-2.7073,-2.7073,-2.7073,-2.7073,-2.7073,-2.7073,-2.6884,-2.65,-2.5738,-2.5595,-2.5827,-2.5768,-2.6041,-2.6429,-2.6429,-2.6383,-2.6226,-2.5439,-2.5394,-2.5463,-2.5186,-2.5517,0.0,0.0,0.0,0.0,0.0,0.0,0.0,0.0,-2.7693,-2.7844,-2.8426,-2.8918,-2.9184,-2.9064,-2.9757,-3.02,-2.9783,-3.0813,-3.1461,-3.0981,-3.151,-3.1949,-3.1797,-3.1699,-3.1777,-3.2129,-3.2246,-3.2285,-3.2285,-3.2363,-3.2422,-3.2422,-3.2734,-3.291,-3.291,-3.3242,-3.3418,-3.3418,-3.3418,-3.3457,-3.3555,-3.3555,-3.3594,-3.3672,-3.3594,-3.3555,-3.3535,-3.3457,-3.3418,-3.3398,-3.3066,-3.2715,-3.2402,-3.2324,-3.207,-3.1719,-3.1289,-3.1094,-3.1016,0.0,0.0,0.0,0.0,0.0,0.0,0.0,0.0,-1.9418,-2.0041,-2.0707,-2.1334,-2.1904,-2.2379,-2.2465,-2.209,-2.2414,-2.2757,-2.3083,-2.411,-2.4727,-2.4812,-2.5206,-2.56,-2.5867,-2.6336,-2.673,-2.7073,-2.7073,-2.7073,-2.7073,-2.7073,-2.7073,-2.7073,-2.7073,-2.7073,-2.7073,-2.7073,-2.7073,-2.7073,-2.7073,-2.7056,-2.7004,-2.691,-2.6347,-2.5536,-2.5227,-2.5169,-2.5227,-2.5227,-2.5797,-2.6481,-2.6371,-2.6547,-2.6702,-2.6236,-2.5573,-2.4786,-2.4136,-2.475,-2.5818,-2.6865,-2.7361,-2.7877,0.0,-2.8716,-2.8875,-2.9578,-2.9789,-2.9808,-2.9787,-3.0386,-3.0873,-3.0811,-3.1556,-3.209,-3.2029,-3.1562,-3.1574,-3.2555,-3.2324,-3.2109,-3.2168,-3.25,-3.2734,-3.2734,-3.3066,-3.3281,-3.3281,-3.332,-3.3359,-3.3359,-3.3398,-3.3418,-3.3418,-3.3418,-3.3613,-3.4004,-3.4004,-3.4199,-3.4551,-3.418,-3.4004,-3.3984,-3.3594,-3.3418,-3.3418,-3.3379,-3.332,-3.3242,-3.2871,-3.2695,-3.2598,-3.2187,-3.1777,-3.1445,0.0,0.0,0.0,0.0,0.0,0.0,0.0,0.0,0.0,-1.9777,-2.0036,-2.0326,-2.0587,-2.0864,-2.1023,-2.1011,-2.2002,-2.2671,-2.2826,-2.4059,-2.4812,-2.4812,-2.5172,-2.5446,-2.56,-2.5977,-2.6354,-2.673,-2.673,-2.685,-2.7073,-2.7073,-2.7073,-2.7073,-2.7073,-2.7073,-2.7073,-2.7073,-2.7073,-2.7073,-2.7073,-2.7073,-2.7073,-2.7073,-2.6671,-2.6075,-2.5898,-2.5704,0.0,-2.5772,-2.5864,-2.5872,-2.5872,-2.5872,-2.5802,-2.5597,-2.5388,-2.5421,-2.6115,-2.5933,-2.5821,-2.7175,-2.7353,-2.7398,-2.8147,-2.8247,-2.8492,-2.9498,-2.9864,-3.0017,-3.0079,-3.0611,-3.0967,-3.0583,-3.1328,-3.1922,-3.1717,-3.1927,-3.2325,-3.2831,-3.2883,-3.2891,-3.2891,-3.3066,-3.3164,-3.3164,-3.332,-3.3418,-3.3418,-3.3418,-3.3535,-3.3789,-3.3809,-3.3926,-3.416,-3.416,-3.4258,-3.4434,-3.4434,-3.4531,-3.4687,-3.4512,-3.4434,-3.4414,-3.3984,-3.3809,-3.3789,-3.3535,-3.3418,-3.3398,-3.3223,-3.3164,-3.3086,-3.2422,-3.2051,-3.1894,0.0,0.0,0.0,0.0,0.0,0.0,0.0,0.0,0.0,0.0,-1.9899,-1.9899,-1.9808,-2.0019,-2.0201,-2.0201,-2.1473,-2.2362,-2.2686,-2.3944,-2.47,-2.4795,-2.5181,-2.5258,-2.5133,-2.5462,-2.5785,-2.6101,-2.6278,-2.6414,-2.6508,-2.6705,-2.6705,-2.6525,-2.6705,-2.6705,-2.6645,-2.6867,-2.6919,-2.6919,-2.7039,-2.7073,-2.7073,-2.6953,-2.673,-2.6473,-2.6371,-2.6097,-2.5806,-2.5977,-2.5666,-2.5273,-2.5428,-2.5246,-2.4992,-2.4893,-2.4862,-2.52,-2.6756,-2.6481,-2.6095,-2.7464,-2.7691,-2.7714,-2.8115,-2.8327,-2.8682,-2.9562,-2.9928,-3.0161,-3.0211,-3.0711,-3.1033,-3.0581,-3.1308,-3.1904,-3.1759,-3.215,-3.2594,-3.2975,-3.3038,-3.3102,-3.3355,-3.3418,-3.3418,-3.3418,-3.3418,-3.3476,-3.3594,-3.3594,-3.3789,-3.4238,-3.4238,-3.4394,-3.4687,-3.4707,-3.4766,-3.4883,-3.4883,-3.4961,-3.5059,-3.4941,-3.4824,-3.4687,-3.4375,-3.4238,-3.4219,-3.3789,-3.3594,-3.3594,-3.3476,-3.3418,-3.334,-3.2734,-3.2441,-3.2344,0.0,0.0,0.0,0.0,0.0,0.0,0.0,0.0,0.0,0.0,0.0,0.0,0.0,-2.0682,-2.0682,-1.9973,-2.0853,-2.191,-2.2902,-2.3756,-2.44,-2.4799,-2.5072,-2.4967,-2.4547,-2.4792,-2.4993,-2.5069,-2.5594,-2.5611,-2.5085,-2.5669,-2.5611,-2.5085,-2.5686,-2.5802,-2.5586,-2.6236,-2.6508,-2.6542,-2.6919,-2.7073,-2.7039,-2.6645,-2.6491,-2.6439,-2.608,-2.5703,-2.5326,-2.4984,-2.4864,-2.4902,-2.5439,-2.5339,-2.4951,-2.4597,-2.3788,-2.3215,-2.4401,-2.5415,-2.6443,-2.7579,-2.8701,-2.9435,-2.9217,-2.9679,-3.013,-3.0167,-3.0185,-3.0185,-3.0204,-3.0828,-3.1258,-3.1258,-3.1865,-3.2466,-3.2848,-3.2019,-3.1955,-3.3228,-3.2511,-3.232,-3.3292,-3.3418,-3.3418,-3.3418,-3.3418,-3.3613,-3.4023,-3.4062,-3.4238,-3.4668,-3.4687,-3.4687,-3.4707,-3.4707,-3.4922,-3.5371,-3.5371,-3.5586,-3.5976,-3.5566,-3.5137,-3.4707,-3.4687,-3.4687,-3.4648,-3.4219,-3.4062,-3.4004,-3.3594,-3.3418,-3.3418,-3.3398,-3.3125,-3.2773,0.0,0.0,0.0,0.0,0.0,0.0,0.0,0.0,0.0,0.0,0.0,0.0,0.0,0.0,0.0,0.0,-2.1398,-2.2005,-2.2364,-2.3646,-2.4474,-2.4614,-2.5177,-2.5456,-2.5318,-2.5374,-2.5397,-2.528,-2.5451,-2.5398,-2.4994,-2.5227,-2.5169,-2.4994,-2.5227,-2.5227,-2.5202,-2.5687,-2.5913,-2.5947,-2.6298,-2.6436,-2.6303,-2.5915,-2.5575,-2.5292,0.0,-2.4504,-2.459,-2.447,-2.4264,-2.4113,-2.4274,-2.4258,-2.4175,-2.423,-2.4771,-2.5624,-2.6852,-2.753,-2.8212,-2.9449,-2.9904,-2.9959,-2.9857,-3.0018,-3.0277,-3.0534,-3.0167,-2.9874,-3.0149,-3.0376,-3.0636,-3.0885,-3.1381,-3.1827,-3.2166,-3.2166,-3.2166,-3.2358,-3.2466,-3.2594,-3.274,-3.3102,-3.3418,-3.3418,-3.3691,-3.3926,-3.4062,-3.4336,-3.4687,-3.5137,-3.5156,-3.5293,-3.5566,-3.5586,-3.5644,-3.5801,-3.5801,-3.5879,-3.6016,-3.5879,-3.5723,-3.5566,-3.5273,-3.5156,-3.5137,-3.4668,-3.4492,-3.4453,-3.4023,-3.3848,-3.3828,-3.3535,-3.332,-3.3203,0.0,0.0,0.0,0.0,0.0,0.0,0.0,0.0,0.0,0.0,0.0,0.0,0.0,0.0,0.0,0.0,0.0,-2.1884,-2.2262,-2.3273,-2.3901,-2.4031,-2.4684,-2.4845,-2.4526,-2.4632,-2.4487,-2.4077,-2.4734,-2.4658,-2.3934,-2.4597,-2.4713,-2.4268,-2.4499,-2.4557,-2.4515,-2.4995,-2.5152,-2.5169,-2.552,-2.5587,-2.5509,-2.5121,-2.4794,0.0,-2.3751,-2.3631,-2.3819,-2.3682,-2.3477,-2.3323,-2.3479,-2.3704,-2.3962,-2.4427,-2.5595,-2.7036,-2.8454,-2.9108,-2.9632,-3.0771,-3.0841,-3.0629,-3.0652,-3.0626,-3.0699,-3.0956,-3.0351,-2.9874,-3.0149,-3.0204,-3.0174,-3.0106,-3.0611,-3.1083,-3.1418,-3.1544,-3.1701,-3.2001,-3.2358,-3.2542,-3.2437,-3.3078,-3.3461,-3.3461,-3.3842,-3.4219,-3.4531,-3.4805,-3.5156,-3.5605,-3.5605,-3.5742,-3.6016,-3.6016,-3.6016,-3.6016,-3.6016,-3.6016,-3.6016,-3.6016,-3.6016,-3.5996,-3.5742,-3.5605,-3.5586,-3.5137,-3.4941,-3.4902,-3.4473,-3.4297,-3.4238,-3.3809,-3.3652,-3.3633,0.0,0.0,0.0,0.0,0.0,0.0,0.0,0.0,0.0,0.0,0.0,0.0,0.0,0.0,0.0,0.0,0.0,0.0,-2.2485,-2.2575,-2.2793,-2.3285,-2.3569,-2.3338,-2.2502,-2.2754,-2.2485,-2.1776,-2.3566,-2.3597,-2.2087,-2.3842,-2.4067,-2.2967,-2.3526,-2.3638,-2.3415,-2.4005,-2.4245,-2.4317,-2.4556,-2.474,-2.4689,-2.4296,-2.4142,-2.4022,-2.3288,-2.3083,-2.3032,-2.2723,-2.262,-2.2755,-2.3294,-2.3795,-2.4409,-2.5301,-2.6255,-2.745,-2.9089,-2.9967,-3.0717,-3.1656,-3.1584,-3.1344,-3.1414,-3.1377,-3.1377,-3.1341,-3.0699,-3.013,-3.013,-3.013,-2.9892,-2.914,-2.9709,-3.0383,-3.0674,-3.0507,-3.0803,-3.2218,-3.214,-3.2115,-3.2441,-3.3131,-3.3604,-3.3623,-3.3947,-3.4512,-3.5351,-3.541,-3.5605,-3.6016,-3.6016,-3.6016,-3.6016,-3.6016,-3.6016,-3.6016,-3.6016,-3.6016,-3.6016,-3.6016,-3.6016,-3.6016,-3.6016,-3.6016,-3.5996,-3.5586,-3.543,-3.5371,-3.4922,-3.4726,-3.4687,-3.4258,-3.4101,-3.4043,0.0,0.0,0.0,0.0,0.0,0.0,0.0,0.0,0.0,0.0,0.0,0.0,0.0,0.0,0.0,0.0,0.0,0.0,-2.1889,-2.2472,-2.2892,-2.3015,-2.3675,-2.3954,-2.3755,-2.3805,-2.3555,-2.2904,-2.3366,-2.3149,-2.2314,-2.2774,-2.2858,-2.2547,-2.2339,-2.2234,-2.2146,-2.216,-2.2436,-2.2928,-2.3245,-2.3673,-2.4023,-2.3597,-2.3436,-2.3288,-2.2604,-2.2537,-2.2723,-2.2637,-2.2963,-2.3687,-2.5324,-2.5878,-2.6129,-2.7114,-2.8342,-2.9616,-3.0645,-3.1378,-3.1969,-3.2478,-3.2207,-3.1716,-3.1763,-3.1589,-3.1286,-3.0992,-3.0057,-2.9287,-2.9287,-2.9287,-2.9324,-2.9397,-3.0351,-3.1148,-3.1193,-3.1339,-3.1606,-3.206,-3.2246,-3.2394,-3.2537,-3.2972,-3.3482,-3.407,-3.4707,-3.5156,-3.5391,-3.5684,-3.5918,-3.6016,-3.6016,-3.6016,-3.6016,-3.6016,-3.6016,-3.6016,-3.6016,-3.6016,-3.6016,-3.6016,-3.6016,-3.6016,-3.6016,-3.6016,-3.6016,-3.5898,-3.5859,-3.582,-3.5391,-3.5215,-3.5156,-3.4707,-3.4531,-3.4473,0.0,0.0,0.0,0.0,0.0,0.0,0.0,0.0,0.0,0.0,0.0,0.0,0.0,0.0,0.0,0.0,0.0,0.0,0.0,-2.2126,-2.2364,-2.2364,-2.285,-2.3088,-2.3088,-2.3253,-2.3015,-2.2279,-2.3037,-2.2853,-2.1957,-2.2548,-2.2653,-2.2401,-2.2131,-2.203,-2.1979,-2.1877,-2.2074,0.0,0.0,-2.2869,-2.3267,-2.315,-2.2997,-2.2843,-2.2621,-2.2859,-2.341,-2.4104,-2.4298,-2.4464,-2.6155,-2.6663,-2.6865,-2.8238,-2.9564,-3.0742,-3.1797,-3.2435,-3.2812,-3.2854,-3.2485,-3.2008,-3.1526,-3.1117,-3.0644,-2.9892,-2.892,-2.8242,-2.8425,-2.8608,-2.8792,-2.9012,-3.0075,-3.0864,-3.0864,-3.122,-3.1552,-3.1946,-3.228,-3.2622,-3.2808,-3.3315,-3.3887,-3.4524,-3.495,-3.5267,-3.5664,-3.5898,-3.6016,-3.6016,-3.6016,-3.6016,-3.6016,-3.6016,-3.6016,-3.6016,-3.6016,-3.6016,-3.6016,-3.6016,-3.6016,-3.6016,-3.6016,-3.6016,-3.6016,-3.6016,-3.6016,-3.5996,-3.5762,-3.5664,-3.5605,-3.5176,-3.5,-3.4941,0.0,0.0,0.0,0.0,0.0,0.0,0.0,0.0,0.0,0.0,-2.1776,0.0,0.0,0.0,0.0,0.0,0.0,0.0,0.0,0.0,-2.1797,-2.1851,-2.1742,-2.1723,-2.176,-2.2053,-2.1853,-2.1087,-2.2543,-2.2584,-2.141,-2.2522,-2.2807,-2.2294,-2.2244,-2.2194,-2.2227,-2.208,-2.2134,-2.2312,-2.2267,-2.2371,-2.2634,0.0,-2.2904,-2.2754,-2.2955,-2.3494,-2.4439,-2.6009,-2.5915,-2.5318,-2.6738,-2.7142,-2.7438,-2.926,-3.0451,-3.1406,-3.2559,-3.3144,-3.3355,-3.3038,-3.274,-3.2194,-3.1052,-3.0458,-2.9843,-2.8572,-2.7673,-2.7215,-2.7675,-2.8022,-2.837,-2.8517,-2.9525,-3.0296,-3.0351,-3.0699,-3.1231,-3.2001,-3.2441,-3.2826,-3.323,-3.3879,-3.4437,-3.4883,-3.4852,-3.5153,-3.5928,-3.6016,-3.6016,-3.6016,-3.6016,-3.6016,-3.6016,-3.6016,-3.6016,-3.6016,-3.6016,-3.6016,-3.6016,-3.6016,-3.6016,-3.6016,-3.6016,-3.6016,-3.6016,-3.6016,-3.6016,-3.6016,-3.6016,-3.6016,-3.5976,-3.5605,-3.5488,-3.541,0.0,0.0,0.0,0.0,0.0,0.0,0.0,0.0,0.0,0.0,-2.2132,-2.2173,0.0,0.0,0.0,0.0,0.0,0.0,0.0,0.0,0.0,-2.2675,-2.2053,-2.1851,-2.2181,-2.1925,-2.1715,-2.1597,-2.1861,-2.1871,-2.1636,-2.1871,-2.1926,-2.1789,-2.1405,-2.1267,-2.1221,-2.083,-2.0945,-2.1466,-2.1739,-2.2215,-2.2747,-2.3182,0.0,0.0,-2.3055,-2.3494,-2.4368,-2.5793,-2.6383,-2.6875,-2.9086,-2.9655,-2.9796,-3.1281,-3.2068,-3.2578,-3.3164,-3.3359,-3.3355,-3.3355,-3.3038,-3.2511,-3.1361,-3.0602,-2.9721,-2.8189,-2.7251,-2.6811,-2.7196,-2.76,-2.8263,-2.9195,-3.0112,-3.0791,-3.1121,-3.1524,-3.1964,-3.2441,-3.2863,-3.3266,-3.367,-3.3845,-3.4139,-3.4834,-3.4914,-3.5188,-3.5947,-3.6016,-3.6016,-3.6016,-3.6016,-3.6016,-3.6016,-3.6016,-3.6016,-3.6016,-3.6016,-3.6016,-3.6016,-3.6016,-3.6016,-3.6016,-3.6016,-3.6016,-3.6016,-3.6016,-3.6016,-3.6016,-3.6016,-3.6016,-3.6016,-3.5937,-3.5918,-3.5859,0.0,0.0,0.0,0.0,0.0,0.0,0.0,-2.2838,-2.2662,-2.275,-2.2764,-2.2674,-2.243,-2.216,-2.2071,0.0,0.0,0.0,0.0,0.0,0.0,-2.2895,-2.2327,-2.2089,-2.2318,-2.2309,-2.2108,-2.1687,0.0,-2.2108,-2.1687,-2.1687,-2.1687,-2.1687,-2.1463,-2.1356,-2.1374,-2.1105,-2.1245,-2.1589,-2.2026,-2.2368,-2.2757,0.0,0.0,0.0,-2.3456,-2.3903,-2.4684,-2.5484,-2.6481,-2.7682,-2.954,-2.9936,-3.0039,-3.1488,-3.2182,-3.2598,-3.3242,-3.3418,-3.3418,-3.3418,-3.3165,-3.2522,-3.0914,-3.0027,-2.8907,-2.6976,-2.6059,-2.5766,-2.6223,-2.6738,-2.7471,-2.852,-2.9672,-3.0552,-3.0736,-3.1653,-3.2386,-3.257,-3.2798,-3.3095,-3.3415,-3.3173,-3.3173,-3.3711,-3.3798,-3.4421,-3.5947,-3.6016,-3.6016,-3.6016,-3.623,-3.6348,-3.6348,-3.6582,-3.668,-3.668,-3.668,-3.668,-3.668,-3.6465,-3.6348,-3.6348,-3.6113,-3.6016,-3.6016,-3.6016,-3.6016,-3.6016,-3.6016,-3.6016,-3.6016,-3.6016,-3.6016,-3.5996,0.0,0.0,0.0,0.0,0.0,0.0,0.0,-2.3551,-2.3285,-2.3462,-2.3531,-2.3293,-2.261,-2.2491,-2.2529,0.0,0.0,0.0,0.0,0.0,0.0,0.0,0.0,0.0,-2.2547,0.0,0.0,-2.1943,-2.2602,0.0,0.0,0.0,0.0,0.0,-2.1687,-2.1687,-2.1687,-2.1687,-2.178,0.0,0.0,-2.2667,-2.2827,0.0,0.0,0.0,0.0,-2.4253,-2.4866,-2.5203,-2.6206,-2.751,-2.8782,-2.9346,-2.9739,-3.1079,-3.1789,-3.2344,-3.3184,-3.3418,-3.3418,-3.3418,-3.3165,-3.245,-3.0365,-2.9351,-2.8201,-2.5761,-2.4922,-2.4776,-2.5231,-2.5913,-2.6719,-2.7564,-2.8865,-2.991,-3.0167,-3.1433,-3.2404,-3.257,-3.2687,-3.2806,-3.3067,-3.2456,-3.2175,-3.2526,-3.2736,-3.3572,-3.5314,-3.5684,-3.581,-3.5673,-3.6444,-3.6727,-3.6588,-3.7059,-3.7305,-3.7305,-3.7305,-3.7305,-3.7285,-3.6953,-3.6816,-3.6777,-3.6348,-3.6152,-3.6152,-3.6055,-3.6016,-3.6016,-3.6016,-3.6016,-3.6016,-3.6016,-3.6016,-3.6016,0.0,0.0,0.0,0.0,0.0,0.0,0.0,-2.4957,-2.4637,-2.4637,-2.429,-2.4033,-2.3902,-2.3504,-2.3345,0.0,0.0,0.0,0.0,0.0,0.0,0.0,0.0,0.0,0.0,0.0,0.0,-2.2803,-2.2876,0.0,0.0,0.0,0.0,0.0,0.0,-2.1687,-2.1687,-2.1687,0.0,0.0,0.0,0.0,0.0,0.0,0.0,0.0,0.0,-2.399,-2.4322,-2.4866,-2.5316,-2.5782,-2.6609,-2.8257,-2.9941,-3.0448,-3.1383,-3.2344,-3.3184,-3.3418,-3.3418,-3.3418,-3.3355,-3.2685,-3.0062,-2.9089,-2.805,-2.5408,-2.4551,-2.4385,-2.4757,-2.5543,-2.6333,-2.7105,-2.7985,-2.8938,-3.0039,-3.0974,-3.1799,-3.2514,-3.2687,-3.2736,-3.2736,-3.2052,-3.1771,-3.2105,-3.2788,-3.3206,-3.3415,-3.4757,-3.5261,-3.456,-3.631,-3.6874,-3.6148,-3.6913,-3.7305,-3.7305,-3.7305,-3.7305,-3.7305,-3.7266,-3.7246,-3.7226,-3.6797,-3.6621,0.0,-3.6191,-3.6016,-3.6016,-3.6016,-3.6016,-3.6016,-3.6016,-3.6016,-3.6016,0.0,0.0,0.0,0.0,0.0,0.0,-2.5594,-2.4985,-2.4552,-2.4552,-2.4528,-2.4448,-2.4448,-2.4488,-2.4363,-2.3951,0.0,0.0,0.0,0.0,0.0,0.0,0.0,0.0,0.0,0.0,-2.3151,-2.2913,-2.3151,0.0,0.0,0.0,0.0,0.0,0.0,-2.1687,-2.1687,-2.1687,0.0,0.0,0.0,0.0,0.0,0.0,0.0,0.0,0.0,0.0,-2.4257,-2.4418,-2.4908,-2.5396,-2.5231,-2.6379,-2.8033,-2.9201,-3.014,-3.1072,-3.2367,-3.2859,-3.3105,-3.3359,-3.3047,-3.2105,-2.989,-2.869,-2.7425,-2.5242,-2.4496,-2.433,-2.4702,-2.5286,-2.5837,-2.6407,-2.7381,-2.8187,-2.8663,-3.0277,-3.1377,-3.1247,-3.1716,-3.1824,-3.1401,-3.0638,-3.0354,-3.0781,-3.1463,-3.1956,-3.2187,-3.3889,-3.5008,-3.5392,-3.6447,-3.7086,-3.7157,-3.7786,-3.8066,-3.8066,-3.8066,-3.8066,-3.8066,-3.7793,-3.7676,-3.7656,-3.7226,-3.6894,0.0,-3.6484,-3.625,-3.6016,-3.6016,-3.6016,-3.6016,-3.6016,-3.6016,-3.6016,0.0,0.0,0.0,0.0,0.0,-2.6428,-2.6141,-2.5571,-2.5132,-2.5132,-2.5125,-2.513,-2.5226,-2.5014,-2.4662,-2.4331,-2.4282,0.0,0.0,0.0,0.0,0.0,0.0,0.0,0.0,0.0,-2.3584,-2.3261,-2.3584,-2.3363,0.0,0.0,-2.2364,-2.187,0.0,0.0,0.0,0.0,0.0,0.0,0.0,0.0,0.0,0.0,0.0,0.0,0.0,0.0,0.0,0.0,0.0,-2.4992,-2.4532,-2.5002,-2.6098,-2.7734,-2.888,-2.9968,-3.1353,-3.2176,-3.2676,-3.2969,-3.2422,-3.1326,-2.9565,-2.8212,-2.6839,-2.5085,-2.4454,-2.433,-2.4702,-2.5157,-2.5543,-2.5947,-2.6829,-2.7546,-2.7785,-2.9452,-3.0565,-3.0309,-3.0659,-3.0769,-3.0413,-2.9725,-2.9545,-3.016,-3.0677,-3.1432,-3.2394,-3.3696,-3.4827,-3.5587,-3.6739,-3.7456,-3.7764,-3.8345,-3.8574,-3.8574,-3.8574,-3.8574,-3.8555,-3.8262,-3.8125,-3.8086,-3.7676,-3.7324,0.0,-3.6777,-3.6484,-3.6191,-3.6074,-3.6016,-3.6016,-3.6016,-3.6016,-3.6016,0.0,0.0,0.0,0.0,0.0,0.0,-2.7289,-2.7071,-2.688,-2.688,-2.638,-2.6187,-2.6448,-2.4824,-2.4134,-2.5186,-2.4775,0.0,0.0,0.0,0.0,0.0,0.0,0.0,0.0,0.0,-2.4183,-2.4183,-2.4183,-2.3932,-2.348,-2.348,-2.3041,-2.2272,0.0,0.0,0.0,0.0,0.0,0.0,0.0,0.0,0.0,0.0,0.0,0.0,0.0,0.0,0.0,0.0,0.0,0.0,0.0,-2.4551,-2.4509,-2.6091,-2.7815,-2.941,-3.0258,-3.1345,-3.2229,-3.2187,-3.1543,-3.0489,-2.8887,-2.7672,-2.6456,-2.484,-2.435,-2.433,-2.4702,-2.5157,-2.5543,-2.5947,-2.6316,-2.6866,-2.7711,-2.848,-2.9305,-3.0112,-2.9707,-2.9558,-3.0208,-2.9715,-2.9801,-3.0865,-3.097,-3.2014,-3.433,-3.4513,-3.4513,-3.4513,-3.7175,-3.8209,-3.7402,-3.8209,-3.8574,-3.8574,-3.8574,-3.8574,-3.8574,-3.8574,-3.8574,-3.8555,-3.8105,-3.791,0.0,-3.7012,-3.668,-3.6621,-3.6191,-3.6016,-3.6016,-3.6016,-3.6016,-3.6016,0.0,0.0,0.0,0.0,0.0,0.0,0.0,-2.6284,-2.58,-2.6544,-2.5703,-2.4884,-2.4639,-2.4196,-2.3601,-2.2652,-2.307,0.0,0.0,0.0,0.0,0.0,0.0,0.0,0.0,-2.4202,-2.4202,-2.4202,-2.4202,-2.395,-2.3499,-2.3499,-2.3154,-2.2565,-2.2364,-2.2207,0.0,0.0,0.0,0.0,0.0,0.0,-2.4745,0.0,0.0,0.0,0.0,0.0,0.0,0.0,0.0,0.0,0.0,0.0,0.0,-2.4762,-2.5952,-2.7374,-2.8573,-2.9408,-3.0019,-3.0312,-2.9746,-2.8871,-2.7902,-2.7199,-2.6448,-2.5459,-2.5058,-2.508,-2.5785,-2.5629,-2.5653,-2.6279,-2.6644,-2.6974,-2.7233,-2.8883,-2.9892,-2.9404,-2.9761,-3.004,-3.0045,-2.9867,-2.9945,-3.0591,-3.1071,-3.1933,-3.3163,-3.4241,-3.535,-3.6478,-3.7345,-3.7916,-3.8209,-3.8501,-3.8574,-3.8574,-3.8574,-3.8574,-3.8574,-3.8574,-3.8574,-3.8574,-3.8418,-3.8203,-3.7871,-3.7324,-3.6934,-3.6621,-3.6191,-3.6016,-3.6016,-3.6016,-3.6016,-3.6016,0.0,0.0,0.0,0.0,0.0,0.0,0.0,-2.5586,-2.5294,-2.5538,-2.459,-2.3782,-2.3565,-2.2968,-2.2316,-2.1641,-2.2097,0.0,0.0,0.0,0.0,0.0,0.0,0.0,-2.4301,-2.4251,-2.4251,-2.4301,-2.4251,-2.4073,-2.3767,-2.3767,-2.3489,-2.2945,-2.2741,-2.2446,0.0,0.0,0.0,0.0,0.0,0.0,-2.4892,0.0,0.0,0.0,0.0,0.0,0.0,0.0,0.0,0.0,0.0,0.0,0.0,0.0,-2.4852,-2.5843,-2.7043,-2.7953,-2.8641,-2.9023,-2.8437,-2.7682,-2.7272,-2.6763,-2.6244,-2.5824,-2.568,-2.5745,-2.6315,-2.6117,-2.612,-2.668,-2.7008,-2.721,-2.7418,-2.9156,-3.0131,-2.9545,-3.0036,-3.024,-2.9731,-2.9835,-3.0137,-3.0787,-3.1179,-3.1968,-3.3293,-3.4284,-3.5456,-3.6886,-3.696,-3.7476,-3.8574,-3.8282,-3.8282,-3.8574,-3.8574,-3.8574,-3.8574,-3.8574,-3.8574,-3.8574,-3.8574,-3.8418,0.0,-3.7715,-3.7285,-3.6855,-3.6426,-3.6172,-3.6016,-3.6016,-3.6016,-3.6016,0.0,0.0,0.0,0.0,0.0,0.0,0.0,-2.4884,-2.5148,-2.4245,-2.3335,-2.2885,-2.31,-2.1288,-2.0487,-2.1693,0.0,0.0,0.0,0.0,0.0,0.0,0.0,0.0,-2.4381,-2.4251,-2.4301,-2.448,-2.4251,-2.4152,-2.4202,-2.4102,-2.3828,-2.3336,-2.3289,-2.2889,-2.2206,0.0,0.0,0.0,0.0,0.0,0.0,0.0,0.0,0.0,0.0,0.0,0.0,0.0,0.0,0.0,0.0,0.0,0.0,0.0,0.0,0.0,0.0,-2.6855,-2.7786,-2.7999,-2.7519,-2.6934,-2.6973,-2.6478,0.0,-2.6114,-2.6181,-2.6305,-2.6461,-2.6639,-2.6839,-2.7023,-2.726,-2.7616,-2.8164,-2.9331,-3.0172,-3.0531,-3.0539,-3.0224,-2.9523,-2.9731,-3.0362,-3.1359,-3.122,-3.1977,-3.4093,-3.4313,-3.4932,-3.6052,-3.6052,-3.6793,-3.8501,-3.777,-3.777,-3.8574,-3.8574,-3.8574,-3.8574,-3.8574,-3.8574,-3.8574,-3.8574,-3.8574,-3.8535,-3.8105,-3.7676,-3.7266,-3.6836,-3.6406,-3.6016,-3.6016,-3.6016,-3.6016,0.0,0.0,0.0,0.0,0.0,0.0,0.0,0.0,0.0,0.0,-2.2835,-2.1828,-2.144,-2.0727,-1.9831,0.0,0.0,0.0,0.0,0.0,0.0,0.0,0.0,0.0,-2.3253,-2.3886,-2.4301,-2.448,-2.3438,-2.3438,-2.4381,-2.3388,-2.3255,-2.3812,-2.3477,-2.3223,-2.3088,-2.3383,0.0,0.0,0.0,0.0,0.0,0.0,0.0,0.0,-2.5252,-2.5017,0.0,0.0,0.0,0.0,0.0,0.0,0.0,0.0,-2.3886,-2.3773,-2.4672,0.0,-2.5929,-2.5979,-2.6043,-2.6133,0.0,-2.6668,-2.6851,-2.7234,-2.6859,-2.671,-2.7405,-2.6917,-2.6551,-2.7201,-2.7584,-2.8052,-2.8783,-3.0069,-3.124,-3.207,-3.1634,-3.1043,-3.0268,-3.0232,-3.0408,-3.0632,-3.1146,-3.1804,-3.2626,-3.3439,-3.4348,-3.5231,-3.4649,-3.5399,-3.7623,-3.7476,-3.777,-3.8574,-3.8574,-3.8574,-3.8574,-3.8574,-3.8574,-3.8574,-3.8574,-3.8574,-3.8535,-3.8105,-3.7676,-3.7266,-3.6836,-3.6406,-3.6016,-3.6016,-3.6016,-3.6016,0.0,0.0,0.0,0.0,0.0,0.0,0.0,0.0,0.0,0.0,0.0,-2.0711,-1.9944,-1.9641,0.0,0.0,0.0,0.0,0.0,0.0,0.0,0.0,0.0,-2.337,-2.4016,-2.4233,-2.4282,-2.4134,-2.3619,-2.3587,-2.3935,-2.3737,-2.3742,-2.3978,-2.3529,-2.348,-2.3756,-2.4004,-2.4574,0.0,-2.5139,0.0,0.0,0.0,0.0,0.0,-2.5613,-2.5309,0.0,-2.505,-2.4746,-2.4202,0.0,0.0,0.0,0.0,-2.3538,-2.3388,-2.3836,-2.4332,-2.4843,-2.5186,-2.5333,-2.5391,-2.5621,-2.621,-2.6711,-2.6943,-2.722,-2.7472,-2.7829,-2.758,-2.7292,-2.726,-2.8121,-2.9201,-3.0355,-3.081,-3.1418,-3.2453,-3.1842,-3.1232,-3.0971,-3.0593,-3.0519,-3.0881,-3.1022,-3.1441,-3.2359,-3.2952,-3.3648,-3.4406,-3.4064,-3.4799,-3.6812,-3.6886,-3.7255,-3.8063,-3.8428,-3.8574,-3.8574,-3.8574,-3.8574,-3.8574,-3.8574,-3.8574,-3.8555,-3.832,-3.7851,-3.7266,-3.7051,-3.6582,-3.6016,-3.6016,-3.6016,-3.6016,0.0,0.0,0.0,0.0,0.0,0.0,0.0,0.0,0.0,0.0,0.0,0.0,0.0,0.0,0.0,0.0,0.0,0.0,0.0,0.0,0.0,0.0,-2.2968,-2.3529,-2.4632,-2.4331,-2.3987,-2.3547,-2.3826,-2.3727,-2.3281,-2.4121,-2.4309,-2.3937,-2.3529,-2.3687,-2.4225,-2.4174,-2.4764,-2.5645,-2.5235,0.0,0.0,0.0,0.0,0.0,0.0,0.0,0.0,-2.5706,-2.5145,-2.4251,-2.4332,0.0,0.0,0.0,0.0,0.0,-2.3238,-2.3609,-2.4181,-2.4911,-2.499,-2.4892,-2.4918,-2.5465,-2.6012,-2.6144,-2.7204,-2.8028,-2.7898,-2.814,-2.8126,-2.7269,-2.8613,-3.0319,-3.186,-3.1421,-3.1384,-3.232,-3.1614,-3.12,-3.1456,-3.0835,-3.0717,-3.1375,-3.0865,-3.1104,-3.2473,-3.2682,-3.3051,-3.3658,-3.3727,-3.4423,-3.5847,-3.5978,-3.6442,-3.7255,-3.7916,-3.8209,-3.8209,-3.8209,-3.8209,-3.8209,-3.8209,0.0,-3.8428,-3.8428,-3.8033,-3.7383,-3.7324,-3.6816,-3.6113,-3.6035,-3.6016,-3.6016,0.0,0.0,0.0,0.0,0.0,0.0,0.0,0.0,0.0,0.0,0.0,0.0,0.0,0.0,0.0,0.0,0.0,0.0,0.0,0.0,0.0,-2.1251,-2.1595,-2.1775,-2.1807,-2.2311,-2.2697,-2.2921,-2.212,-2.2218,-2.3183,-2.2791,-2.2994,-2.3668,-2.3301,-2.3821,-2.4905,-2.3889,-2.4307,-2.5596,-2.4412,0.0,0.0,0.0,0.0,0.0,0.0,0.0,0.0,-2.5361,-2.4998,-2.4381,-2.3985,0.0,0.0,0.0,0.0,0.0,-2.287,-2.3357,-2.386,-2.4199,-2.4578,-2.4869,-2.4826,-2.4891,-2.5186,-2.5887,-2.6605,-2.7214,-2.766,-2.7678,-2.7582,-2.7584,-2.8685,-2.9996,-3.1238,-3.1655,-3.1936,-3.2129,-3.1809,-3.1388,-3.1131,-3.0684,-3.0601,-3.1006,-3.0949,-3.1181,-3.175,-3.2708,-3.3231,-3.3357,-3.3665,-3.3912,-3.4139,-3.4857,-3.5605,-3.6367,-3.6497,-3.6571,-3.6571,-3.6571,-3.6571,-3.6571,0.0,-3.696,-3.7549,-3.7549,-3.7701,-3.7793,-3.7441,-3.6992,-3.6523,-3.6152,-3.6016,-3.6016,0.0,0.0,0.0,0.0,0.0,0.0,0.0,0.0,0.0,0.0,0.0,0.0,0.0,0.0,0.0,0.0,0.0,0.0,0.0,0.0,-1.9457,-1.976,-2.0448,-2.1131,-2.1878,-2.2073,-2.2023,-2.1745,-2.1544,-2.161,-2.1945,-2.2581,-2.3061,-2.3327,-2.3131,-2.3316,-2.377,-2.3619,-2.3949,-2.4609,0.0,0.0,0.0,0.0,0.0,0.0,0.0,0.0,0.0,0.0,-2.4843,-2.4381,-2.3687,0.0,0.0,0.0,0.0,0.0,-2.2619,-2.2978,-2.3426,-2.3959,-2.4693,-2.5281,-2.5252,-2.5577,-2.5865,-2.5865,-2.6628,-2.7419,-2.7636,-2.7687,-2.8042,-2.9249,-2.9331,-2.9815,-3.1413,-3.1456,-3.1414,-3.1694,-3.1444,-3.1285,-3.1302,-3.098,-3.0868,-3.1277,-3.109,-3.1275,-3.1837,-3.2582,-3.3049,-3.3272,-3.3648,-3.3761,-3.3761,-3.4197,-3.4799,-3.553,-3.5978,-3.6201,-3.6201,-3.6201,-3.6201,-3.6201,0.0,-3.6442,-3.6812,-3.7181,-3.7375,-3.7297,-3.7319,-3.7031,-3.6621,-3.6172,-3.6016,-3.6016,0.0,0.0,0.0,0.0,0.0,0.0,0.0,0.0,0.0,0.0,0.0,0.0,0.0,0.0,0.0,0.0,0.0,0.0,0.0,-1.8979,-1.9052,-1.8803,-1.9558,-2.0559,-2.1913,-2.1678,-2.1276,-2.0715,-2.1096,-2.1245,-2.1056,-2.223,-2.2737,-2.2589,-2.2472,-2.2617,-2.2975,-2.321,-2.3633,-2.4245,0.0,0.0,0.0,0.0,0.0,0.0,0.0,0.0,0.0,0.0,0.0,0.0,0.0,0.0,0.0,-2.2182,-2.208,-2.2367,-2.2333,-2.2655,-2.3134,-2.3826,-2.4614,-2.5251,-2.5511,-2.5986,-2.625,-2.5933,-2.6921,-2.7752,-2.7579,-2.7724,-2.8316,-2.9872,-2.9678,-2.9842,-3.145,-3.1283,-3.1123,-3.1404,-3.1237,-3.1251,-3.1542,-3.1206,-3.1152,-3.1559,-3.1223,-3.127,-3.1916,-3.2433,-3.2826,-3.3117,-3.3597,-3.3761,-3.3761,-3.3761,-3.4139,-3.4707,-3.5306,-3.5605,-3.5605,-3.5605,-3.5605,-3.5605,-3.5605,-3.5754,-3.5978,-3.659,-3.692,-3.6944,-3.7099,-3.6848,-3.6325,-3.5898,-3.5743,-3.5743,0.0,0.0,0.0,0.0,0.0,0.0,0.0,0.0,0.0,0.0,0.0,0.0,0.0,0.0,0.0,0.0,0.0,0.0,0.0,-1.8491,-1.8818,-1.8789,-1.9184,-1.9611,-2.015,-2.0033,-1.9984,-2.005,-2.0369,-2.0804,-2.137,-2.0903,-2.0835,-2.106,-2.0783,-2.1786,-2.3547,-2.2634,-2.3502,-2.5479,-2.4313,0.0,0.0,0.0,0.0,0.0,0.0,0.0,0.0,0.0,0.0,0.0,0.0,0.0,-2.2669,-2.1369,-2.1522,-2.208,-2.1827,-2.248,-2.3332,-2.3648,-2.3861,-2.428,-2.5168,-2.516,-2.5228,-2.6224,-2.7274,-2.7811,-2.7228,-2.7435,-2.7665,-2.7803,-2.8952,-3.012,-3.0961,-3.1374,-3.1527,-3.1544,-3.1578,-3.1542,-3.163,-3.1206,-3.1152,-3.1559,-3.1223,-3.1152,-3.1593,-3.2296,-3.2689,-3.2724,-3.3443,-3.3761,-3.3761,-3.3761,-3.3837,-3.3912,-3.3912,-3.3988,-3.3988,-3.3988,-3.3988,-3.3988,-3.3988,-3.4423,-3.5082,-3.5157,-3.6034,-3.7326,-3.6963,-3.6299,-3.554,-3.5142,-3.499,-3.499,0.0,0.0,0.0,0.0,0.0,0.0,0.0,0.0,0.0,0.0,0.0,0.0,0.0,0.0,0.0,0.0,0.0,0.0,0.0,-1.8256,-1.8482,-1.8482,-1.8613,-1.8852,-1.9229,-1.9421,-1.9511,-1.9544,-1.9493,-1.9508,-1.9568,-1.9992,-2.0343,-2.0669,-2.1052,-2.1791,-2.2685,-2.2282,-2.3003,-2.4461,-2.4097,-2.4393,0.0,0.0,0.0,0.0,0.0,0.0,0.0,0.0,-2.4084,-2.352,-2.2585,-2.2585,-2.2736,-2.1725,-2.1979,-2.2535,-2.208,-2.2824,-2.3771,-2.3718,-2.4082,-2.4723,-2.5829,-2.6319,-2.6542,-2.6491,-2.734,-2.7998,-2.7511,-2.8289,-2.9025,-2.9025,-2.9915,-3.0772,-3.1285,-3.1474,-3.163,-3.163,-3.163,-3.163,-3.163,-3.1489,-3.1418,-3.1559,-3.1489,-3.1418,-3.1559,-3.2278,-3.2689,-3.2689,-3.3443,-3.3761,-3.3761,-3.3761,-3.3761,-3.3761,-3.3761,-3.3761,-3.3761,-3.3761,-3.3761,-3.3761,-3.3761,-3.3988,-3.4273,-3.4782,-3.5381,-3.5923,-3.6265,-3.602,-3.5471,-3.5073,-3.4646,-3.4301,0.0,0.0,0.0,0.0,0.0,0.0,0.0,0.0,0.0,0.0,0.0,0.0,0.0,0.0,0.0,0.0,0.0,0.0,-1.7533,-1.7921,-1.8189,-1.8291,-1.8394,-1.8613,-1.8935,-1.9118,-1.922,-1.9272,-1.9026,-1.8703,-1.8386,-1.9088,-1.9746,-2.0364,-2.0554,-2.1355,-2.2584,-2.2333,-2.3035,-2.4295,-2.4146,-2.4559,0.0,0.0,0.0,0.0,0.0,0.0,0.0,0.0,-2.3737,-2.3388,-2.2417,-2.2384,-2.2585,-2.1776,-2.2299,-2.2997,-2.2484,-2.3167,-2.4016,-2.4164,-2.4521,-2.5172,-2.6525,-2.7141,-2.7432,-2.7381,-2.7912,-2.8289,-2.8032,-2.9025,-2.9898,-2.9898,-3.0617,-3.1268,-3.1525,-3.163,-3.163,-3.163,-3.163,-3.163,-3.163,-3.163,-3.163,-3.163,-3.163,-3.163,-3.163,-3.2423,-3.2818,-3.2689,-3.3518,-3.3912,-3.3761,-3.3761,-3.3761,-3.3761,-3.3761,-3.3761,-3.3761,-3.3761,-3.3761,-3.3761,-3.3761,-3.3761,-3.3837,-3.4423,-3.4782,-3.5068,-3.5591,-3.5466,-3.4956,-3.4418,-3.3937,-3.3678,0.0,0.0,0.0,0.0,0.0,0.0,0.0,0.0,0.0,0.0,0.0,0.0,0.0,0.0,0.0,0.0,0.0,0.0,-1.7026,-1.7504,-1.7955,-1.8291,-1.8613,-1.8935,-1.9257,-1.9026,-1.9026,-1.9272,-1.9026,-1.8712,-1.837,-1.8122,-1.8722,-1.9922,-1.893,-2.04,-2.3633,-2.2835,-2.375,-2.5577,-2.451,-2.4097,-2.4079,0.0,0.0,0.0,0.0,0.0,0.0,0.0,-2.327,-2.317,-2.2384,-2.208,-2.1979,-2.1471,-2.2237,-2.3224,-2.2975,-2.3294,-2.401,-2.5125,-2.5104,-2.5326,-2.7193,-2.733,-2.7501,-2.9008,-2.9025,-2.8785,-2.8785,-2.9402,-2.9915,-2.9898,-3.084,-3.163,-3.163,-3.163,-3.163,-3.163,-3.163,-3.163,-3.163,-3.163,-3.163,-3.163,-3.163,-3.163,-3.1647,-3.2711,-3.3127,-3.2762,-3.3816,-3.4215,-3.3837,-3.3761,-3.3761,-3.3761,-3.3761,-3.3761,-3.3761,-3.3761,-3.3761,-3.3761,-3.3761,-3.3761,-3.3761,-3.3761,-3.4273,-3.4993,-3.5012,-3.4559,-3.382,-3.2967,-3.2893,-3.326,0.0,0.0,0.0,0.0,0.0,0.0,0.0,0.0,0.0,0.0,0.0,0.0,0.0,0.0,0.0,0.0,0.0,0.0,-1.7519,-1.7717,-1.7955,-1.8291,-1.8195,-1.8311,-1.8679,-1.8584,-1.8593,-1.8684,-1.8384,-1.8227,-1.8122,-1.8826,-1.902,-1.893,-2.0349,-2.1676,-2.2785,-2.1794,-2.3053,-2.5528,-2.3701,-2.3899,-2.5118,0.0,0.0,0.0,0.0,0.0,0.0,0.0,0.0,0.0,-2.2636,-2.2434,-2.2384,-2.1979,-2.2588,-2.3235,-2.2502,-2.3648,-2.4979,-2.4665,-2.5497,-2.661,-2.7415,-2.7741,-2.822,-2.947,-2.923,-2.8939,-2.947,-3.0172,-3.06,-3.0326,-3.0994,-3.163,-3.163,-3.163,-3.163,-3.163,-3.163,-3.163,-3.163,-3.163,-3.163,-3.163,-3.163,-3.1821,-3.2381,-3.2922,-3.3468,-3.3968,-3.4254,-3.4365,-3.4215,-3.3912,-3.3761,-3.3761,-3.3761,-3.3761,-3.3761,-3.3761,-3.3761,-3.3761,-3.3761,-3.3761,-3.3761,-3.3761,-3.4273,-3.4954,-3.4678,-3.4303,-3.3856,-3.3269,-3.2773,-3.2544,0.0,0.0,0.0,0.0,0.0,0.0,0.0,0.0,0.0,0.0,-1.9005,-1.8672,0.0,0.0,0.0,0.0,0.0,0.0,-1.8379,-1.8277,-1.835,-1.8672,-1.8419,-1.8354,-1.8583,-1.8599,-1.8527,-1.8422,-1.8213,-1.8174,-1.8174,-1.8826,-1.919,-1.9294,-2.038,-2.1387,-2.2282,-2.1743,-2.2534,-2.3998,-2.2835,-2.3352,-2.4756,0.0,0.0,0.0,0.0,0.0,0.0,0.0,0.0,0.0,-2.2754,-2.2603,-2.2603,-2.2741,-2.3134,-2.353,-2.361,-2.4442,-2.5374,-2.5692,-2.6439,-2.733,-2.8289,-2.87,-2.9059,-2.9761,-2.9778,-2.9813,-3.0258,-3.0823,-3.1165,-3.0926,-3.1268,-3.163,-3.163,-3.163,-3.163,-3.163,-3.163,-3.163,-3.163,-3.163,-3.163,-3.163,-3.163,-3.1943,-3.268,-3.3208,-3.3813,-3.4439,-3.4606,-3.4574,-3.4365,-3.3988,-3.3761,-3.3761,-3.3761,-3.3761,-3.3761,-3.3761,-3.3761,-3.3761,-3.3761,-3.3761,-3.3761,-3.3761,-3.4064,-3.4446,-3.4079,-3.3751,-3.3366,-3.2909,-3.2596,-3.2474,0.0,0.0,0.0,0.0,0.0,0.0,0.0,0.0,0.0,0.0,-1.9843,-1.9494,0.0,0.0,0.0,0.0,0.0,0.0,0.0,-1.895,-1.8935,-1.9309,-1.8994,-1.8825,-1.8869,-1.8869,-1.8712,-1.8422,-1.8422,-1.8422,-1.8422,-1.8527,-1.919,-2.0328,-1.948,-2.0122,-2.1929,-2.208,-2.1946,-2.1711,-2.1929,-2.2665,-2.344,-2.2053,0.0,0.0,0.0,0.0,0.0,0.0,0.0,0.0,-2.2754,-2.2603,-2.274,-2.3531,-2.3719,-2.401,-2.5457,-2.54,-2.548,-2.7569,-2.7689,-2.7741,-2.9504,-2.9915,-2.995,-2.9984,-3.0532,-3.1028,-3.1063,-3.1337,-3.163,-3.163,-3.163,-3.163,-3.163,-3.163,-3.163,-3.163,-3.163,-3.163,-3.163,-3.163,-3.163,-3.163,-3.163,-3.196,-3.2733,-3.3515,-3.4122,-3.464,-3.4904,-3.4857,-3.4441,-3.4064,-3.3837,-3.3761,-3.3761,-3.3761,-3.3761,-3.3761,-3.3761,-3.3761,-3.3761,-3.3761,-3.3761,-3.3761,-3.3761,-3.3802,-3.346,-3.3066,-3.2638,-3.2313,-3.2435,-3.2771,0.0,0.0,0.0,0.0,0.0,0.0,0.0,0.0,0.0,0.0,0.0,0.0,0.0,0.0,0.0,0.0,0.0,0.0,0.0,-1.8833,-1.8935,-1.9309,-1.9005,-1.8745,-1.8527,-1.8541,-1.8593,-1.8817,-1.8527,-1.8422,-1.8422,-1.9502,-1.9776,-1.9272,-2.0086,-2.0585,-2.0775,-2.0034,-2.0311,-2.1313,-2.1495,-2.2063,-2.2792,-2.2577,-2.2928,0.0,0.0,0.0,0.0,0.0,0.0,0.0,-2.2754,-2.2603,-2.267,-2.3045,-2.3565,-2.4105,-2.4435,-2.5457,-2.6613,-2.7185,-2.8083,-2.9025,-2.9744,-3.0121,-3.0395,-3.072,-3.0909,-3.1114,-3.1388,-3.1508,-3.163,-3.163,-3.163,-3.163,-3.163,-3.163,-3.163,-3.163,-3.163,-3.163,-3.163,-3.163,-3.163,-3.163,-3.163,-3.2206,-3.3533,-3.3801,-3.4466,-3.5758,-3.5569,-3.5306,-3.4857,-3.4499,-3.4139,-3.3761,-3.3761,-3.3761,-3.3761,-3.3761,-3.3761,-3.3761,-3.3761,-3.3761,-3.3761,-3.3761,-3.3761,-3.3761,-3.3751,-3.3289,-3.2745,-3.2985,-3.2876,-3.2771,0.0,0.0,0.0,0.0,0.0,0.0,0.0,0.0,0.0,0.0,0.0,0.0,0.0,0.0,0.0,0.0,0.0,0.0,0.0,0.0,-1.9309,-1.9272,-1.9182,-1.9011,-1.8855,-1.8855,-1.8907,-1.9078,-1.8907,-1.8855,-1.8855,-1.9569,-1.9635,-1.913,-1.9828,-1.9931,-1.9502,-1.962,-1.9514,-1.932,-2.0037,-2.0524,-2.0827,-2.1497,-2.2334,-2.3169,-2.3389,0.0,0.0,0.0,0.0,0.0,0.0,0.0,-2.2722,-2.339,-2.3564,-2.3826,-2.4889,-2.5656,-2.6342,-2.7356,-2.846,-2.9453,-3.0018,-3.0292,-3.0583,-3.1165,-3.1285,-3.1337,-3.1525,-3.163,-3.163,-3.163,-3.163,-3.163,-3.163,-3.163,-3.163,-3.163,-3.163,-3.163,-3.163,-3.163,-3.163,-3.163,-3.1943,-3.2663,-3.3819,-3.425,-3.4992,-3.6182,-3.5605,-3.5231,-3.5007,-3.4423,-3.3988,-3.3761,-3.3761,-3.3761,-3.3761,-3.3761,-3.3761,-3.3761,-3.3761,-3.3761,-3.3761,-3.3761,-3.3761,-3.3837,-3.3988,-3.3506,-3.2762,-3.3363,-3.325,-3.2771,0.0,0.0,0.0,0.0,0.0,0.0,0.0,0.0,0.0,0.0,0.0,0.0,0.0,0.0,0.0,0.0,0.0,0.0,0.0,0.0,0.0,-1.9286,-1.9272,-1.9272,-1.9272,-1.9272,-1.9272,-1.9272,-1.9272,-1.9272,-1.9272,-1.9272,-1.9272,-1.9272,-1.9272,-1.9011,-1.8579,-1.9724,-1.9118,-1.7449,-1.8745,-1.9104,-1.895,-2.0248,-2.1542,-2.2774,-2.351,-2.3553,-2.3281,-2.2902,0.0,0.0,0.0,0.0,-2.2773,-2.3722,-2.3599,-2.3565,-2.552,-2.5831,-2.6047,-2.7837,-2.8802,-2.9487,-3.0172,-3.0378,-3.0617,-3.1319,-3.1525,-3.163,-3.163,-3.163,-3.163,-3.17,-3.17,-3.17,-3.17,-3.17,-3.163,-3.163,-3.163,-3.163,-3.163,-3.163,-3.163,-3.163,-3.2275,-3.3088,-3.3819,-3.4665,-3.5448,-3.6201,-3.5456,-3.5082,-3.5007,-3.4273,-3.3837,-3.3761,-3.3761,-3.3761,-3.3761,-3.3761,-3.3761,-3.3761,-3.3761,-3.3761,-3.3761,-3.3761,-3.3761,-3.3837,-3.4215,-3.3782,-3.2995,-3.3744,-3.35,-3.293,0.0,0.0,0.0,0.0,0.0,0.0,0.0,0.0,0.0,0.0,-2.0219,-1.9711,0.0,0.0,0.0,0.0,0.0,0.0,0.0,0.0,0.0,-1.9272,-1.9272,-1.9272,-1.9272,-1.9272,-1.9272,-1.9272,-1.9272,-1.9272,-1.9272,-1.9272,-1.9272,-1.9272,-1.9272,-1.913,-1.8869,-1.9026,-1.8617,-1.8011,-1.9214,-1.9568,-1.9455,-2.0651,-2.078,-2.0395,-2.1245,-2.0949,-2.0229,-2.044,-2.1097,0.0,0.0,0.0,-2.267,-2.3077,-2.3392,-2.379,-2.4527,-2.5965,-2.7453,-2.8438,-2.9008,-2.9436,-2.9864,-3.0206,-3.0549,-3.0994,-3.1337,-3.163,-3.163,-3.163,-3.17,-3.1965,-3.2035,-3.2035,-3.2035,-3.2035,-3.1894,-3.163,-3.163,-3.163,-3.163,-3.163,-3.163,-3.163,-3.2275,-3.3088,-3.3819,-3.4665,-3.5448,-3.6201,-3.5754,-3.5381,-3.5007,-3.4574,-3.4139,-3.3761,-3.3761,-3.3761,-3.3761,-3.3761,-3.3761,-3.3761,-3.3761,-3.3761,-3.3761,-3.3761,-3.3761,-3.3837,-3.4215,-3.4105,-3.3817,-3.4214,-3.409,-3.3729,0.0,0.0,0.0,0.0,0.0,0.0,0.0,0.0,0.0,0.0,0.0,-1.9218,0.0,0.0,0.0,0.0,0.0,0.0,0.0,0.0,0.0,-1.9272,-1.9272,-1.9272,-1.9272,-1.9272,-1.9272,-1.9272,-1.9272,-1.9272,-1.9272,-1.9272,-1.9272,-1.9272,-1.9272,-1.9182,-1.8921,-1.8921,-1.8579,-1.8076,-1.8571,-1.8854,-1.9072,-2.0786,-2.1048,-2.0651,-2.1879,-2.2062,-2.1595,-2.1151,-2.1709,-2.2518,-2.2013,0.0,0.0,0.0,-2.3029,-2.3531,-2.4613,-2.607,-2.7478,-2.8283,-2.8888,-2.9419,-2.9813,-3.0172,-3.0532,-3.0926,-3.1302,-3.163,-3.163,-3.163,-3.17,-3.2035,-3.2105,-3.2105,-3.2105,-3.2105,-3.1965,-3.163,-3.163,-3.163,-3.163,-3.163,-3.163,-3.163,-3.2275,-3.3088,-3.3819,-3.4665,-3.53,-3.5829,-3.5456,-3.5082,-3.4649,-3.429,-3.3988,-3.3761,-3.3761,-3.3761,-3.3761,-3.3761,-3.3761,-3.3761,-3.3761,-3.3761,-3.3761,-3.3761,-3.3912,-3.4215,-3.4574,-3.457,-3.4256,-3.4595,-3.4413,-3.3872,0.0,0.0,0.0,0.0,0.0,0.0,0.0,0.0,0.0,0.0,0.0,0.0,0.0,0.0,0.0,0.0,0.0,0.0,0.0,0.0,0.0,-1.9272,-1.9272,-1.9272,-1.9272,-1.9272,-1.9272,-1.9272,-1.9272,-1.9272,-1.9272,-1.9272,-1.9272,-1.9272,-1.9272,-1.9182,-1.9026,-1.9026,-1.8726,-1.8357,-1.8513,-1.8726,-1.9137,-2.0845,-2.1285,-2.1148,-2.2138,-2.2502,-2.2366,-2.1213,-2.1505,-2.2148,-2.1709,-2.1607,0.0,0.0,0.0,-2.2928,-2.4485,-2.5696,-2.6729,-2.7779,-2.8455,-2.9025,-2.9607,-3.0035,-3.0395,-3.0789,-3.1165,-3.1456,-3.1542,-3.163,-3.1771,-3.2193,-3.2263,-3.2263,-3.2263,-3.2263,-3.2123,-3.163,-3.163,-3.163,-3.163,-3.163,-3.163,-3.163,-3.2275,-3.3088,-3.3819,-3.4665,-3.53,-3.5736,-3.5231,-3.4857,-3.4591,-3.4064,-3.3761,-3.3761,-3.3761,-3.3761,-3.3761,-3.3761,-3.3837,-3.3912,-3.3837,-3.3761,-3.3837,-3.3912,-3.4139,-3.4441,-3.4932,-3.4979,-3.4841,-3.4921,-3.4629,-3.4141,0.0,0.0,0.0,0.0,0.0,0.0,0.0,0.0,0.0,0.0,0.0,0.0,-1.9301,-1.875,-1.8527,-1.8869,-1.8921,0.0,0.0,0.0,0.0,-1.9272,-1.9272,0.0,-1.9272,-1.9272,-1.9272,-1.9272,-1.9272,-1.9272,-1.9272,-1.9272,-1.9272,-1.9272,-1.9272,-1.9272,-1.9272,-1.9272,-1.9272,-1.9301,-1.9862,-2.011,-2.0197,-2.0965,-2.1215,-2.1099,-2.0578,-2.0342,-2.02,-1.8988,-1.893,-1.9332,-1.8812,-1.8968,-1.9383,0.0,0.0,0.0,-2.3651,-2.4418,-2.5162,-2.7096,-2.7599,-2.798,-2.9093,-2.9641,-3.0035,-3.0378,-3.0772,-3.1148,-3.1508,-3.163,-3.1841,-3.2561,-3.2631,-3.2631,-3.2631,-3.2631,-3.2421,-3.17,-3.163,-3.163,-3.163,-3.163,-3.163,-3.163,-3.2275,-3.3088,-3.3819,-3.4665,-3.5448,-3.6126,-3.5381,-3.5007,-3.5007,-3.4197,-3.3761,-3.3761,-3.3761,-3.3761,-3.3761,-3.3761,-3.3988,-3.4365,-3.3988,-3.3761,-3.3837,-3.4215,-3.4365,-3.4516,-3.5231,-3.5587,-3.5479,-3.5103,-3.4955,-3.4809,0.0,0.0,0.0,0.0,0.0,0.0,0.0,0.0,0.0,0.0,0.0,0.0,0.0,-1.8959,-1.8855,-1.913,-1.9182,0.0,0.0,0.0,0.0,-1.9272,-1.9272,-1.9272,-1.9272,-1.9272,-1.9272,-1.9272,-1.9272,-1.9272,-1.9272,-1.9272,-1.9272,-1.9272,-1.9272,-1.9272,-1.9272,-1.9272,-1.9272,-1.933,-1.9974,-2.0431,-2.0894,-2.141,-2.1711,-2.1803,-2.138,-2.124,-2.1102,-2.0375,-2.0422,-2.0672,-1.9746,-1.9606,-1.9864,-2.021,-2.1183,-2.2384,-2.3512,-2.4206,-2.4902,-2.6168,-2.7151,-2.7961,-2.8506,-2.9265,-3.0068,-3.07,-3.0875,-3.1201,-3.1842,-3.1771,-3.1771,-3.2263,-3.2561,-3.2701,-3.2701,-3.2701,-3.2491,-3.1982,-3.17,-3.163,-3.163,-3.163,-3.163,-3.163,-3.1838,-3.2539,-3.3819,-3.4196,-3.4791,-3.5811,-3.5306,-3.4782,-3.4197,-3.3912,-3.3761,-3.3761,-3.3761,-3.3761,-3.3837,-3.4064,-3.429,-3.4441,-3.4499,-3.4574,-3.4574,-3.4441,-3.4724,-3.5174,-3.5456,-3.5754,-3.5923,-3.5522,-3.5247,-3.4954,0.0,0.0,0.0,0.0,0.0,0.0,0.0,0.0,-1.9672,-1.9324,0.0,0.0,0.0,0.0,-1.913,-1.9272,-1.9272,-1.9272,-1.9272,-1.9272,-1.9272,-1.9272,-1.9272,-1.9272,-1.9272,-1.922,-1.9234,-1.9272,-1.9234,-1.922,-1.9272,-1.9272,-1.9272,-1.9272,-1.9272,-1.9272,-1.9272,-1.9272,-1.9272,-1.9345,-2.0208,-2.0691,-2.0938,-2.1653,-2.1967,-2.2068,-2.2156,-2.23,-2.2434,-2.2432,-2.251,-2.23,-2.094,-2.003,-1.9554,-1.9746,-2.0842,-2.2181,-2.2719,-2.3407,-2.4188,-2.5353,-2.6289,-2.7177,-2.8026,-2.8785,-2.957,-3.0457,-3.0822,-3.1133,-3.1652,-3.1755,-3.1841,-3.2035,-3.2403,-3.2701,-3.2701,-3.2701,-3.2561,-3.2175,-3.1771,-3.163,-3.163,-3.163,-3.163,-3.163,-3.163,-3.2189,-3.3407,-3.3783,-3.4428,-3.5587,-3.5231,-3.4707,-3.3988,-3.3988,-3.3988,-3.3988,-3.4139,-3.4197,-3.4197,-3.4499,-3.4649,-3.4799,-3.4932,-3.5007,-3.5007,-3.4875,-3.51,-3.5605,-3.5754,-3.5978,-3.6164,-3.576,-3.5375,-3.4972,0.0,0.0,0.0,0.0,0.0,0.0,0.0,0.0,-1.9286,-1.9272,0.0,0.0,0.0,0.0,0.0,-1.9286,-1.9338,-1.9272,-1.9272,-1.9272,-1.9272,-1.9272,0.0,0.0,-1.9272,-1.9026,-1.9026,-1.9272,-1.9026,-1.9026,-1.9272,-1.9272,-1.9272,-1.9272,-1.9272,-1.9272,-1.9272,-1.9272,-1.9272,-1.9374,-2.0691,-2.0837,-2.0358,-2.1715,-2.2023,-2.1891,-2.2767,-2.3285,-2.368,-2.4709,-2.4595,-2.3751,-2.1798,-1.9923,-1.829,-1.7779,-1.919,-2.0928,0.0,0.0,0.0,-2.4728,-2.4979,-2.5395,-2.7621,-2.8152,-2.8511,-2.9641,-3.0492,-3.0941,-3.0995,-3.1565,-3.2088,-3.2088,-3.2403,-3.2701,-3.2701,-3.2701,-3.2561,-3.2175,-3.1771,-3.163,-3.163,-3.163,-3.163,-3.163,-3.163,-3.1943,-3.268,-3.3515,-3.4428,-3.5587,-3.5231,-3.4782,-3.4441,-3.4441,-3.4441,-3.4441,-3.4782,-3.5007,-3.5007,-3.5007,-3.5231,-3.5605,-3.5231,-3.5007,-3.5082,-3.5456,-3.5605,-3.568,-3.6052,-3.6201,-3.6164,-3.5779,-3.5375,-3.4972,0.0,0.0,0.0,0.0,0.0,-1.9272,-1.9272,-1.9529,-1.9603,0.0,0.0,0.0,-1.9353,-1.9272,-1.9426,-1.9661,-1.947,-1.9272,-1.9272,-1.9272,-1.9272,-1.9272,-1.9272,-1.9272,-1.9272,-1.9234,-1.9234,-1.9272,-1.9234,-1.9234,-1.9272,-1.9272,-1.9272,-1.9272,-1.9272,-1.9272,-1.9272,-1.9272,-1.914,-1.9081,-2.0852,-2.1452,-2.1408,-2.2462,-2.3091,-2.3403,-2.3199,-2.2872,-2.2676,-2.3398,-2.2464,-2.0818,-1.9585,-1.885,-1.8394,-1.8237,-1.8916,-1.9849,-2.0775,0.0,0.0,0.0,0.0,0.0,-2.6302,-2.7415,-2.842,-2.928,-2.9854,-3.0357,-3.0923,-3.1185,-3.1305,-3.1305,-3.1878,-3.2263,-3.2263,-3.2263,-3.2193,-3.2105,-3.1771,-3.163,-3.163,-3.163,-3.163,-3.163,-3.163,-3.1943,-3.268,-3.3998,-3.5026,-3.5587,-3.5456,-3.5231,-3.4857,-3.4857,-3.4857,-3.4857,-3.4932,-3.5007,-3.5007,-3.5306,-3.5456,-3.5605,-3.5754,-3.5829,-3.5829,-3.568,-3.5754,-3.6052,-3.6126,-3.6201,-3.6201,-3.6091,-3.5614,-3.5009,0.0,0.0,0.0,0.0,0.0,-1.9529,-1.9529,-1.9755,-1.9886,0.0,0.0,0.0,-1.9696,-1.9681,-1.9755,-1.9945,-1.9784,-1.9681,-1.9681,-1.955,-1.9529,-1.9529,-1.9345,-1.9272,-1.9272,-1.9168,-1.9182,-1.9272,-1.9182,-1.9168,-1.9272,-1.9272,-1.9345,-1.9477,-1.9371,-1.9319,-1.9319,-1.9319,-1.9269,-1.933,-2.0867,-2.1496,-2.1613,-2.2696,-2.3267,-2.3505,-2.3818,-2.3748,-2.3749,-2.4813,-2.3572,-2.14,-2.0505,-1.9642,-1.8773,-1.7964,-1.8394,-1.9228,-1.9435,-1.9952,-2.083,-2.2547,0.0,0.0,-2.6038,-2.709,-2.8026,-2.9077,-2.9733,-3.0217,-3.0509,-3.0787,-3.103,-3.1202,-3.16,-3.1931,-3.2088,-3.2105,-3.2105,-3.2105,-3.1771,-3.163,-3.163,-3.163,-3.163,-3.163,-3.163,-3.1943,-3.268,-3.3944,-3.4827,-3.5353,-3.5533,-3.5456,-3.5231,-3.5231,-3.5231,-3.5231,-3.5456,-3.553,-3.553,-3.5754,-3.5829,-3.5829,-3.6126,-3.6201,-3.6126,-3.4971,-3.5196,-3.6201,-3.6201,-3.6201,-3.6201,-3.6201,-3.5705,-3.5027,0.0,0.0,-1.9389,-1.9389,-1.9623,-1.9813,-1.9813,-2.0091,-2.0227,0.0,-2.0183,-2.0197,-2.0227,-2.0197,-2.0197,-2.0227,-2.0197,-2.0183,-2.0183,-1.9974,-1.9813,-1.9813,-1.9535,-1.9389,-1.9389,-1.9179,-1.9179,-1.9389,-1.9179,-1.9179,-1.9389,-1.9389,-1.9535,-1.9813,-1.9492,-1.9331,-1.9331,-1.9302,-1.9521,-2.0047,-2.0911,-2.1306,-2.1511,-2.2784,-2.3106,-2.3054,-2.458,-2.5203,-2.5549,-2.6922,-2.5933,-2.3866,-2.2941,-2.1343,-1.947,-1.7462,-1.7967,-1.8907,-1.7954,-1.8401,-1.9529,-2.1386,-2.1812,0.0,-2.5923,-2.6704,-2.7207,-2.8601,-2.9543,-2.9969,-2.9639,-3.0215,-3.0763,-3.1129,-3.1286,-3.1548,-3.2036,-3.2105,-3.2105,-3.2035,-3.1771,-3.163,-3.163,-3.163,-3.163,-3.163,-3.163,-3.1943,-3.268,-3.339,-3.4214,-3.5028,-3.5371,-3.5569,-3.568,-3.568,-3.568,-3.568,-3.6052,-3.6201,-3.6201,-3.6201,-3.6201,-3.6201,-3.6201,-3.6201,-3.6052,-3.4035,-3.4261,-3.5903,-3.5662,-3.5754,-3.5903,-3.5903,-3.543,-3.4794,0.0,-1.9993,-1.9993,-1.9993,-2.0106,-2.015,-2.015,-2.0413,-2.053,-2.0212,-2.0183,-2.0285,-2.0548,-2.0343,-2.0285,-2.0603,-2.0384,-2.0183,-2.0183,-2.0179,-2.015,-2.015,-2.0091,-1.9993,-1.9993,-1.9993,-1.9993,-1.9993,-1.9993,-1.9993,-1.9993,-1.9993,-2.0091,-2.0095,-1.9823,-1.9714,-1.9645,-1.9158,-1.9679,-2.096,-2.1409,-2.1906,-2.2491,-2.3793,-2.4408,-2.465,-2.4974,-2.4773,-2.4317,-2.382,-2.3698,-2.345,-2.195,-2.1293,-2.0594,-1.8695,-1.8401,-1.8665,-1.8355,-1.8386,-1.8961,-2.0486,-2.0851,0.0,-2.3342,-2.424,-2.5021,-2.6287,-2.7202,-2.7744,-2.7683,-2.8179,-2.8689,-2.8776,-2.9578,-3.0641,-3.1931,-3.2105,-3.1965,-3.17,-3.163,-3.163,-3.163,-3.163,-3.163,-3.163,-3.163,-3.1943,-3.268,-3.2839,-3.3568,-3.5028,-3.5192,-3.5446,-3.6052,-3.6052,-3.6052,-3.6052,-3.6126,-3.6201,-3.6201,-3.6201,-3.6201,-3.6201,-3.6201,-3.6201,-3.6052,-3.4354,-3.3902,-3.407,-3.2429,-3.2826,-3.4296,-3.4296,-3.3943,-3.3509,-2.0154,-2.0183,-2.0183,-2.0183,-2.0314,-2.0431,-2.0431,-2.075,-2.0911,-2.075,-2.072,-2.0779,-2.094,-2.0823,-2.0794,-2.0955,-2.0823,-2.072,-2.072,-2.0518,-2.0431,-2.0431,-2.027,-2.0183,-2.0183,-2.0183,-2.0183,-2.0183,-2.0183,-2.0183,-2.0183,-2.0183,-2.0501,-2.0898,-2.0298,-2.0301,-2.0702,-1.9891,-2.0075,-2.0988,-2.1494,-2.2369,-2.3471,-2.4613,-2.5154,-2.5315,-2.5476,-2.533,-2.4949,-2.4291,-2.3866,-2.3457,-2.2652,-2.1764,-2.0816,-1.9747,-1.9048,-1.8519,-1.8108,-1.7785,-1.7918,-1.9374,-1.9724,0.0,0.0,-2.2951,-2.3466,-2.4484,-2.544,-2.6128,-2.6128,-2.6966,-2.7521,-2.7261,-2.8535,-2.9622,-2.9761,-3.0943,-3.1704,-3.1355,-3.1667,-3.1771,-3.163,-3.163,-3.163,-3.163,-3.163,-3.1786,-3.2118,-3.2522,-3.3105,-3.3854,-3.4683,-3.5283,-3.563,-3.6035,-3.6201,-3.6201,-3.6201,-3.6201,-3.6201,-3.6201,-3.6201,-3.6126,-3.5121,-3.4822,-3.4747,-3.1912,-3.0993,-3.13,-3.1054,-3.2141,-3.3676,-3.2842,-3.2835,-3.3003,-2.0373,-2.0373,-2.0373,-2.0373,-2.0647,-2.0823,-2.0823,-2.1042,-2.1203,-2.1203,-2.132,-2.1393,-2.1393,-2.1511,-2.1584,-2.1584,-2.1584,-2.1525,-2.1408,-2.1145,-2.0998,-2.0998,-2.0633,-2.0431,-2.0548,-2.0431,-2.0373,-2.0373,-2.0373,-2.0373,-2.0373,-2.0373,-2.0852,-2.1584,-2.0902,-2.0902,-2.1446,-2.0758,-2.073,-2.1217,-2.1732,-2.2663,-2.3846,-2.4815,-2.5251,-2.5353,-2.5801,-2.6018,-2.5959,-2.5564,-2.4744,-2.3823,-2.3501,-2.2562,-2.1378,-2.0596,-1.9856,-1.9109,-1.819,-1.7516,-1.7296,-1.8521,-1.87,-1.9158,0.0,0.0,0.0,-2.2776,-2.3734,-2.4401,-2.4401,-2.5277,-2.5901,-2.5493,-2.708,-2.7923,-2.6582,-2.9114,-3.0937,-3.0599,-3.1392,-3.1809,-3.1391,-3.1511,-3.1632,-3.163,-3.1508,-3.1491,-3.163,-3.2135,-3.2557,-3.2698,-3.4106,-3.4974,-3.5119,-3.5869,-3.6201,-3.6201,-3.5811,-3.5587,-3.5587,-3.5196,-3.5046,-3.5046,-3.3339,-3.2885,-3.307,-2.9371,-2.831,-2.9012,-2.9913,-3.13,-3.269,-3.13,-3.1506,-3.2043,-2.1101,-2.1101,-2.1101,-2.1101,-2.113,-2.1159,-2.1159,-2.1189,-2.1203,-2.1203,-2.1715,-2.2081,-2.2081,-2.2564,-2.2901,-2.2901,-2.2901,-2.2667,-2.2111,-2.2037,-2.2023,-2.2023,-2.1423,-2.1364,-2.195,-2.1393,-2.1101,-2.1101,-2.1101,-2.1101,-2.1101,-2.1101,-2.1159,-2.1291,-2.148,-2.126,-2.0859,-2.1022,-2.1775,-2.282,-2.2892,-2.2677,-2.2496,-2.3745,-2.4377,-2.4775,-2.5659,-2.6018,-2.593,-2.5315,-2.5075,-2.4642,-2.3193,-2.3364,-2.3644,-2.1081,-2.0994,-2.141,-1.9591,-1.8661,-1.828,-1.8422,-1.8073,-1.804,-1.9341,0.0,-1.9962,-2.1104,0.0,-2.158,-2.158,0.0,0.0,-2.182,-2.3642,-2.4537,-2.3099,-2.6365,-2.8932,-2.8858,-3.0505,-3.1356,-3.0609,-3.1165,-3.1635,-3.1613,-3.1268,-3.1217,-3.1542,-3.1681,-3.1995,-3.2698,-3.355,-3.4376,-3.5119,-3.5869,-3.6201,-3.6201,-3.4336,-3.349,-3.3415,-3.1574,-3.09,-3.1268,-3.1038,-3.1207,-3.1453,-2.9541,-2.8778,-2.8778,-2.7069,-2.7684,-2.9464,-2.9231,-2.9216,-2.9082,-2.1203,-2.1203,-2.1203,-2.1203,-2.1203,-2.1203,-2.1203,-2.1203,-2.1203,-2.1203,-2.1452,-2.1613,-2.1613,-2.1847,-2.2154,-2.2535,-2.2579,-2.2462,-2.2198,-2.2184,-2.2008,-2.1642,-2.135,-2.1335,-2.1613,-2.135,-2.1203,-2.1203,-2.1203,-2.1203,-2.1203,-2.1203,-2.1408,-2.1789,-2.1933,-2.2033,-2.2089,-2.2428,-2.2591,-2.261,-2.3407,-2.315,-2.2606,-2.4709,-2.5676,-2.5995,-2.6414,-2.6574,-2.6515,-2.6047,-2.5403,-2.4744,-2.4627,-2.4058,-2.3284,-2.2659,-2.2052,-2.141,-2.0419,-1.9542,-1.8881,-1.8901,-1.842,-1.8105,-1.8667,-1.8519,-1.8402,-1.8913,0.0,0.0,0.0,0.0,0.0,0.0,-2.1831,-2.2644,-2.1061,-2.3594,-2.5964,-2.7106,-2.8331,-2.9206,-2.9328,-3.0481,-3.1444,-3.1877,-3.1563,-3.1405,-3.1559,-3.163,-3.1716,-3.2083,-3.2804,-3.3568,-3.4394,-3.5155,-3.5759,-3.6201,-3.4111,-3.3095,-3.302,-3.0961,-3.0269,-3.0654,-2.9434,-2.9293,-2.9774,-2.7841,-2.7227,-2.7384,-2.6465,-2.7305,-2.8778,-2.7776,-2.809,-2.8521,-2.1203,-2.1203,-2.1203,-2.1203,-2.1203,-2.1203,-2.1203,-2.1203,-2.1203,-2.1203,-2.1437,-2.1598,-2.1598,-2.1993,-2.2447,-2.293,-2.3135,-2.312,-2.2857,-2.2667,-2.2403,-2.2008,-2.1496,-2.1364,-2.1715,-2.1393,-2.1203,-2.1203,-2.1203,-2.1203,-2.1203,-2.1203,-2.1467,-2.1935,-2.2184,-2.255,-2.3003,-2.3515,-2.3486,-2.3208,-2.4101,-2.4237,-2.4006,-2.5603,-2.656,-2.6983,-2.6983,-2.6983,-2.6925,-2.6515,-2.574,0.0,-2.5476,-2.4573,-2.3486,-2.3963,-2.3193,-2.2118,-2.1562,-2.0665,-1.9884,-1.9717,-1.9127,-1.8564,-1.8458,-1.8064,-1.7713,-1.7537,-1.8169,0.0,0.0,0.0,-1.9798,-1.8879,0.0,-2.0909,-1.9279,-2.1254,-2.343,-2.491,-2.6042,-2.6984,-2.7814,-2.9069,-3.0132,-3.1043,-3.0899,-3.1017,-3.1559,-3.163,-3.1418,-3.0977,-3.1704,-3.2206,-3.2419,-3.3769,-3.4451,-3.4504,-3.2961,-3.1956,-3.1328,-2.9264,-2.8657,-2.9046,-2.7605,-2.737,-2.809,-2.661,-2.6149,-2.6386,-2.6386,-2.7162,-2.809,-2.6847,-2.7162,-2.7848,-2.1203,-2.1203,-2.1203,-2.1203,-2.1203,-2.1203,-2.1203,-2.1203,-2.1203,-2.1203,-2.2008,-2.2579,-2.2579,-2.3984,-2.5017,-2.5031,-2.5535,-2.5491,-2.4554,-2.3896,-2.3676,-2.3984,-2.2198,-2.1789,-2.3018,-2.1847,-2.1203,-2.1203,-2.1203,-2.1203,-2.1203,-2.1203,-2.1218,-2.1276,-2.2198,-2.2623,-2.2696,-2.3662,-2.4598,-2.5432,-2.5407,-2.6047,-2.6735,-2.5897,-2.6142,-2.6983,-2.6983,-2.6983,-2.6896,-2.6252,-2.6003,0.0,0.0,0.0,-2.5203,-2.4349,-2.451,-2.4701,-2.335,0.0,-2.1488,-2.0872,-2.0027,-1.9113,-1.8532,-1.8415,-1.8181,-1.7596,-1.7537,-1.7537,-1.7537,-1.7596,-1.7511,-1.7198,-1.841,0.0,0.0,-1.9789,-2.1774,-2.2203,-2.3785,-2.5203,-2.5978,-2.6491,-2.7221,-2.8393,-2.8675,-2.9591,-3.1472,-3.163,-3.0906,-2.9322,-3.0074,-2.9901,-2.8687,-3.1407,-3.1916,-3.0192,-3.0115,-2.9046,-2.7028,-2.4933,-2.448,-2.5289,-2.5209,-2.5673,-2.6465,-2.6386,-2.6386,-2.6386,-2.6386,-2.6465,-2.6465,-2.6386,-2.6465,-2.6346,-2.1203,-2.1379,-2.1393,-2.0969,-2.0896,-2.0896,-2.0896,-2.1262,-2.1672,-2.2096,-2.2608,-2.3106,-2.3545,-2.4086,-2.465,-2.509,-2.5257,-2.5242,-2.4987,-2.4276,-2.3969,-2.4086,-2.2652,-2.2154,-2.2769,-2.1964,-2.1423,-2.1203,-2.1203,-2.1203,-2.1203,-2.1203,-2.132,-2.1569,-2.2301,-2.2988,-2.3647,-2.4627,-2.511,-2.5257,-2.5681,-2.6179,-2.6661,-2.6517,-2.6721,-2.6983,-2.6983,-2.6983,0.0,-2.6735,-2.6369,-2.6032,-2.6135,-2.5586,-2.4886,-2.5261,-2.4931,-2.4376,0.0,0.0,-2.2394,-2.2329,0.0,0.0,0.0,0.0,-1.8042,-1.7804,-1.7599,-1.7479,-1.7479,-1.7479,-1.7455,-1.737,-1.7769,-1.791,0.0,-1.8409,-1.9274,-1.9345,-2.1979,-2.3719,-2.3676,-2.6236,-2.8307,-2.9458,-2.9428,-2.9676,-3.0376,-3.0179,-2.9306,-2.7707,-2.8913,-2.9132,-2.8207,-2.9359,-2.9833,-2.9702,-2.854,-2.7734,-2.7278,-2.5184,-2.4731,-2.5594,-2.5594,-2.5911,-2.6386,-2.6386,-2.6386,-2.6386,-2.6386,-2.6386,-2.6386,-2.6386,-2.6386,-2.6241,-2.0782,-2.101,-2.1099,-2.1045,-2.1159,-2.1247,-2.1247,-2.1598,-2.2096,-2.271,-2.3076,-2.3574,-2.4349,-2.473,-2.5169,-2.5696,-2.5959,-2.5886,-2.5432,-2.5008,-2.4671,-2.4437,-2.3427,-2.3062,-2.3471,-2.2637,-2.2096,-2.1891,-2.1657,-2.1554,-2.1554,-2.1554,-2.1672,-2.1891,-2.2403,-2.3223,-2.4305,-2.5052,-2.5579,-2.6029,-2.6486,-2.6837,-2.7042,-2.7247,-2.7188,-2.7013,0.0,-2.7335,-2.7335,-2.7335,-2.6969,-2.6603,-2.7027,-2.6357,-2.5534,-2.6166,-2.5775,-2.5099,-2.5086,-2.4459,0.0,-2.33,-2.2103,0.0,-2.0263,0.0,-1.8606,0.0,0.0,0.0,0.0,-1.7877,-1.766,-1.7756,-1.7612,-1.7479,0.0,-1.7667,-1.7843,-1.7843,-2.0115,-2.1598,-2.1354,-2.3878,-2.639,-2.8614,-2.8129,-2.8326,-2.9718,-2.8876,-2.7707,-2.6123,-2.707,-2.7144,-2.6206,-2.7176,-2.7553,-2.7409,-2.7033,-2.6648,-2.6188,-2.5037,-2.4891,-2.5594,-2.5753,-2.607,-2.6386,-2.6386,-2.6386,-2.6386,-2.6386,-2.6386,-2.6386,-2.6386,-2.6386,-2.6241,-2.0106,-2.0106,-2.0462,-2.1523,-2.1919,-2.2154,-2.2154,-2.2213,-2.2476,-2.312,-2.3515,-2.4115,-2.5163,-2.6018,-2.6705,-2.7013,-2.7598,-2.7348,-2.6193,-2.6076,-2.5798,-2.5266,-2.4525,-2.4437,-2.5134,-2.3808,-2.312,-2.3106,-2.2491,-2.2184,-2.2184,-2.2184,-2.2198,-2.2213,-2.2506,-2.3354,-2.4679,-2.5017,-2.6018,-2.7525,-2.7847,-2.7874,-2.7859,-2.7903,-2.7598,-2.7115,-2.7655,-2.7874,-2.7874,-2.7874,-2.7744,-2.7495,-2.7495,-2.7291,-2.7027,-2.7013,-2.7013,-2.6881,-2.6237,-2.5772,-2.5172,-2.3849,-2.3137,0.0,0.0,0.0,-1.9838,0.0,0.0,0.0,0.0,-1.8676,-1.7998,-1.8227,-1.7829,-1.7479,-1.7479,-1.7479,-1.7479,-1.7479,-1.8326,-1.8943,-1.91,-1.9802,-2.1905,-2.5944,-2.4773,-2.5536,-2.9385,-2.7749,-2.6081,-2.4522,-2.4536,-2.4,-2.2709,-2.4822,-2.5047,-2.3442,-2.5623,-2.57,-2.384,-2.4332,-2.4731,-2.5209,-2.5673,-2.607,-2.6386,-2.6386,-2.6386,-2.6386,-2.6386,-2.6386,-2.6386,-2.6386,-2.6386,-2.6267,-2.0106,-2.0279,-2.0663,-2.1183,-2.1143,-2.1272,-2.1759,-2.2623,-2.3559,-2.4437,-2.5257,-2.612,-2.71,-2.7422,-2.7613,-2.7626,-2.7786,-2.7728,-2.7407,-2.7013,-2.6778,-2.6852,-2.5769,-2.5242,-2.5403,-2.413,-2.3354,-2.3106,-2.2491,-2.2184,-2.2184,-2.2184,-2.2301,-2.252,-2.2593,-2.3486,-2.5017,-2.5271,-2.6339,-2.7861,-2.8107,-2.8022,-2.7671,0.0,-2.8256,-2.773,-2.7815,-2.7874,-2.7874,-2.7874,-2.7815,-2.7832,-2.7832,-2.7773,-2.7656,-2.7422,-2.7349,-2.7261,-2.6852,-2.6243,-2.5511,-2.4666,-2.355,-2.2432,0.0,0.0,0.0,0.0,0.0,0.0,0.0,0.0,-1.8372,-1.8034,-1.7696,-1.7479,-1.7479,-1.7479,-1.7479,-1.7479,-1.8081,-1.8667,-1.9221,-2.0962,-2.2911,-2.4887,-2.4369,-2.4623,-2.6198,-2.5238,-2.4069,-2.2905,-2.4018,-2.3909,-2.243,-2.3215,-2.3411,-2.3152,-2.3955,-2.4439,-2.4811,-2.4891,-2.5368,-2.607,-2.6228,-2.6307,-2.6386,-2.6386,-2.6386,-2.6386,-2.6386,-2.6386,-2.6386,-2.6386,-2.6386,-2.6267,-1.9685,-1.9813,-2.013,-2.0746,-2.1222,-2.1686,-2.2386,-2.3136,-2.4042,-2.5315,-2.5944,-2.6661,-2.7642,-2.7993,-2.8212,-2.8344,-2.8359,-2.8183,-2.7773,-2.7671,-2.751,-2.7276,-2.6822,-2.653,-2.6383,-2.5388,-2.4569,-2.3954,-2.3325,-2.2748,-2.2166,-2.2166,-2.2252,-2.2395,-2.2395,-2.3333,-2.4973,-2.5944,-2.691,-2.7788,-2.8403,-2.8417,0.0,-2.8681,-2.8666,-2.8359,-2.8359,-2.8359,-2.8359,-2.8359,-2.8271,-2.8093,-2.8093,-2.799,-2.7844,-2.7744,-2.7686,-2.7613,-2.7291,-2.6894,-2.6251,-2.5032,-2.4115,-2.3163,-2.1903,-2.1187,-2.0798,0.0,-2.0484,-2.0243,0.0,0.0,-1.877,-1.7998,-1.7744,-1.7612,-1.7503,-1.7479,-1.7479,-1.7479,-1.7756,-1.8287,-1.9063,-2.0503,-2.2124,-2.4032,-2.3066,-2.3073,-2.4729,-2.3535,-2.2586,-2.2152,-2.3078,-2.3215,-2.2334,-2.26,-2.2854,-2.3121,-2.3544,-2.4061,-2.4811,-2.5209,-2.5673,-2.6149,-2.6307,-2.6386,-2.6386,-2.6386,-2.6386,-2.6386,-2.6386,-2.6386,-2.6386,-2.6386,-2.6386,-2.6373,-1.912,-1.9157,-1.9447,-2.0278,-2.1633,-2.2795,-2.3593,-2.3917,-2.4554,-2.6018,-2.6281,-2.6691,-2.7627,-2.8227,-2.8666,-2.893,-2.8959,-2.8593,-2.7715,-2.8183,-2.8095,-2.7217,-2.7715,-2.7861,-2.7539,-2.6896,-2.6105,-2.5047,-2.4349,-2.3357,-2.2048,-2.2006,-2.1978,-2.1992,-2.202,-2.302,-2.48,-2.6576,-2.748,-2.773,-2.8487,-2.873,-2.873,-2.8573,-2.8573,-2.8573,-2.8573,-2.873,-2.8886,-2.8886,-2.871,-2.8491,-2.8491,-2.83,-2.799,-2.7947,-2.7856,-2.7708,-2.7478,-2.7316,-2.6783,-2.4965,-2.4515,-2.4014,-2.2055,-2.1583,-2.1583,-2.1631,-2.1197,-2.1076,0.0,0.0,-1.9306,-1.8239,-1.8118,-1.8046,-1.7781,-1.7744,-1.772,-1.7648,-1.7672,0.0,-1.8813,-1.9187,-2.0516,-2.3134,-2.1356,-2.136,0.0,0.0,-2.1547,-2.1909,-2.2138,-2.2334,-2.2334,-2.2564,-2.283,-2.3198,-2.3741,-2.4261,-2.4731,-2.5435,-2.5832,-2.5911,-2.6228,-2.6386,-2.6386,-2.6386,-2.6386,-2.6386,-2.6386,-2.6386,-2.6386,-2.6386,-2.6386,-2.6386,-1.9427,-1.9591,-1.9826,-2.0008,-2.1597,-2.3171,-2.4123,-2.5513,-2.6588,-2.7144,-2.7686,-2.8271,-2.8973,-2.9149,-2.9237,-2.9281,-2.9295,-2.9105,-2.8666,-2.8754,-2.8622,-2.8198,-2.8286,-2.8122,-2.7876,-2.7232,-2.6272,-2.4932,-2.4125,-2.2967,-2.1585,-2.1407,-2.1299,-2.1312,-2.1491,-2.2967,-2.5285,-2.622,-2.7391,-2.8574,-2.8047,-2.7869,-2.779,-2.7097,-2.686,-2.686,-2.686,-2.7712,-2.8886,-2.8886,-2.8856,-2.8812,-2.8812,-2.8769,-2.8681,-2.8432,-2.7808,-2.7262,-2.6951,-2.6336,-2.5509,-2.4223,-2.3932,-2.3618,-2.241,-2.2126,-2.2126,-2.2188,-2.2116,-2.1897,-2.1595,0.0,0.0,0.0,0.0,-1.9434,-1.9221,-1.912,-1.8963,-1.8529,-1.8662,-1.8825,-1.8728,-1.8828,-1.9562,-2.1371,-2.0334,-2.0456,0.0,0.0,-2.1304,0.0,-2.2309,-2.2334,0.0,0.0,-2.28,-2.3584,-2.3711,-2.4387,-2.5594,-2.5753,-2.599,-2.6307,-2.6386,-2.6386,-2.6386,-2.6386,-2.6386,-2.6386,-2.6386,-2.6386,-2.6386,-2.6386,-2.6386,-2.6386,-1.9664,-1.9796,-2.0148,-2.0972,-2.2728,-2.4363,-2.5717,-2.7226,-2.811,-2.7759,-2.8139,-2.8491,-2.8622,-2.893,-2.912,-2.912,-2.912,-2.9061,-2.89,-2.8886,-2.8827,-2.8681,-2.8666,-2.852,-2.8136,-2.7891,-2.6806,-2.4876,-2.4511,-2.3201,-2.1176,-2.0903,-2.076,-2.085,-2.1766,-2.2916,-2.4307,-2.5445,-2.6371,-2.7108,-2.7038,-2.7018,-2.6939,-2.6544,-2.6386,-2.6386,-2.6386,-2.6939,-2.7555,-2.7555,-2.7555,-2.7555,-2.7555,-2.7555,-2.7541,-2.7387,-2.7112,-2.6731,-2.6353,-2.5963,-2.5421,-2.4291,-2.3998,-2.377,-2.2751,-2.2539,-2.2503,-2.237,-2.2334,-2.2176,-2.1583,-2.104,0.0,0.0,0.0,0.0,0.0,-1.9688,-1.9591,-1.9338,-1.9169,-1.9167,-1.9412,-1.9001,-1.9299,-2.0644,-1.9938,-2.0187,0.0,0.0,-2.1171,0.0,0.0,0.0,-2.2334,0.0,-2.2751,-2.3739,-2.3893,-2.4648,-2.5832,-2.599,-2.6228,-2.6386,-2.6386,-2.6386,-2.6386,-2.6386,-2.6386,-2.6386,-2.6386,-2.6386,-2.6386,-2.6386,-2.6386,-2.6386,-2.038,-2.0367,-2.0796,-2.2248,-2.3792,-2.5254,-2.6452,-2.7897,-2.8712,-2.8268,-2.8417,-2.8461,-2.8271,-2.8695,-2.891,-2.8753,-2.8753,-2.8646,-2.8353,-2.8339,-2.8339,-2.8339,-2.8339,-2.8238,-2.7994,-2.7994,-2.6928,-2.4764,0.0,-2.326,-2.0831,-2.0504,-2.0441,-2.0709,-2.1897,-2.2841,0.0,0.0,-2.5341,-2.5654,-2.5964,-2.6149,-2.607,-2.5911,-2.5832,-2.5832,-2.5832,-2.5832,-2.5832,-2.5832,-2.607,-2.6386,-2.6386,-2.6386,-2.6386,-2.6386,-2.6307,-2.6096,-2.5779,-2.557,-2.5179,-2.4275,-2.4045,-2.3828,-2.2943,-2.2818,-2.2733,-2.2479,-2.237,-2.2114,-2.1643,-2.1426,0.0,0.0,0.0,0.0,0.0,-2.0315,-2.0267,-2.0146,-1.9712,-1.9658,-2.0309,-1.9537,-1.9473,-2.0575,-1.9998,-2.0162,-2.148,0.0,0.0,0.0,0.0,-2.2174,-2.2174,0.0,-2.2902,-2.3816,-2.4278,-2.4959,-2.5911,-2.6228,-2.6386,-2.6386,-2.6386,-2.6386,-2.6386,-2.6386,-2.6386,-2.6386,-2.6386,-2.6386,-2.6386,-2.6386,-2.6386,-2.6386,-2.1837,-2.1842,-2.2068,-2.3174,-2.4163,-2.4675,-2.4572,-2.6043,-2.7682,-2.9093,-2.9017,-2.8944,-2.9208,-2.9295,-2.9008,-2.8213,-2.8133,-2.7703,-2.6716,-2.6623,-2.6623,-2.6623,-2.6623,-2.661,-2.6583,-2.6583,-2.5856,0.0,0.0,-2.2393,0.0,-2.0221,-2.0367,-2.1059,0.0,0.0,0.0,-2.4367,-2.5114,-2.6227,-2.5476,-2.5184,-2.5104,-2.432,-2.4,-2.4,-2.4,-2.4,-2.4,-2.4,-2.5117,-2.6386,-2.6386,-2.6386,-2.6386,-2.6386,-2.5819,-2.5171,-2.5146,-2.4589,-2.3903,-2.3557,-2.3496,-2.3424,-2.3145,-2.3084,-2.3012,-2.2745,-2.2503,-2.2174,-2.1885,-2.2005,-2.2054,0.0,0.0,0.0,0.0,0.0,-2.1498,-2.1074,-2.0759,-2.0698,-2.1116,-2.0547,-2.0443,-2.1171,-2.0385,-2.0273,0.0,0.0,0.0,-2.1848,-2.1897,-2.1909,-2.1909,-2.2509,-2.3279,-2.4278,-2.4662,-2.5347,-2.6307,-2.6386,-2.6386,-2.6386,-2.6386,-2.6386,-2.6386,-2.6386,-2.6386,-2.6386,-2.6386,-2.6386,-2.6386,-2.6386,-2.6386,-2.6386,-2.2917,-2.267,-2.2717,-2.3808,-2.4571,-2.5202,-2.574,-2.6587,-2.7351,-2.7817,-2.7759,-2.7661,-2.7592,-2.7592,-2.7434,-2.7116,-2.7116,-2.6903,-2.64,-2.6386,-2.6386,-2.6386,-2.6386,-2.6386,-2.6386,-2.6386,-2.5701,0.0,0.0,0.0,0.0,0.0,0.0,0.0,0.0,-2.2629,-2.3609,-2.3852,-2.436,-2.4798,-2.448,-2.432,-2.432,-2.392,-2.376,-2.376,-2.376,-2.376,-2.376,-2.376,-2.424,-2.4878,-2.4878,-2.4878,-2.4878,-2.4878,-2.4559,-2.432,-2.432,-2.408,-2.3736,-2.364,-2.3604,-2.3623,-2.3345,-2.3285,-2.3212,-2.3024,-2.2757,-2.2491,-2.215,-2.214,-2.2042,-2.209,0.0,0.0,0.0,0.0,-2.2165,-2.2166,-2.1832,-2.1807,-2.2396,-2.149,-2.1071,-2.1594,-2.0834,-2.0564,0.0,0.0,0.0,-2.1631,0.0,-2.225,-2.2473,-2.2967,-2.3669,-2.4662,-2.4997,-2.5596,-2.6386,-2.6386,-2.6307,-2.607,-2.607,-2.607,-2.607,-2.6307,-2.6386,-2.6386,-2.6386,-2.6386,-2.6386,-2.6386,-2.6386,-2.6386,-2.3755,-2.3302,-2.3279,-2.4313,-2.4831,-2.5236,-2.5996,-2.6336,-2.6453,-2.6245,-2.6232,-2.625,-2.6347,-2.6386,-2.6307,-2.607,-2.599,-2.5911,-2.5673,-2.5673,-2.5673,-2.5673,-2.5673,-2.5673,-2.5673,-2.5673,-2.5163,-2.4131,-2.3643,0.0,0.0,0.0,0.0,0.0,-2.2685,-2.3036,-2.3309,-2.3842,-2.4012,-2.4012,-2.4012,-2.4012,-2.4012,-2.384,-2.376,-2.376,-2.376,-2.376,-2.376,-2.376,-2.376,-2.376,-2.376,-2.376,-2.376,-2.376,-2.376,-2.376,-2.376,-2.376,-2.376,-2.376,-2.376,-2.3712,-2.3531,-2.3483,-2.3411,-2.3225,-2.2959,-2.277,-2.2503,-2.2223,-2.2138,-2.2247,0.0,0.0,0.0,-2.2408,0.0,-2.2744,-2.2531,-2.2582,-2.3099,-2.2241,-2.1682,-2.1874,-2.1418,-2.1081,0.0,0.0,0.0,0.0,0.0,0.0,-2.2818,-2.338,-2.4074,-2.4905,-2.5347,-2.5792,-2.6228,-2.607,-2.5832,-2.5594,-2.5594,-2.5594,-2.5594,-2.607,-2.6228,-2.6228,-2.6307,-2.6386,-2.6386,-2.6386,-2.6386,-2.6386,-2.4163,-2.3807,-2.3763,-2.4882,-2.4832,-2.4528,-2.4275,-2.4456,-2.4625,-2.4625,-2.4625,-2.5074,-2.6294,-2.6386,-2.607,-2.5184,-2.5104,-2.4786,-2.392,-2.384,-2.384,-2.384,-2.384,-2.384,-2.384,-2.384,-2.384,-2.3828,0.0,0.0,-2.2697,0.0,-2.2358,-2.3109,-2.3109,-2.3333,-2.384,-2.4332,-2.4492,-2.4492,-2.4492,-2.4492,-2.4412,-2.4012,-2.376,-2.376,-2.376,-2.376,-2.376,-2.376,-2.376,-2.376,-2.376,-2.376,-2.376,-2.376,-2.376,-2.376,-2.376,-2.376,-2.376,-2.376,-2.376,-2.376,-2.376,-2.376,-2.3688,-2.3423,-2.3225,-2.3036,-2.277,-2.2721,-2.2636,-2.2307,0.0,0.0,0.0,-2.2558,0.0,-2.2411,-2.2739,-2.2958,-2.3031,-2.2654,-2.2323,-2.211,-2.2227,0.0,0.0,0.0,0.0,-2.1873,-2.2313,0.0,-2.2532,-2.3815,-2.4618,-2.4905,-2.5657,-2.5949,-2.5832,-2.5368,-2.513,-2.513,-2.513,-2.513,-2.513,-2.5594,-2.5832,-2.5832,-2.6228,-2.6386,-2.6386,-2.6386,-2.6386,-2.6386,-2.5464,-2.4919,-2.4586,-2.4711,-2.4839,-2.4818,-2.454,-2.4733,-2.4842,-2.4649,-2.4625,-2.4729,-2.5131,-2.5026,-2.4678,-2.4252,-2.424,-2.408,-2.384,-2.376,-2.376,-2.376,-2.376,-2.376,-2.376,-2.376,-2.376,-2.376,0.0,0.0,0.0,-2.2818,-2.3239,-2.4074,-2.4074,-2.4318,-2.4652,-2.4572,-2.4492,-2.4492,-2.4172,-2.4012,-2.4012,-2.384,-2.376,-2.376,-2.376,-2.376,-2.376,-2.376,-2.376,-2.376,-2.376,-2.376,-2.376,-2.376,-2.376,-2.376,-2.376,-2.376,-2.376,-2.376,-2.376,-2.376,-2.376,-2.376,-2.3688,-2.3435,-2.3381,-2.3237,-2.3048,-2.3,-2.2903,-2.2648,-2.2751,0.0,-2.2731,0.0,-2.3264,-2.3472,-2.3385,-2.3385,-2.368,-2.3089,-2.262,-2.2408,-2.2191,0.0,0.0,0.0,0.0,0.0,-2.2534,0.0,-2.3828,-2.4503,-2.5058,-2.5657,-2.5792,-2.5661,-2.5289,-2.4891,-2.4652,-2.4652,-2.4652,-2.4652,-2.4731,-2.513,-2.5289,-2.5368,-2.5832,-2.599,-2.599,-2.6307,-2.6386,-2.6386,-2.5615,-2.5102,-2.483,-2.4661,-2.4854,-2.4903,-2.4806,-2.5023,-2.5132,-2.4951,-2.4927,-2.489,-2.4794,-2.4637,0.0,-2.3941,-2.3904,-2.3949,-2.3772,-2.376,-2.376,-2.376,-2.376,-2.376,-2.376,-2.376,0.0,-2.376,-2.3502,-2.3345,-2.3345,-2.3502,-2.3921,-2.4492,-2.4492,-2.4652,-2.4891,-2.4572,-2.4492,-2.4492,-2.4172,-2.408,-2.4012,-2.384,-2.376,-2.376,-2.376,-2.376,-2.376,-2.376,-2.376,-2.376,-2.376,-2.376,-2.376,-2.376,-2.376,-2.376,-2.376,-2.376,-2.376,-2.376,-2.392,-2.4092,-2.4252,-2.4172,-2.4044,-2.4031,-2.4074,-2.3909,-2.3548,-2.3577,-2.3569,-2.3145,-2.3401,-2.3466,-2.3117,0.0,-2.3527,0.0,0.0,0.0,0.0,-2.299,-2.2608,0.0,0.0,0.0,0.0,0.0,0.0,-2.242,-2.314,-2.3843,-2.4475,-2.4866,-2.5295,-2.5725,-2.5464,-2.5117,-2.4891,-2.4412,-2.4252,-2.4252,-2.4252,-2.4252,-2.4252,-2.4731,-2.4891,-2.4891,-2.5356,-2.5514,-2.5594,-2.599,-2.6149,-2.6228,-2.4851,-2.4685,-2.4685,-2.4685,-2.4902,-2.4987,-2.4987,-2.5277,-2.5433,-2.5433,-2.5433,-2.5337,-2.5011,-2.4987,-2.4866,-2.4335,0.0,0.0,-2.3808,-2.3796,-2.3784,-2.376,-2.376,-2.376,-2.376,-2.376,-2.376,-2.376,-2.384,-2.384,-2.384,-2.4332,-2.4492,-2.4572,-2.4492,-2.4492,-2.4572,-2.4492,-2.4492,-2.4492,-2.4492,-2.4412,-2.4412,-2.4,-2.376,-2.376,-2.376,-2.376,-2.376,-2.376,-2.376,-2.376,-2.376,-2.376,-2.376,-2.376,-2.376,-2.376,-2.376,-2.376,-2.376,-2.376,-2.4172,-2.4572,-2.4891,-2.4731,-2.4572,-2.4891,-2.497,-2.4815,-2.4224,-2.4409,-2.44,-2.3813,-2.3995,-2.4061,-2.3403,-2.3669,-2.3542,0.0,0.0,0.0,-2.2496,-2.2411,-2.235,0.0,0.0,0.0,0.0,0.0,-2.2768,-2.303,-2.3956,-2.4488,-2.4527,-2.5048,-2.5244,-2.527,-2.4765,-2.4492,-2.4412,-2.4,-2.376,-2.376,-2.376,-2.376,-2.384,-2.4252,-2.4412,-2.4492,-2.4891,-2.505,-2.513,-2.5594,-2.5753,-2.5832,-2.5373,-2.524,-2.524,-2.524,-2.5301,-2.5349,-2.5349,-2.5397,-2.5433,-2.5433,-2.5433,-2.5409,-2.5349,-2.5349,-2.5132,-2.4795,-2.4661,-2.442,-2.4154,-2.4142,-2.3977,-2.3772,-2.376,-2.376,-2.376,-2.376,-2.376,-2.376,-2.4492,-2.4652,-2.4332,-2.4412,-2.4652,-2.497,-2.4652,-2.4652,-2.497,-2.4652,-2.4492,-2.4492,-2.4092,-2.4,-2.3932,-2.384,-2.376,-2.376,-2.376,-2.376,-2.376,-2.376,-2.376,-2.376,-2.376,-2.376,-2.376,-2.376,-2.376,-2.376,-2.376,-2.376,-2.376,-2.376,-2.384,-2.4,-2.408,-2.4,-2.4,-2.408,-2.4092,-2.4068,-2.3915,-2.3983,-2.3897,-2.3551,-2.3827,-2.3962,-2.3599,-2.3869,-2.4049,0.0,-2.3417,-2.3129,-2.2979,-2.2582,-2.2262,0.0,0.0,-2.2781,-2.2856,-2.3591,-2.4081,-2.4145,-2.436,-2.4683,-2.5114,-2.5257,-2.5113,-2.4711,-2.4534,-2.4332,-2.392,-2.3852,-2.376,-2.376,-2.376,-2.376,-2.384,-2.3932,-2.4,-2.4012,-2.4492,-2.4652,-2.4652,-2.513,-2.5289,-2.5368,-2.5495,-2.5433,-2.5433,-2.5433,-2.5433,-2.5433,-2.5433,-2.5433,-2.5433,-2.5433,-2.5433,-2.5433,-2.5433,-2.5433,-2.5373,-2.524,-2.4975,-2.4709,-2.4432,-2.442,-2.4299,-2.3953,-2.3941,-2.3973,-2.3772,-2.376,-2.376,-2.376,-2.424,-2.4412,-2.4172,-2.4412,-2.4652,-2.4811,-2.4572,-2.4652,-2.4811,-2.4332,-2.4172,-2.4172,-2.392,-2.3832,-2.3941,-2.3941,-2.4094,-2.4202,-2.4202,-2.4202,-2.4202,-2.4202,-2.4037,-2.3941,-2.3941,-2.3856,-2.376,-2.376,-2.376,-2.376,-2.376,-2.376,-2.3852,-2.4092,-2.392,-2.392,-2.4332,-2.4252,-2.4172,-2.4332,-2.4412,-2.4332,-2.4172,-2.4252,-2.4283,-2.3977,-2.4157,-2.4177,-2.386,-2.3891,-2.388,-2.3739,-2.3372,-2.3132,-2.3132,-2.2858,-2.2636,-2.2491,-2.2763,0.0,-2.3215,-2.3744,-2.4201,-2.4429,-2.4711,-2.4932,-2.4997,-2.4982,-2.4648,-2.4172,-2.4172,-2.4092,-2.376,-2.376,-2.376,-2.376,-2.376,-2.376,-2.376,-2.376,-2.376,-2.384,-2.4092,-2.4172,-2.4252,-2.4652,-2.4811,-2.4891,-2.5433,-2.5433,-2.5433,-2.5433,-2.5433,-2.5433,-2.5433,-2.5433,-2.5433,-2.5433,-2.5433,-2.5433,-2.5433,-2.5433,-2.5433,-2.5433,-2.5156,-2.4987,-2.4709,-2.4685,-2.4564,-2.4311,-2.4299,-2.419,-2.3973,-2.3925,-2.3888,-2.376,-2.392,-2.4,-2.392,-2.4332,-2.4492,-2.4492,-2.4412,-2.4437,-2.4394,-2.4061,-2.3844,-2.388,-2.388,-2.4094,-2.4299,-2.4299,-2.4432,-2.4625,-2.4625,-2.4625,-2.4625,-2.4625,-2.4456,-2.4238,-2.4238,-2.4057,-2.376,-2.376,-2.376,-2.376,-2.376,-2.376,-2.392,-2.4252,-2.4092,-2.4,-2.4731,-2.4652,-2.4492,-2.4811,-2.4891,-2.4811,-2.4492,-2.4652,-2.4798,-2.4442,-2.4494,-2.4422,-2.407,0.0,-2.3553,-2.3242,-2.3206,-2.3181,-2.3181,-2.3145,-2.3121,-2.3121,-2.3157,-2.3414,-2.3634,-2.3761,-2.4005,-2.4328,-2.4907,-2.5023,-2.467,-2.4527,-2.4172,-2.376,-2.376,-2.376,-2.376,-2.376,-2.376,-2.376,-2.376,-2.376,-2.376,-2.376,-2.376,-2.376,-2.376,-2.376,-2.3852,-2.4252,-2.4412,-2.4412,-2.5433,-2.5433,-2.5433,-2.5433,-2.5433,-2.5433,-2.5433,-2.5433,-2.5433,-2.5433,-2.5433,-2.5433,-2.5433,-2.5433,-2.5433,-2.5433,-2.5397,-2.518,-2.4999,-2.4987,-2.4854,-2.4576,-2.4564,-2.4552,-2.4504,-2.4613,-2.4392,-2.376,-2.4572,-2.4731,-2.4412,-2.4492,-2.4492,-2.4492,-2.4092,-2.4053,-2.4259,-2.4178,-2.4299,-2.4504,-2.4504,-2.4528,-2.4564,-2.4564,-2.4589,-2.4625,-2.4625,-2.4625,-2.4625,-2.4625,-2.4456,-2.4238,-2.4238,-2.4057,-2.376,-2.376,-2.376,-2.376,-2.376,-2.376,-2.3852,-2.392,-2.384,-2.384,-2.4,-2.392,-2.392,-2.4,-2.4,-2.4,-2.3932,-2.392,-2.3927,-2.3629,-2.3738,-2.3866,-2.3557,0.0,-2.3799,-2.3719,-2.3526,-2.3315,-2.3315,-2.3176,-2.3121,-2.3121,-2.3639,-2.3996,-2.3996,-2.4547,-2.4765,-2.4447,-2.4642,-2.4733,-2.451,-2.4148,-2.384,-2.376,-2.376,-2.376,-2.376,-2.376,-2.376,-2.376,-2.376,-2.376,-2.376,-2.376,-2.376,-2.376,-2.376,-2.376,-2.384,-2.384,-2.392,-2.4,-2.5433,-2.5433,-2.5433,-2.5433,-2.5433,-2.5433,-2.5433,-2.5433,-2.5433,-2.5433,-2.5433,-2.5433,-2.5433,-2.5433,-2.5433,-2.5433,-2.5433,-2.5385,-2.518,-2.5252,-2.5132,-2.4866,-2.4854,-2.4782,-2.4625,-2.4681,-2.4547,-2.4263,-2.4588,-2.4763,-2.4519,-2.4519,-2.4519,-2.4507,-2.4344,-2.4335,-2.4444,-2.4444,-2.4516,-2.4625,-2.4625,-2.4721,-2.4854,-2.4854,-2.4939,-2.5059,-2.5059,-2.5059,-2.5059,-2.5059,-2.489,-2.4649,-2.4492,-2.4263,-2.4021,-2.3808,-2.376,-2.376,-2.376,-2.376,-2.376,-2.376,-2.376,-2.376,-2.376,-2.376,-2.376,-2.376,-2.376,-2.376,-2.376,-2.376,-2.3724,-2.3604,-2.3568,0.0,0.0,-2.3568,-2.3604,-2.3748,-2.3652,-2.3592,-2.3592,-2.355,-2.3478,-2.3478,-2.3745,-2.3977,-2.3977,-2.4258,-2.4332,-2.4172,-2.4197,-2.4197,-2.408,-2.392,-2.376,-2.376,-2.376,-2.376,-2.376,-2.376,-2.376,-2.376,-2.376,-2.376,-2.376,-2.376,-2.376,-2.376,-2.376,-2.376,-2.376,-2.376,-2.376,-2.384,-2.5433,-2.5433,-2.5433,-2.5433,-2.5433,-2.5433,-2.5433,-2.5433,-2.5433,-2.5433,-2.5433,-2.5433,-2.5433,-2.5433,-2.5433,-2.5433,-2.5433,-2.5433,-2.5433,-2.5433,-2.5349,-2.5059,-2.5047,-2.5011,-2.4733,-2.4721,-2.4685,-2.4625,-2.4625,-2.4625,-2.4625,-2.4625,-2.4625,-2.4625,-2.4625,-2.4661,-2.4721,-2.4721,-2.4758,-2.4818,-2.4818,-2.4939,-2.5047,-2.5047,-2.5264,-2.5433,-2.5433,-2.5433,-2.5433,-2.5433,-2.518,-2.4915,-2.4709,-2.4444,-2.4178,-2.3844,-2.376,-2.376,-2.376,-2.376,-2.376,-2.376,-2.376,-2.376,-2.376,-2.376,-2.376,-2.376,-2.376,-2.376,-2.376,-2.376,-2.3748,-2.3688,0.0,0.0,0.0,-2.3556,-2.3544,-2.3736,-2.376,-2.376,-2.376,-2.376,-2.376,-2.376,-2.376,-2.376,-2.376,-2.376,-2.376,-2.376,-2.376,-2.376,-2.376,-2.376,-2.376,-2.376,-2.376,-2.376,-2.376,-2.376,-2.376,-2.376,-2.376,-2.376,-2.376,-2.376,-2.376,-2.376,-2.376,-2.376,-2.376,-2.376,-2.376,-2.376,-2.5433,-2.5433,-2.5433,-2.5433,-2.5433,-2.5433,-2.5433,-2.5433,-2.5433,-2.5433,-2.5433,-2.5433,-2.5433,-2.5433,-2.5433,-2.5433,-2.5433,-2.5433,-2.5433,-2.5433,-2.5421,-2.5409,-2.5409,-2.5204,-2.5023,-2.4927,-2.489,-2.4625,-2.4625,-2.4625,-2.4625,-2.4625,-2.4625,-2.4625,-2.4625,-2.477,-2.4927,-2.4927,-2.5071,-2.5373,-2.5373,-2.5385,-2.5409,-2.5409,-2.5421,-2.5433,-2.5433,-2.5433,-2.5433,-2.5433,-2.518,-2.4915,-2.4709,-2.4444,-2.4178,-2.3844,-2.376,-2.376,-2.376,-2.376,-2.376,-2.376,-2.376,-2.376,-2.376,-2.376,-2.376,-2.376,-2.376,-2.376,-2.376,-2.376,-2.3688,-2.3447,0.0,0.0,-2.3435,-2.3592,-2.3736,-2.376,-2.376,-2.376,-2.376,-2.376,-2.376,-2.376,-2.376,-2.376,-2.376,-2.376,-2.376,-2.376,-2.376,-2.376,-2.376,-2.376,-2.376,-2.376,-2.376,-2.376,-2.376,-2.376,-2.376,-2.376,-2.376,-2.376,-2.376,-2.376,-2.376,-2.376,-2.376,-2.376,-2.376,-2.376,-2.376,-2.376,-2.5433,-2.5433,-2.5433,-2.5433,-2.5433,-2.5433,-2.5433,-2.5433,-2.5433,-2.5433,-2.5433,-2.5433,-2.5433,-2.5433,-2.5433,-2.5433,-2.5433,-2.5433,-2.5433,-2.5433,-2.5433,-2.5433,-2.5433,-2.5397,-2.5289,-2.5289,-2.524,-2.5132,-2.5132,-2.5132,-2.5132,-2.5132,-2.5132,-2.5132,-2.5132,-2.5192,-2.5289,-2.5289,-2.5349,-2.5433,-2.5433,-2.5433,-2.5433,-2.5433,-2.5433,-2.5433,-2.5433,-2.5433,-2.5433,-2.5433,-2.5373,-2.524,-2.4891,-2.4697,-2.4395,-2.3973,-2.376,-2.376,-2.376,-2.376,-2.376,-2.376,-2.376,-2.376,-2.376,-2.376,-2.376,-2.376,-2.376,-2.376,-2.376,-2.376,-2.3736,-2.3628,0.0,-2.3724,-2.3628,-2.37,-2.376,-2.376,-2.376,-2.376,-2.376,-2.376,-2.376,-2.376,-2.376,-2.376,-2.376,-2.376,-2.376,-2.376,-2.376,-2.376,-2.376,-2.376,-2.376,-2.376,-2.376,-2.376,-2.376,-2.376,-2.376,-2.376,-2.376,-2.376,-2.376,-2.376,-2.376,-2.376,-2.376,-2.376,-2.376,-2.376,-2.376,-2.376,-2.5433,-2.5433,-2.5433,-2.5433,-2.5433,-2.5433,-2.5433,-2.5433,-2.5433,-2.5433,-2.5433,-2.5433,-2.5433,-2.5433,-2.5433,-2.5433,-2.5433,-2.5433,-2.5433,-2.5433,-2.5433,-2.5433,-2.5433,-2.5433,-2.5433,-2.5433,-2.5433,-2.5433,-2.5433,-2.5433,-2.5433,-2.5433,-2.5433,-2.5433,-2.5433,-2.5433,-2.5433,-2.5433,-2.5433,-2.5433,-2.5433,-2.5433,-2.5433,-2.5433,-2.5433,-2.5433,-2.5433,-2.5433,-2.5433,-2.5433,-2.5433,-2.5397,-2.5047,-2.4794,-2.4432,-2.3989,-2.3913,-2.376,-2.376,-2.376,-2.376,-2.376,-2.376,-2.376,-2.376,-2.376,-2.376,-2.376,-2.376,-2.376,-2.376,-2.376,-2.376,-2.376,-2.376,-2.376,-2.376,-2.376,-2.376,-2.376,-2.376,-2.376,-2.376,-2.376,-2.376,-2.376,-2.376,-2.376,-2.376,-2.376,-2.376,-2.376,-2.376,-2.376,-2.376,-2.376,-2.376,-2.376,-2.376,-2.376,-2.376,-2.376,-2.376,-2.376,-2.376,-2.376,-2.376,-2.376,-2.376,-2.376,-2.376,-2.376,-2.376,-2.376,-2.376,-2.376,-2.5433,-2.5433,-2.5433,-2.5433,-2.5433,-2.5433,-2.5433,-2.5433,-2.5433,-2.5433,-2.5433,-2.5433,-2.5433,-2.5433,-2.5433,-2.5433,-2.5433,-2.5433,-2.5433,-2.5433,-2.5433,-2.5433,-2.5433,-2.5433,-2.5433,-2.5433,-2.5433,-2.5433,-2.5433,-2.5433,-2.5433,-2.5433,-2.5433,-2.5433,-2.5433,-2.5433,-2.5433,-2.5433,-2.5433,-2.5433,-2.5433,-2.5433,-2.5433,-2.5433,-2.5433,-2.5433,-2.5433,-2.5433,-2.5433,-2.5433,-2.5433,-2.5397,-2.5047,-2.459,-2.4238,-2.4238,-2.4045,-2.3772,-2.376,-2.376,-2.376,-2.376,-2.376,-2.376,-2.376,-2.376,-2.376,-2.376,-2.376,-2.376,-2.376,-2.376,-2.376,-2.376,-2.376,-2.376,-2.376,-2.376,-2.376,-2.376,-2.376,-2.376,-2.376,-2.376,-2.376,-2.376,-2.376,-2.376,-2.376,-2.376,-2.376,-2.376,-2.376,-2.376,-2.376,-2.376,-2.376,-2.376,-2.376,-2.376,-2.376,-2.376,-2.376,-2.376,-2.376,-2.376,-2.376,-2.376,-2.376,-2.376,-2.376,-2.376,-2.376,-2.376,-2.376,-2.376,-2.5433,-2.5433,-2.5433,-2.5433,-2.5433,-2.5433,-2.5433,-2.5433,-2.5433,-2.5433,-2.5433,-2.5433,-2.5433,-2.5433,-2.5433,-2.5433,-2.5433,-2.5433,-2.5433,-2.5433,-2.5433,-2.5433,-2.5433,-2.5433,-2.5433,-2.5433,-2.5433,-2.5433,-2.5433,-2.5433,-2.5433,-2.5433,-2.5433,-2.5433,-2.5433,-2.5433,-2.5433,-2.5433,-2.5433,-2.5433,-2.5433,-2.5433,-2.5433,-2.5433,-2.5433,-2.5433,-2.5433,-2.5433,-2.5433,-2.5433,-2.5433,-2.5397,-2.5047,-2.4855,-2.4733,-2.4347,-2.4178,-2.4082,-2.3808,-2.376,-2.376,-2.376,-2.376,-2.376,-2.376,-2.376,-2.376,-2.376,-2.376,-2.376,-2.376,-2.376,-2.376,-2.376,-2.376,-2.376,-2.376,-2.376,-2.376,-2.376,-2.376,-2.376,-2.376,-2.376,-2.376,-2.376,-2.376,-2.376,-2.376,-2.376,-2.376,-2.376,-2.376,-2.376,-2.376,-2.376,-2.376,-2.376,-2.376,-2.376,-2.376,-2.376,-2.376,-2.376,-2.376,-2.376,-2.376,-2.376,-2.376,-2.376,-2.376,-2.376,-2.376,-2.376,-2.376,-2.376,-2.5433,-2.5433,-2.5433,-2.5433,-2.5433,-2.5433,-2.5433,-2.5433,-2.5433,-2.5433,-2.5433,-2.5433,-2.5433,-2.5433,-2.5433,-2.5433,-2.5433,-2.5433,-2.5433,-2.5433,-2.5433,-2.5433,-2.5433,-2.5433,-2.5433,-2.5433,-2.5433,-2.5433,-2.5433,-2.5433,-2.5433,-2.5433,-2.5433,-2.5433,-2.5433,-2.5433,-2.5433,-2.5433,-2.5433,-2.5433,-2.5433,-2.5433,-2.5433,-2.5433,-2.5433,-2.5433,-2.5433,-2.5433,-2.5433,-2.5433,-2.5433,-2.5409,-2.5252,-2.4963,-2.4818,-2.448,-2.4238,-2.4045,-2.3808,-2.376,-2.376,-2.376,-2.376,-2.376,-2.376,-2.376,-2.376,-2.376,-2.376,-2.376,-2.376,-2.376,-2.376,-2.376,-2.376,-2.376,-2.376,-2.376,-2.376,-2.376,-2.376,-2.376,-2.376,-2.376,-2.376,-2.376,-2.376,-2.376,-2.376,-2.376,-2.376,-2.376,-2.376,-2.376,-2.376,-2.376,-2.376,-2.376,-2.376,-2.376,-2.376,-2.376,-2.376,-2.376,-2.376,-2.376,-2.376,-2.376,-2.376,-2.376,-2.376,-2.376,-2.376,-2.376,-2.376,-2.376,-2.5433,-2.5433,-2.5433,-2.5433,-2.5433,-2.5433,-2.5433,-2.5433,-2.5433,-2.5433,-2.5433,-2.5433,-2.5433,-2.5433,-2.5433,-2.5433,-2.5433,-2.5433,-2.5433,-2.5433,-2.5433,-2.5433,-2.5433,-2.5433,-2.5433,-2.5433,-2.5433,-2.5433,-2.5433,-2.5433,-2.5433,-2.5433,-2.5433,-2.5433,-2.5433,-2.5433,-2.5433,-2.5433,-2.5433,-2.5433,-2.5433,-2.5433,-2.5433,-2.5433,-2.5433,-2.5433,-2.5433,-2.5433,-2.5433,-2.5433,-2.5433,-2.5433,-2.5433,-2.5083,-2.4661,-2.4637,-2.4275,-2.3796,-2.3772,-2.376,-2.376,-2.376,-2.376,-2.376,-2.376,-2.376,-2.376,-2.376,-2.376,-2.376,-2.376,-2.376,-2.376,-2.376,-2.376,-2.376,-2.376,-2.376,-2.376,-2.376,-2.376,-2.376,-2.376,-2.376,-2.376,-2.376,-2.376,-2.376,-2.376,-2.376,-2.376,-2.376,-2.376,-2.376,-2.376,-2.376,-2.376,-2.376,-2.376,-2.376,-2.376,-2.376,-2.376,-2.376,-2.376,-2.376,-2.376,-2.376,-2.376,-2.376,-2.376,-2.376,-2.376,-2.376,-2.376,-2.376,-2.5433,-2.5433,-2.5433,-2.5433,-2.5433,-2.5433,-2.5433,-2.5433,-2.5433,-2.5433,-2.5433,-2.5433,-2.5433,-2.5433,-2.5433,-2.5433,-2.5433,-2.5433,-2.5433,-2.5433,-2.5433,-2.5433,-2.5433,-2.5433,-2.5433,-2.5433,-2.5433,-2.5433,-2.5433,-2.5433,-2.5433,-2.5433,-2.5433,-2.5433,-2.5433,-2.5433,-2.5433,-2.5433,-2.5433,-2.5433,-2.5433,-2.5433,-2.5433,-2.5433,-2.5433,-2.5433,-2.5433,-2.5433,-2.5433,-2.5433,-2.5433,-2.5433,-2.5433,-2.5216,-2.4914,-2.4685,-2.4395,-2.4106,-2.39,-2.376,-2.376,-2.376,-2.376,-2.376,-2.376,-2.376,-2.376,-2.376,-2.376,-2.376,-2.376,-2.376,-2.376,-2.376,-2.376,-2.376,-2.376,-2.376,-2.376,-2.376,-2.376,-2.376,-2.376,-2.376,-2.376,-2.376,-2.376,-2.376,-2.376,-2.376,-2.376,-2.376,-2.376,-2.376,-2.376,-2.376,-2.376,-2.376,-2.376,-2.376,-2.376,-2.376,-2.376,-2.376,-2.376,-2.376,-2.376,-2.376,-2.376,-2.376,-2.376,-2.376,-2.376,-2.376,-2.376,-2.376,-2.5433,-2.5433,-2.5433,-2.5433,-2.5433,-2.5433,-2.5433,-2.5433,-2.5433,-2.5433,-2.5433,-2.5433,-2.5433,-2.5433,-2.5433,-2.5433,-2.5433,-2.5433,-2.5433,-2.5433,-2.5433,-2.5433,-2.5433,-2.5433,-2.5433,-2.5433,-2.5433,-2.5433,-2.5433,-2.5433,-2.5433,-2.5433,-2.5433,-2.5433,-2.5433,-2.5433,-2.5433,-2.5433,-2.5433,-2.5433,-2.5433,-2.5433,-2.5433,-2.5433,-2.5433,-2.5433,-2.5433,-2.5433,-2.5433,-2.5433,-2.5433,-2.5433,-2.5433,-2.5168,-2.4818,-2.4673,-2.4347,-2.4021,-2.3796,-2.376,-2.376,-2.376,-2.376,-2.376,-2.376,-2.376,-2.376,-2.376,-2.376,-2.376,-2.376,-2.376,-2.376,-2.376,-2.376,-2.376,-2.376,-2.4122,-2.4356,-2.4356,-2.464,-2.4876,-2.4876,-2.4876,-2.4876,-2.4876,-2.4876,-2.4876,-2.4876,-2.4876,-2.4876,-2.4876,-2.4876,-2.4876,-2.4876,-2.4876,-2.4876,-2.4876,-2.4134,-2.376,-2.376,-2.376,-2.376,-2.376,-2.376,-2.376,-2.376,-2.376,-2.376,-2.376,-2.376,-2.376,-2.376,-2.376,-2.376,-2.376,-2.5433,-2.5433,-2.5433,-2.5433,-2.5433,-2.5433,-2.5433,-2.5433,-2.5433,-2.5433,-2.5433,-2.5433,-2.5433,-2.5433,-2.5433,-2.5433,-2.5397,-2.5373,-2.5373,-2.5325,-2.5301,-2.5301,-2.5301,-2.5301,-2.5301,-2.5349,-2.5397,-2.5433,-2.5433,-2.5433,-2.5433,-2.5433,-2.5433,-2.5433,-2.5433,-2.5433,-2.5433,-2.5433,-2.5433,-2.5433,-2.5433,-2.5433,-2.5433,-2.5433,-2.5433,-2.5433,-2.5433,-2.5433,-2.5433,-2.5433,-2.5433,-2.5433,-2.5433,-2.5096,-2.4685,-2.4637,-2.4287,-2.382,-2.3772,-2.376,-2.376,-2.376,-2.376,-2.376,-2.376,-2.376,-2.376,-2.376,-2.376,-2.376,-2.376,-2.376,-2.376,-2.376,-2.376,-2.376,-2.376,-2.4356,-2.4746,-2.4746,-2.5269,-2.5653,-2.5653,-2.5703,-2.5811,-2.5811,-2.5944,-2.5969,-2.5969,-2.5969,-2.5969,-2.5969,-2.5969,-2.5969,-2.5969,-2.5969,-2.5969,-2.5956,-2.4758,-2.4122,-2.3993,-2.3993,-2.3888,-2.376,-2.376,-2.376,-2.376,-2.376,-2.376,-2.376,-2.376,-2.376,-2.384,-2.392,-2.392,-2.4,-2.5433,-2.5433,-2.5433,-2.5433,-2.5433,-2.5433,-2.5433,-2.5433,-2.5433,-2.5433,-2.5433,-2.5433,-2.5433,-2.5433,-2.5433,-2.5433,-2.5228,-2.5011,-2.5011,-2.4878,-2.4733,-2.4733,-2.4733,-2.4733,-2.4733,-2.4975,-2.5204,-2.5433,-2.5433,-2.5433,-2.5433,-2.5433,-2.5433,-2.5433,-2.5433,-2.5433,-2.5433,-2.5433,-2.5433,-2.5433,-2.5433,-2.5433,-2.5433,-2.5433,-2.5433,-2.5433,-2.5433,-2.5433,-2.5433,-2.5433,-2.5433,-2.5433,-2.5433,-2.5228,-2.4855,-2.4697,-2.442,-2.413,-2.382,-2.376,-2.376,-2.376,-2.376,-2.376,-2.376,-2.376,-2.376,-2.376,-2.376,-2.376,-2.376,-2.376,-2.376,-2.376,-2.376,-2.376,-2.376,-2.3876,-2.3981,-2.3981,-2.4017,-2.411,-2.411,-2.4652,-2.5032,-2.5032,-2.5665,-2.5969,-2.5969,-2.5969,-2.5969,-2.5969,-2.5969,-2.5969,-2.5969,-2.5969,-2.5969,-2.5969,-2.5811,-2.5401,-2.4758,-2.4758,-2.4392,-2.376,-2.376,-2.376,-2.376,-2.376,-2.376,-2.376,-2.376,-2.376,-2.3852,-2.4252,-2.4652,-2.4891,-2.5433,-2.5433,-2.5433,-2.5433,-2.5433,-2.5433,-2.5433,-2.5433,-2.5433,-2.5433,-2.5433,-2.5433,-2.5433,-2.5313,-2.5156,-2.4999,-2.4878,-2.4806,-2.4806,-2.4697,-2.4625,-2.4625,-2.4625,-2.4625,-2.4625,-2.4745,-2.4866,-2.4987,-2.5289,-2.5433,-2.5433,-2.5433,-2.5433,-2.5433,-2.5433,-2.5433,-2.5433,-2.5433,-2.5433,-2.5433,-2.5433,-2.5433,-2.5433,-2.5433,-2.5433,-2.5433,-2.5433,-2.5433,-2.5433,-2.5433,-2.5433,-2.5433,-2.5433,-2.5252,-2.5023,-2.4902,-2.4564,-2.4214,-2.4094,-2.3868,-2.376,-2.376,-2.376,-2.376,-2.376,-2.376,-2.376,-2.376,-2.376,-2.376,-2.376,-2.376,-2.376,-2.376,-2.376,-2.376,-2.376,-2.4134,-2.4615,-2.5007,-2.5019,-2.5019,-2.5019,-2.5295,-2.5533,-2.5533,-2.5811,-2.5969,-2.5969,-2.5969,-2.6198,-2.6613,-2.6613,-2.6773,-2.7263,-2.7263,-2.7263,-2.7263,-2.7263,-2.6613,-2.5533,-2.5533,-2.5138,-2.4392,-2.4392,-2.4146,-2.376,-2.376,-2.376,-2.384,-2.4092,-2.4332,-2.4572,-2.4731,-2.497,-2.513]},{"header":{"parameterUnit":"m.s-1","parameterCategory":1,"la1":30.6,"la2":28.766,"lo1":-90.7593,"lo2":-88.6598,"dy":0.0162,"dx":0.0183,"nx":116,"ny":114,"refTime":"2023-05-09T00:00:00:Z","depth":0,"parameterNumber":3,"parameterNumberName":"V-component_of_WINDS"},"data":[0.0,0.0,0.0,0.0,0.0,0.0,0.0,0.0,0.0,0.0,0.0,0.0,0.0,0.0,0.0,0.0,0.0,0.0,0.0,0.0,0.0,0.0,0.0,0.0,0.0,0.0,0.0,0.0,0.0,0.0,0.0,0.0,0.0,0.0,0.0,0.0,0.0,0.0,0.0,0.0,0.0,0.0,0.0,0.0,0.0,0.0,0.0,0.0,0.0,0.0,0.0,0.0,0.0,0.0,0.0,0.0,0.0,0.0,0.0,0.0,0.0,0.0,0.0,0.0,0.0,0.0,0.0,0.0,0.0,0.0,0.0,0.0,0.0,0.0,0.0,0.0,0.0,0.0,0.0,0.0,0.0,0.0,0.0,0.0,0.0,0.0,0.0,0.0,0.0,0.0,0.0,0.0,0.0,0.0,0.0,0.0,0.0,0.0,0.0,0.0,0.0,0.0,0.0,0.0,0.0,0.0,0.0,0.0,0.0,0.0,0.0,0.0,0.0,0.0,0.0,0.0,0.0,0.0,0.0,0.0,0.0,0.0,0.0,0.0,0.0,0.0,0.0,0.0,0.0,0.0,0.0,0.0,0.0,0.0,0.0,0.0,0.0,0.0,0.0,0.0,0.0,0.0,0.0,0.0,0.0,0.0,0.0,0.0,0.0,0.0,0.0,0.0,0.0,0.0,0.0,0.0,0.0,0.0,0.0,0.0,0.0,0.0,0.0,0.0,0.0,0.0,0.0,0.0,0.0,0.0,0.0,0.0,0.0,0.0,0.0,0.0,0.0,0.0,0.0,0.0,0.0,0.0,0.0,0.0,0.0,0.0,0.0,0.0,0.0,0.0,0.0,0.0,0.0,0.0,0.0,0.0,0.0,0.0,0.0,0.0,0.0,0.0,0.0,0.0,0.0,0.0,0.0,0.0,0.0,0.0,0.0,0.0,0.0,0.0,0.0,0.0,0.0,0.0,0.0,0.0,0.0,0.0,0.0,0.0,0.0,0.0,0.0,0.0,0.0,0.0,0.0,0.0,0.0,0.0,0.0,0.0,0.0,0.0,0.0,0.0,0.0,0.0,0.0,0.0,0.0,0.0,0.0,0.0,0.0,0.0,0.0,0.0,0.0,0.0,0.0,0.0,0.0,0.0,0.0,0.0,0.0,0.0,0.0,0.0,0.0,0.0,0.0,0.0,0.0,0.0,0.0,0.0,0.0,0.0,0.0,0.0,0.0,0.0,0.0,0.0,0.0,0.0,0.0,0.0,0.0,0.0,0.0,0.0,0.0,0.0,0.0,0.0,0.0,0.0,0.0,0.0,0.0,0.0,0.0,0.0,0.0,0.0,0.0,0.0,0.0,0.0,0.0,0.0,0.0,0.0,0.0,0.0,0.0,0.0,0.0,0.0,0.0,0.0,0.0,0.0,0.0,0.0,0.0,0.0,0.0,0.0,0.0,0.0,0.0,0.0,0.0,0.0,0.0,0.0,0.0,0.0,0.0,0.0,0.0,0.0,0.0,0.0,0.0,0.0,0.0,0.0,0.0,0.0,0.0,0.0,0.0,0.0,0.0,0.0,0.0,0.0,0.0,0.0,0.0,0.0,0.0,0.0,0.0,0.0,0.0,0.0,0.0,0.0,0.0,0.0,0.0,0.0,0.0,0.0,0.0,0.0,0.0,0.0,0.0,0.0,0.0,0.0,0.0,0.0,0.0,0.0,0.0,0.0,0.0,0.0,0.0,0.0,0.0,0.0,0.0,0.0,0.0,0.0,0.0,0.0,0.0,0.0,0.0,0.0,0.0,0.0,0.0,0.0,0.0,0.0,0.0,0.0,0.0,0.0,0.0,0.0,0.0,0.0,0.0,0.0,0.0,0.0,0.0,0.0,0.0,0.0,0.0,0.0,0.0,0.0,0.0,0.0,0.0,0.0,0.0,0.0,0.0,0.0,0.0,0.0,0.0,0.0,0.0,0.0,0.0,0.0,0.0,0.0,0.0,0.0,0.0,0.0,0.0,0.0,0.0,0.0,0.0,0.0,0.0,0.0,0.0,0.0,0.0,0.0,0.0,0.0,0.0,0.0,0.0,0.0,0.0,0.0,0.0,0.0,0.0,0.0,0.0,0.0,0.0,0.0,0.0,0.0,0.0,0.0,0.0,0.0,0.0,0.0,0.0,0.0,0.0,0.0,0.0,0.0,0.0,0.0,0.0,0.0,0.0,0.0,0.0,0.0,0.0,0.0,0.0,0.0,0.0,0.0,0.0,0.0,0.0,0.0,0.0,0.0,0.0,0.0,0.0,0.0,0.0,0.0,0.0,0.0,0.0,0.0,0.0,0.0,0.0,0.0,0.0,0.0,0.0,0.0,0.0,0.0,0.0,0.0,0.0,0.0,0.0,0.0,0.0,0.0,0.0,0.0,0.0,0.0,0.0,0.0,0.0,0.0,0.0,0.0,0.0,0.0,0.0,0.0,0.0,0.0,0.0,0.0,0.0,0.0,0.0,0.0,0.0,0.0,0.0,0.0,0.0,0.0,0.0,0.0,0.0,0.0,0.0,0.0,0.0,0.0,0.0,0.0,0.0,0.0,0.0,0.0,0.0,0.0,0.0,0.0,0.0,0.0,0.0,0.0,0.0,0.0,0.0,0.0,0.0,0.0,0.0,0.0,0.0,0.0,0.0,0.0,0.0,0.0,0.0,0.0,0.0,0.0,0.0,0.0,0.0,0.0,0.0,0.0,0.0,0.0,0.0,0.0,0.0,0.0,0.0,0.0,0.0,0.0,0.0,0.0,0.0,0.0,0.0,0.0,0.0,0.0,0.0,0.0,0.0,0.0,0.0,0.0,0.0,0.0,0.0,0.0,0.0,0.0,0.0,0.0,0.0,0.0,0.0,0.0,0.0,0.0,0.0,0.0,0.0,0.0,0.0,0.0,0.0,0.0,0.0,0.0,0.0,0.0,0.0,0.0,0.0,0.0,0.0,0.0,0.0,0.0,0.0,0.0,0.0,0.0,0.0,0.0,0.0,0.0,0.0,0.0,0.0,0.0,0.0,0.0,0.0,0.0,0.0,0.0,0.0,0.0,0.0,0.0,0.0,0.0,0.0,0.0,0.0,0.0,0.0,0.0,0.0,0.0,0.0,0.0,0.0,0.0,0.0,0.0,0.0,0.0,0.0,0.0,0.0,0.0,0.0,0.0,0.0,0.0,0.0,0.0,0.0,0.0,0.0,0.0,0.0,0.0,0.0,0.0,0.0,0.0,0.0,0.0,0.0,0.0,0.0,0.0,0.0,0.0,0.0,0.0,0.0,0.0,0.0,0.0,0.0,0.0,0.0,0.0,0.0,0.0,0.0,0.0,0.0,0.0,0.0,0.0,0.0,0.0,0.0,0.0,0.0,0.0,0.0,0.0,0.0,0.0,0.0,0.0,0.0,0.0,0.0,0.0,0.0,0.0,0.0,0.0,0.0,0.0,0.0,0.0,0.0,0.0,0.0,0.0,0.0,0.0,0.0,0.0,0.0,0.0,0.0,0.0,0.0,0.0,0.0,0.0,0.0,0.0,0.0,0.0,0.0,0.0,0.0,0.0,0.0,0.0,0.0,0.0,0.0,0.0,0.0,0.0,0.0,0.0,0.0,0.0,0.0,0.0,0.0,0.0,0.0,0.0,0.0,0.0,0.0,0.0,0.0,0.0,0.0,0.0,0.0,0.0,0.0,0.0,0.0,0.0,0.0,0.0,0.0,0.0,0.0,0.0,0.0,0.0,0.0,0.0,0.0,0.0,0.0,0.0,0.0,0.0,0.0,0.0,0.0,0.0,0.0,0.0,0.0,0.0,0.0,0.0,0.0,0.0,0.0,0.0,0.0,0.0,0.0,0.0,0.0,0.0,0.0,0.0,0.0,0.0,0.0,0.0,0.0,0.0,0.0,0.0,0.0,0.0,0.0,0.0,0.0,0.0,0.0,0.0,0.0,0.0,0.0,0.0,0.0,0.0,0.0,0.0,0.0,0.0,0.0,0.0,0.0,0.0,0.0,0.0,0.0,0.0,0.0,0.0,0.0,0.0,0.0,0.0,0.0,0.0,0.0,0.0,0.0,0.0,0.0,0.0,0.0,0.0,0.0,0.0,0.0,0.0,0.0,0.0,0.0,0.0,0.0,0.0,0.0,0.0,0.0,0.0,0.0,0.0,0.0,0.0,0.0,0.0,0.0,0.0,0.0,0.0,0.0,0.0,0.0,0.0,0.0,0.0,0.0,0.0,0.0,0.0,0.0,0.0,0.0,0.0,0.0,0.0,0.0,0.0,0.0,0.0,0.0,0.0,0.0,0.0,0.0,0.0,0.0,0.0,0.0,0.0,0.0,0.0,0.0,0.0,0.0,0.0,0.0,0.0,0.0,0.0,0.0,0.0,0.0,0.0,0.0,0.0,0.0,0.0,0.0,0.0,0.0,0.0,0.0,0.0,0.0,0.0,0.0,0.0,0.0,0.0,0.0,0.0,0.0,0.0,0.0,0.0,0.0,0.0,0.0,0.0,0.0,0.0,0.0,0.0,0.0,0.0,0.0,0.0,0.0,0.0,0.0,0.0,0.0,0.0,0.0,0.0,0.0,0.0,0.0,0.0,0.0,0.0,0.0,0.0,0.0,0.0,0.0,0.0,0.0,0.0,0.0,0.0,0.0,0.0,0.0,0.0,0.0,0.0,0.0,0.0,0.0,0.0,0.0,0.0,0.0,0.0,0.0,0.0,0.0,0.0,0.0,0.0,0.0,0.0,0.0,0.0,0.0,0.0,0.0,0.0,0.0,0.0,0.0,0.0,0.0,0.0,0.0,0.0,0.0,0.0,0.0,0.0,0.0,0.0,0.0,0.0,0.0,0.0,0.0,0.0,0.0,0.0,0.0,0.0,0.0,0.0,0.0,0.0,0.0,0.0,0.0,0.0,0.0,0.0,0.0,0.0,0.0,0.0,0.0,0.0,0.0,0.0,0.0,0.0,0.0,0.0,0.0,0.0,0.0,0.0,0.0,0.0,0.0,0.0,0.0,0.0,0.0,0.0,0.0,0.0,0.0,0.0,0.0,0.0,0.0,0.0,0.0,0.0,0.0,0.0,0.0,0.0,0.0,0.0,0.0,0.0,0.0,0.0,0.0,0.0,0.0,0.0,0.0,0.0,0.0,0.0,0.0,0.0,0.0,0.0,0.0,0.0,0.0,0.0,0.0,0.0,0.0,0.0,0.0,0.0,0.0,0.0,0.0,0.0,0.0,0.0,0.0,0.0,0.0,0.0,0.0,0.0,0.0,0.0,0.0,0.0,0.0,0.0,0.0,0.0,0.0,0.0,0.0,0.0,0.0,0.0,0.0,0.0,0.0,0.0,0.0,0.0,0.0,0.0,0.0,0.0,0.0,0.0,0.0,0.0,0.0,0.0,0.0,0.0,0.0,0.0,0.0,0.0,0.0,0.0,0.0,0.0,0.0,0.0,0.0,0.0,0.0,0.0,0.0,0.0,0.0,0.0,0.0,0.0,0.0,0.0,0.0,0.0,0.0,0.0,0.0,0.0,0.0,0.0,0.0,0.0,0.0,0.0,0.0,0.0,0.0,0.0,0.0,0.0,0.0,0.0,0.0,0.0,0.0,0.0,0.0,0.0,0.0,0.0,0.0,0.0,0.0,0.0,0.0,0.0,0.0,0.0,0.0,0.0,0.0,0.0,0.0,0.0,0.0,0.0,0.0,0.0,0.0,0.0,0.0,0.0,0.0,0.0,0.0,0.0,0.0,0.0,0.0,0.0,0.0,0.0,0.0,0.0,0.0,0.0,0.0,0.0,0.0,0.0,0.0,0.0,0.0,0.0,0.0,0.0,0.0,0.0,0.0,0.0,0.0,0.0,0.0,0.0,0.0,0.0,0.0,0.0,0.0,0.0,0.0,0.0,0.0,0.0,0.0,0.0,0.0,0.0,0.0,0.0,0.0,0.0,0.0,0.0,0.0,0.0,0.0,0.0,0.0,0.0,0.0,0.0,0.0,0.0,0.0,0.0,0.0,0.0,0.0,0.0,0.0,0.0,0.0,0.0,0.0,0.0,0.0,0.0,0.0,0.0,0.0,0.0,0.0,0.0,3.7914,3.738,0.0,0.0,0.0,0.0,0.0,0.0,0.0,0.0,0.0,0.0,0.0,0.0,0.0,0.0,0.0,0.0,0.0,0.0,0.0,0.0,0.0,0.0,0.0,0.0,0.0,0.0,0.0,0.0,0.0,0.0,0.0,0.0,0.0,0.0,0.0,0.0,0.0,4.4445,4.4445,4.4733,4.5283,4.4783,4.4015,4.3068,0.0,0.0,0.0,0.0,0.0,0.0,0.0,0.0,0.0,0.0,0.0,0.0,0.0,0.0,0.0,0.0,0.0,0.0,0.0,0.0,0.0,0.0,0.0,0.0,0.0,0.0,0.0,0.0,0.0,0.0,0.0,0.0,0.0,0.0,0.0,0.0,0.0,0.0,0.0,0.0,0.0,0.0,0.0,0.0,0.0,0.0,0.0,0.0,0.0,0.0,0.0,0.0,0.0,0.0,0.0,0.0,0.0,0.0,0.0,0.0,0.0,0.0,0.0,0.0,0.0,0.0,0.0,0.0,0.0,0.0,3.9147,3.8227,0.0,0.0,0.0,0.0,0.0,0.0,0.0,0.0,0.0,0.0,0.0,0.0,0.0,0.0,0.0,0.0,0.0,0.0,0.0,0.0,0.0,0.0,0.0,4.1692,4.1987,4.2783,4.2982,4.3427,0.0,0.0,0.0,0.0,0.0,0.0,4.5315,4.5877,4.614,4.6089,4.6358,4.6717,4.7173,4.7768,4.679,4.4558,4.3593,0.0,0.0,0.0,0.0,0.0,0.0,0.0,0.0,0.0,0.0,0.0,0.0,0.0,0.0,0.0,0.0,0.0,0.0,0.0,0.0,0.0,0.0,0.0,0.0,0.0,0.0,0.0,0.0,0.0,0.0,0.0,0.0,0.0,0.0,0.0,0.0,0.0,0.0,0.0,0.0,0.0,0.0,0.0,0.0,0.0,0.0,0.0,0.0,0.0,0.0,0.0,0.0,0.0,0.0,0.0,0.0,0.0,0.0,0.0,0.0,0.0,0.0,0.0,4.3126,4.2909,4.2909,4.2909,4.2846,4.2622,4.0671,3.9527,3.9025,3.8305,0.0,0.0,0.0,0.0,0.0,0.0,0.0,0.0,0.0,0.0,0.0,0.0,0.0,0.0,0.0,0.0,0.0,0.0,0.0,0.0,0.0,4.198,4.2171,4.3006,4.3855,4.4609,4.5244,0.0,0.0,0.0,0.0,0.0,4.6052,4.6158,4.652,4.7171,4.8504,4.9241,4.9293,4.9256,4.8936,4.8259,4.7084,4.6119,4.5422,0.0,0.0,0.0,0.0,0.0,0.0,0.0,0.0,0.0,0.0,0.0,0.0,0.0,0.0,0.0,0.0,0.0,0.0,0.0,0.0,0.0,0.0,0.0,0.0,0.0,0.0,0.0,0.0,0.0,0.0,0.0,0.0,0.0,0.0,0.0,0.0,0.0,0.0,0.0,0.0,0.0,4.4615,4.4615,0.0,0.0,0.0,0.0,0.0,0.0,0.0,0.0,0.0,0.0,0.0,0.0,0.0,4.3558,4.3647,4.367,4.3651,4.3683,4.4237,4.4497,4.4497,4.4497,4.4136,4.3532,4.3237,0.0,4.1355,4.1227,0.0,0.0,0.0,0.0,0.0,0.0,0.0,0.0,0.0,0.0,0.0,0.0,0.0,0.0,0.0,0.0,0.0,0.0,0.0,0.0,0.0,4.3501,4.4134,4.5828,4.6381,4.6761,4.6989,4.7322,0.0,0.0,0.0,4.594,4.5847,4.6401,4.738,4.8927,4.9442,4.989,5.0311,5.0258,5.015,4.9978,4.9354,4.823,4.6681,4.6481,0.0,0.0,0.0,0.0,0.0,0.0,0.0,0.0,0.0,0.0,0.0,0.0,0.0,0.0,0.0,0.0,0.0,0.0,0.0,0.0,0.0,0.0,0.0,0.0,0.0,0.0,0.0,0.0,0.0,0.0,0.0,0.0,0.0,0.0,0.0,0.0,0.0,0.0,0.0,4.3735,4.4248,4.5128,4.4553,4.4248,0.0,0.0,0.0,0.0,0.0,0.0,0.0,0.0,0.0,4.5805,4.515,4.497,4.5328,4.5424,4.5469,4.5469,4.577,4.5934,4.5903,4.5592,4.5306,4.4984,4.4525,4.4042,4.3424,4.1885,4.0832,4.0167,0.0,0.0,0.0,0.0,3.9024,3.8925,0.0,0.0,0.0,0.0,0.0,0.0,0.0,0.0,0.0,0.0,0.0,0.0,4.4193,4.4656,4.5713,4.7734,4.8091,4.827,4.8461,4.8484,4.8187,4.7464,4.6595,4.6239,4.6539,4.7415,4.8651,5.0196,5.0204,5.0488,5.1017,5.1017,5.0991,5.091,5.0803,4.9632,4.7723,4.7603,4.7079,4.6221,0.0,0.0,0.0,0.0,0.0,0.0,0.0,0.0,0.0,0.0,0.0,0.0,0.0,0.0,0.0,0.0,0.0,0.0,0.0,0.0,0.0,0.0,0.0,0.0,0.0,0.0,0.0,0.0,0.0,0.0,0.0,0.0,0.0,0.0,0.0,0.0,0.0,4.3876,4.4418,4.5568,4.5196,4.5026,0.0,0.0,0.0,0.0,0.0,0.0,4.6515,4.6234,4.634,4.7056,4.6605,4.6672,4.7361,4.753,4.7631,4.7631,4.7834,4.7936,4.7936,4.7505,4.7224,4.7002,4.6454,4.6125,4.5729,4.2956,4.1695,4.1411,4.0441,3.9844,3.9621,3.9939,4.0099,4.0291,0.0,0.0,0.0,0.0,0.0,0.0,0.0,0.0,0.0,0.0,0.0,4.3465,4.3551,4.4856,4.6105,4.6962,4.777,4.852,4.9186,4.9222,4.9222,4.9186,4.7747,4.764,4.9079,4.9924,5.0388,5.047,5.1219,5.1612,5.1647,5.1647,5.1531,5.1272,5.1272,5.0382,4.8896,4.9062,4.8363,4.717,4.6522,0.0,0.0,0.0,0.0,0.0,0.0,0.0,0.0,0.0,0.0,0.0,0.0,0.0,0.0,0.0,0.0,0.0,0.0,0.0,0.0,0.0,0.0,0.0,0.0,0.0,0.0,0.0,0.0,0.0,0.0,0.0,0.0,0.0,0.0,0.0,0.0,0.0,0.0,4.5703,4.5669,0.0,0.0,0.0,0.0,4.4682,4.5331,4.5771,4.5771,4.6384,4.7094,4.7804,4.7808,4.8176,4.8883,4.956,4.9932,4.9932,5.0642,5.098,5.098,5.0948,5.0557,4.9891,4.9857,4.9446,4.8583,4.5625,4.3744,4.2736,4.2641,4.1929,4.1024,4.2187,4.2641,4.2771,0.0,0.0,0.0,0.0,0.0,0.0,0.0,0.0,4.2644,4.3643,4.3643,4.4421,4.6847,4.7237,4.8045,4.9766,5.0232,5.0352,5.0102,5.0066,4.9566,4.84,4.7962,4.8247,4.9257,4.9578,5.0245,5.128,5.1565,5.1708,5.1708,5.1708,5.1658,5.1582,5.1582,5.1173,5.0443,5.0035,4.9221,4.8214,4.7683,4.6385,0.0,0.0,0.0,0.0,0.0,0.0,0.0,0.0,0.0,0.0,0.0,0.0,0.0,0.0,0.0,0.0,0.0,0.0,0.0,0.0,0.0,0.0,0.0,0.0,0.0,0.0,0.0,0.0,0.0,0.0,0.0,0.0,0.0,0.0,0.0,0.0,0.0,4.6993,4.6718,0.0,4.6718,4.6718,4.6921,4.7394,4.8105,4.8748,4.9221,4.9492,4.9763,5.0002,5.0002,5.0168,5.0439,5.0676,5.0811,5.0811,5.1082,5.1185,5.1185,5.0825,5.0527,5.0291,4.978,4.9431,4.9082,4.7369,4.6244,4.5594,4.5242,4.4263,4.3085,4.3542,4.3705,4.3703,0.0,0.0,0.0,0.0,0.0,0.0,0.0,0.0,4.2751,4.405,4.4014,4.5005,4.7986,4.8413,4.9197,5.086,5.1388,5.1332,5.0773,5.03,4.9479,4.8278,4.8389,4.8698,4.9172,4.9706,5.0631,5.1948,5.1948,5.208,5.2416,5.2416,5.2442,5.2493,5.2493,5.2248,5.1818,5.1197,5.0356,4.9375,4.873,4.737,4.5533,0.0,0.0,0.0,0.0,0.0,0.0,0.0,0.0,0.0,0.0,0.0,0.0,0.0,0.0,0.0,0.0,0.0,0.0,0.0,0.0,0.0,0.0,0.0,0.0,0.0,0.0,0.0,0.0,0.0,0.0,0.0,0.0,0.0,0.0,4.6201,4.6819,4.777,4.7902,4.8003,4.8274,4.8717,4.9221,4.9729,5.0202,5.0676,5.1183,5.1185,5.1319,5.1589,5.1589,5.1725,5.1995,5.1995,5.1995,5.1995,5.1995,5.1995,5.1962,5.1631,5.143,5.1396,5.0953,5.0745,5.0676,5.0007,4.9428,4.876,4.7087,4.5876,4.5033,4.5285,4.5391,4.532,0.0,0.0,0.0,0.0,0.0,0.0,4.2308,4.2308,4.2608,4.3444,4.4157,4.5183,4.6719,4.8211,4.9369,5.0095,5.0838,5.1263,5.1228,4.9837,4.9022,4.9022,4.9022,4.9033,4.9008,5.0555,5.1688,5.244,5.244,5.291,5.3789,5.3789,5.3842,5.4001,5.4001,5.3573,5.2896,5.2564,5.1758,5.0577,4.961,4.8543,4.7202,0.0,0.0,0.0,0.0,0.0,0.0,0.0,0.0,0.0,0.0,0.0,0.0,0.0,0.0,0.0,0.0,0.0,0.0,0.0,0.0,0.0,0.0,0.0,0.0,0.0,0.0,0.0,0.0,0.0,0.0,0.0,0.0,0.0,4.797,4.797,4.7973,4.8007,4.9255,4.983,4.9154,5.0371,5.1185,5.1219,5.1219,5.1219,5.1252,5.1252,5.1623,5.23,5.2334,5.2706,5.3484,5.3518,5.3518,5.3518,5.3518,5.3518,5.3518,5.3518,5.3518,5.3518,5.3518,5.3518,5.3518,5.345,5.301,5.1933,4.8225,4.6762,4.681,4.7599,4.7864,4.7864,0.0,0.0,0.0,0.0,0.0,0.0,4.2308,4.2308,4.298,4.476,4.4725,4.5666,4.871,4.8997,4.9457,5.0717,5.114,5.0803,4.973,4.9235,4.9022,4.9022,4.9417,5.0204,5.1414,5.1874,5.2475,5.3281,5.3281,5.3387,5.3654,5.3654,5.3681,5.3708,5.3708,5.3602,5.3389,5.3308,5.274,5.1828,5.0694,4.9221,4.7706,0.0,0.0,0.0,0.0,0.0,0.0,0.0,0.0,0.0,0.0,0.0,0.0,0.0,0.0,0.0,0.0,0.0,0.0,0.0,0.0,0.0,0.0,0.0,0.0,0.0,0.0,0.0,0.0,0.0,0.0,0.0,4.8162,4.8744,4.8833,4.9215,4.9695,5.0204,5.0676,5.0845,5.0608,5.0948,5.142,5.1961,5.1995,5.2266,5.2841,5.2875,5.2976,5.3179,5.3179,5.3281,5.3518,5.3518,5.3518,5.3518,5.3518,5.3518,5.3518,5.3518,5.3518,5.3518,5.3518,5.3518,5.345,5.2868,5.2526,5.2224,5.1115,5.0068,4.9151,4.9398,4.9115,4.8752,0.0,0.0,0.0,0.0,0.0,0.0,4.2308,4.2308,4.2959,4.4894,4.5036,4.6093,4.9068,4.9366,4.9764,5.0902,5.077,5.0117,4.8882,4.8186,4.8141,4.8811,4.9475,5.0576,5.2208,5.256,5.3125,5.3901,5.3901,5.407,5.4479,5.4479,5.4507,5.4555,5.4555,5.4414,5.4095,5.4095,5.3635,5.2864,5.2126,5.0764,4.9025,4.8255,4.7222,4.6096,4.5665,4.4883,4.4096,4.4365,0.0,0.0,0.0,0.0,0.0,0.0,0.0,0.0,0.0,0.0,0.0,0.0,0.0,0.0,0.0,0.0,0.0,0.0,0.0,0.0,0.0,0.0,0.0,0.0,4.9486,5.0065,5.0464,5.0536,5.071,5.1151,5.1488,5.1657,5.1657,5.1995,5.2334,5.2773,5.2807,5.301,5.3484,5.3788,5.3957,5.3957,5.4262,5.4431,5.4431,5.4431,5.4431,5.4431,5.4431,5.4431,5.4431,5.4431,5.4431,5.4431,5.4431,5.4431,5.4363,5.3611,5.3233,0.0,0.0,0.0,0.0,0.0,5.098,5.0911,0.0,0.0,0.0,0.0,0.0,0.0,4.2308,4.2287,4.2795,4.4267,4.5098,4.6354,4.8453,4.9405,5.0057,5.0584,5.0057,4.9328,4.8425,4.7161,4.7091,4.8521,4.9469,5.0627,5.2102,5.2909,5.3682,5.4454,5.4454,5.4863,5.5677,5.5677,5.5735,5.5844,5.5844,5.549,5.4889,5.4889,5.4429,5.3714,5.3714,5.2596,5.0776,4.916,4.8333,4.7852,4.6584,4.5845,4.55,4.5662,0.0,0.0,0.0,0.0,0.0,0.0,0.0,0.0,0.0,0.0,0.0,0.0,0.0,0.0,0.0,0.0,0.0,0.0,0.0,0.0,0.0,0.0,0.0,0.0,5.0845,5.1589,5.2334,5.1894,5.1455,5.1455,5.2063,5.2435,5.2435,5.3179,5.3619,5.3619,5.3721,5.3754,5.3754,5.4363,0.0,0.0,0.0,5.5681,5.5681,5.5681,5.5681,5.5681,5.5681,5.5681,5.5681,5.5681,5.5681,5.5681,5.5681,5.5681,5.5683,5.5006,5.4702,5.453,5.2247,5.1369,5.1443,5.22,5.2868,5.3382,0.0,0.0,0.0,0.0,0.0,0.0,4.2308,4.2225,4.2669,4.4156,4.4951,4.6152,4.8326,4.9275,4.953,4.9012,4.9398,4.9082,4.7713,4.7863,4.824,4.8591,5.0487,5.1997,5.2944,5.3682,5.4489,5.5262,5.5262,5.5367,5.5537,5.5537,5.5566,5.5596,5.5596,5.5525,5.5385,5.5385,5.495,5.4331,5.4331,5.3296,5.1751,5.1517,5.0772,4.9882,4.9994,4.9326,4.8437,4.874,4.8082,4.7182,4.7119,4.6975,0.0,0.0,0.0,0.0,0.0,0.0,0.0,0.0,0.0,0.0,0.0,0.0,0.0,0.0,0.0,0.0,0.0,0.0,0.0,5.0744,5.1623,5.2367,5.3179,5.3145,5.3078,5.3078,5.3179,5.3281,5.3281,5.3957,5.4397,5.4397,5.4938,5.5277,5.5277,5.5412,5.5513,5.5513,5.5649,5.5681,5.5681,5.5681,5.5681,5.5681,5.5681,0.0,5.5681,5.5681,5.5681,5.5681,5.5681,5.5681,5.5716,5.5547,5.5513,5.5309,5.3683,5.3041,5.3041,5.3212,5.3348,5.3484,0.0,0.0,0.0,0.0,0.0,0.0,4.2225,4.2163,4.2484,4.3456,4.4235,4.5258,4.6625,4.7503,4.7783,4.7372,4.7713,4.7783,4.7397,4.8099,4.8872,4.9714,5.1575,5.2769,5.3218,5.4314,5.5121,5.5507,5.5507,5.5507,5.5507,5.5507,5.5507,5.5507,5.5507,5.5507,5.5507,5.5507,5.5326,5.4998,5.4998,5.4266,5.312,5.2984,5.2459,5.1801,5.2059,5.164,5.0976,5.1116,5.0851,5.03,5.0021,4.9854,4.9576,0.0,0.0,0.0,0.0,0.0,0.0,0.0,0.0,0.0,0.0,0.0,0.0,0.0,0.0,4.9406,5.0342,0.0,5.111,5.2488,5.3108,5.3653,5.4228,5.4466,5.4465,5.4093,5.4059,5.4194,5.4566,5.4938,5.5141,5.5141,5.5513,5.5681,5.5681,5.6055,5.6258,5.6258,5.663,5.6799,5.6799,5.6799,5.6799,5.6799,5.6799,5.6799,5.6799,5.6799,5.6799,5.6799,5.6799,5.6799,5.6765,5.6393,5.6055,5.5614,5.4905,5.4397,5.4025,5.3653,5.3518,5.3518,0.0,0.0,0.0,0.0,0.0,0.0,0.0,4.2121,4.2285,4.2847,4.3613,4.4354,4.5034,4.5758,4.6144,4.6003,4.6109,4.653,4.7327,4.838,4.9539,5.0838,5.2207,5.3043,5.3218,5.4559,5.5367,5.5507,5.5507,5.5507,5.5507,5.5507,5.5507,5.5507,5.5507,5.5507,5.5507,5.5507,5.5507,5.5507,5.5507,5.5121,5.4483,5.4113,5.3661,5.3247,5.3275,5.3098,5.2863,5.2863,5.3061,5.3182,5.274,5.2501,5.2207,5.1212,5.1179,0.0,0.0,0.0,0.0,0.0,0.0,0.0,0.0,5.0347,5.0621,5.2083,5.217,5.2245,5.3115,5.2999,5.3107,5.4146,5.4601,5.4906,5.5179,5.5553,5.5617,5.5074,5.4905,5.504,5.5649,5.5852,5.5919,5.5919,5.6055,5.6156,5.6156,5.6697,5.7002,5.7002,5.7577,5.7881,5.7881,5.7881,5.7949,5.8118,5.8118,5.8186,5.8321,5.8186,5.8118,5.8084,5.7949,5.7881,5.7848,5.7273,5.6664,5.6122,5.5987,5.5547,5.4938,5.4194,5.3856,5.3721,0.0,0.0,0.0,0.0,0.0,0.0,0.0,0.0,4.2363,4.2979,4.3658,4.4354,4.5034,4.5758,4.5933,4.5291,4.5828,4.653,4.7327,4.9434,5.0697,5.0873,5.1681,5.2488,5.3183,5.3998,5.4805,5.5507,5.5507,5.5507,5.5507,5.5507,5.5507,5.5507,5.5507,5.5507,5.5507,5.5507,5.5507,5.5507,5.5507,5.5472,5.5367,5.5326,5.447,5.3387,5.349,5.3517,5.349,5.349,5.3782,5.4144,5.4068,5.3981,5.3556,5.1911,5.1151,5.0538,4.8943,4.9641,5.0808,5.0927,5.1459,5.2291,0.0,5.3304,5.2906,5.3635,5.3741,5.3775,5.3876,5.4258,5.4567,5.4736,5.5212,5.5581,5.5616,5.5927,5.6235,5.653,5.5987,5.5615,5.5716,5.6292,5.6697,5.6697,5.7273,5.7645,5.7645,5.7712,5.778,5.778,5.7848,5.7881,5.7881,5.7881,5.822,5.8896,5.8896,5.9235,5.9844,5.9201,5.8896,5.8863,5.8186,5.7881,5.7881,5.7814,5.7712,5.7577,5.6934,5.663,5.6461,5.575,5.504,5.4465,0.0,0.0,0.0,0.0,0.0,0.0,0.0,0.0,0.0,4.2412,4.2723,4.2975,4.3283,4.3497,4.3464,4.3079,4.4986,4.6354,4.667,4.9328,5.0873,5.0873,5.161,5.2172,5.2488,5.326,5.4033,5.4805,5.4805,5.5051,5.5507,5.5507,5.5507,5.5507,5.5507,5.5507,5.5507,5.5507,5.5507,5.5507,5.5507,5.5507,5.5507,5.5507,5.4834,5.3908,5.3993,5.3739,0.0,5.388,5.3922,5.3789,5.3789,5.3789,5.3345,5.0921,5.0369,5.0572,5.0569,5.0487,5.0676,5.1514,5.2126,5.2631,5.3076,5.2846,5.3025,5.4613,5.4859,5.4998,5.5542,5.5652,5.5723,5.589,5.6372,5.6711,5.6781,5.7156,5.7426,5.7588,5.7243,5.6968,5.6968,5.7273,5.7442,5.7442,5.7712,5.7881,5.7881,5.7881,5.8084,5.8524,5.8558,5.8761,5.9167,5.9167,5.9336,5.9641,5.9641,5.981,6.008,5.9776,5.9641,5.9607,5.8863,5.8558,5.8524,5.8084,5.7881,5.7848,5.7543,5.7442,5.7306,5.6156,5.5513,5.5243,0.0,0.0,0.0,0.0,0.0,0.0,0.0,0.0,0.0,0.0,4.1837,4.1837,4.188,4.1736,4.1648,4.1648,4.4027,4.5723,4.613,4.8688,5.0363,5.0838,5.1345,5.1786,5.2107,5.2642,5.331,5.4112,5.4026,5.4307,5.4957,5.4905,5.4905,5.4992,5.4905,5.4905,5.4934,5.5086,5.5191,5.5191,5.5437,5.5507,5.5507,5.5262,5.4805,5.4279,5.4068,5.3506,5.2909,5.326,5.3064,5.269,5.2572,5.2486,5.1958,4.9657,4.906,4.9458,5.0586,5.0599,5.0667,5.22,5.3052,5.3524,5.3579,5.3556,5.3942,5.5598,5.5845,5.5986,5.6669,5.671,5.6713,5.6914,5.7364,5.7705,5.774,5.8149,5.835,5.8135,5.8099,5.8063,5.7918,5.7881,5.7881,5.7881,5.7881,5.7983,5.8186,5.8186,5.8524,5.9302,5.9302,5.9573,6.008,6.0114,6.0216,6.0419,6.0419,6.0554,6.0723,6.052,6.0317,6.008,5.9539,5.9302,5.9268,5.8524,5.8186,5.8186,5.7983,5.7881,5.7746,5.6697,5.619,5.6021,0.0,0.0,0.0,0.0,0.0,0.0,0.0,0.0,0.0,0.0,0.0,0.0,0.0,4.1368,4.1368,4.1758,4.3112,4.4552,4.5935,4.7517,4.9073,5.0706,5.0702,5.1189,5.2342,5.227,5.2694,5.3608,5.3359,5.3394,5.3643,5.3366,5.3394,5.3643,5.3401,5.3345,5.3492,5.409,5.4349,5.4419,5.5191,5.5507,5.5437,5.463,5.4314,5.4208,5.3471,5.2699,5.1926,5.1224,5.0978,5.0916,5.0607,5.0,4.9234,4.8406,4.7195,4.6434,4.776,4.9084,5.0662,5.2978,5.4551,5.5798,5.688,5.6861,5.6667,5.6736,5.6771,5.6771,5.6805,5.7224,5.7569,5.7569,5.8083,5.8421,5.8207,5.8667,5.8702,5.7991,5.8351,5.8457,5.7954,5.7881,5.7881,5.7881,5.7881,5.822,5.893,5.8998,5.9302,6.0047,6.008,6.008,6.0114,6.0114,6.0486,6.1264,6.1264,6.1637,6.2313,6.1603,6.0858,6.0114,6.008,6.008,6.0013,5.9268,5.8998,5.8896,5.8186,5.7881,5.7881,5.7848,5.7374,5.6765,0.0,0.0,0.0,0.0,0.0,0.0,0.0,0.0,0.0,0.0,0.0,0.0,0.0,0.0,0.0,0.0,4.2801,4.3895,4.437,4.6786,4.8424,4.8966,4.9951,5.0641,5.106,5.1032,5.15,5.2556,5.2473,5.2803,5.3599,5.349,5.3517,5.3599,5.349,5.349,5.3588,5.431,5.4635,5.4705,5.5446,5.5424,5.4838,5.4028,5.3021,5.1856,0.0,5.0241,5.0417,5.0171,4.975,4.9302,4.9223,4.9056,4.8487,4.6794,4.6466,4.7071,4.9071,5.0837,5.2643,5.495,5.5947,5.6493,5.69,5.6904,5.6943,5.7426,5.6736,5.6184,5.6702,5.6979,5.7017,5.6883,5.7947,5.8771,5.8631,5.8631,5.8631,5.8525,5.8421,5.835,5.8312,5.8063,5.7881,5.7881,5.8355,5.8761,5.8998,5.9471,6.008,6.0858,6.0892,6.1129,6.1603,6.1637,6.1738,6.2009,6.2009,6.2144,6.2381,6.2144,6.1873,6.1603,6.1095,6.0892,6.0858,6.0047,5.9742,5.9674,5.893,5.8626,5.8592,5.8084,5.7712,5.7509,0.0,0.0,0.0,0.0,0.0,0.0,0.0,0.0,0.0,0.0,0.0,0.0,0.0,0.0,0.0,0.0,0.0,4.2949,4.3458,4.531,4.6656,4.7291,4.8186,4.8762,4.8923,4.887,4.9248,5.0057,5.0433,5.1122,5.2067,5.2448,5.2696,5.2945,5.2839,5.2812,5.2874,5.3297,5.3482,5.3517,5.3957,5.3795,5.3183,5.2373,5.1403,0.0,4.8696,4.8451,4.8837,4.8556,4.8135,4.7688,4.7611,4.7543,4.7283,4.6427,4.6775,4.8031,5.055,5.2243,5.3873,5.6233,5.6951,5.7154,5.7496,5.7598,5.7736,5.8219,5.7081,5.6184,5.6702,5.6805,5.66,5.5883,5.7119,5.8152,5.8016,5.7947,5.8084,5.8632,5.8525,5.8557,5.8972,5.8615,5.8397,5.8397,5.8764,5.9268,5.981,6.0283,6.0892,6.167,6.167,6.1907,6.2381,6.2381,6.2381,6.2381,6.2381,6.2381,6.2381,6.2381,6.2381,6.2347,6.1907,6.167,6.1637,6.0858,6.052,6.0452,5.9708,5.9404,5.9302,5.8558,5.8287,5.8254,0.0,0.0,0.0,0.0,0.0,0.0,0.0,0.0,0.0,0.0,0.0,0.0,0.0,0.0,0.0,0.0,0.0,0.0,4.3079,4.3252,4.4019,4.5699,4.5641,4.5803,4.6263,4.614,4.6228,4.6566,4.7525,4.838,4.9174,5.0126,5.0885,5.1433,5.118,5.1128,5.1231,5.1043,5.0973,5.0982,5.091,5.0865,5.076,4.9952,4.9635,4.939,4.7879,4.7327,4.7222,4.646,4.6249,4.627,4.6089,4.5832,4.5906,4.7334,4.8106,4.9142,5.2075,5.3374,5.4431,5.6815,5.7569,5.7878,5.8772,5.9012,5.9012,5.8944,5.7736,5.6667,5.6667,5.6667,5.6219,5.4805,5.5874,5.6842,5.6642,5.6776,5.7327,5.8424,5.8735,5.9148,5.9905,5.9616,5.9395,5.9429,5.9245,5.9776,6.1231,6.1332,6.167,6.2381,6.2381,6.2381,6.2381,6.2381,6.2381,6.2381,6.2381,6.2381,6.2381,6.2381,6.2381,6.2381,6.2381,6.2381,6.2347,6.1637,6.1366,6.1264,6.0486,6.0148,6.008,5.9336,5.9066,5.8964,0.0,0.0,0.0,0.0,0.0,0.0,0.0,0.0,0.0,0.0,0.0,0.0,0.0,0.0,0.0,0.0,0.0,0.0,4.1494,4.26,4.3395,4.386,4.488,4.5528,4.5632,4.5607,4.5736,4.6065,4.6358,4.6685,4.7047,4.7347,4.7523,4.7671,4.7769,4.7818,4.7902,4.8626,4.923,4.9735,5.0277,5.0336,5.0083,4.9334,4.8588,4.7879,4.6995,4.6594,4.646,4.6284,4.6951,4.8032,4.8647,4.8797,4.8885,4.9551,5.0478,5.1686,5.3618,5.5179,5.6505,5.7698,5.8252,5.8565,5.8806,5.8944,5.884,5.8288,5.6529,5.5081,5.5081,5.5081,5.515,5.5288,5.7081,5.8427,5.8358,5.8324,5.8669,5.9666,5.9699,5.9974,6.0873,6.0727,6.0716,6.1149,6.088,6.0892,6.1298,6.1806,6.2212,6.2381,6.2381,6.2381,6.2381,6.2381,6.2381,6.2381,6.2381,6.2381,6.2381,6.2381,6.2381,6.2381,6.2381,6.2381,6.2381,6.2178,6.211,6.2042,6.1298,6.0994,6.0892,6.0114,5.981,5.9708,0.0,0.0,0.0,0.0,0.0,0.0,0.0,0.0,0.0,0.0,0.0,0.0,0.0,0.0,0.0,0.0,0.0,0.0,0.0,4.1723,4.2171,4.2171,4.2975,4.3423,4.3423,4.3733,4.386,4.3844,4.4729,4.5217,4.5268,4.5849,4.6189,4.6312,4.6398,4.6447,4.6471,4.6648,4.7203,0.0,0.0,4.808,4.8237,4.7729,4.7282,4.6835,4.6379,4.661,4.721,4.7692,4.8601,4.9608,4.9844,4.9884,5.013,5.1206,5.2121,5.3247,5.5074,5.6464,5.7554,5.8069,5.8455,5.8495,5.7913,5.7912,5.7633,5.6219,5.4391,5.3115,5.346,5.3804,5.4149,5.4563,5.6564,5.8047,5.8047,5.8255,5.8875,6.0082,6.0391,6.0872,6.1703,6.1519,6.1608,6.2282,6.1775,6.1549,6.1772,6.2178,6.2381,6.2381,6.2381,6.2381,6.2381,6.2381,6.2381,6.2381,6.2381,6.2381,6.2381,6.2381,6.2381,6.2381,6.2381,6.2381,6.2381,6.2381,6.2381,6.2347,6.1941,6.1772,6.167,6.0926,6.0622,6.052,0.0,0.0,0.0,0.0,0.0,0.0,0.0,0.0,0.0,0.0,4.0847,0.0,0.0,0.0,0.0,0.0,0.0,0.0,0.0,0.0,4.1101,4.1205,4.0998,4.0963,4.1032,4.1585,4.1646,4.1163,4.296,4.3732,4.3536,4.4684,4.5371,4.5582,4.5607,4.5631,4.5572,4.4773,4.5008,4.5747,4.5029,4.524,4.6024,0.0,4.6065,4.614,4.604,4.6993,4.8486,4.9567,5.0452,5.106,5.0552,5.0513,5.0931,5.265,5.3549,5.4397,5.6393,5.7408,5.7918,5.8099,5.8312,5.808,5.6747,5.6536,5.5979,5.3736,5.2046,5.1183,5.1912,5.2701,5.3356,5.3632,5.5529,5.6978,5.7081,5.7736,5.8737,6.0185,6.1013,6.1737,6.2496,6.2235,6.2286,6.2931,6.2233,6.1974,6.2386,6.2381,6.2381,6.2381,6.2381,6.2381,6.2381,6.2381,6.2381,6.2381,6.2381,6.2381,6.2381,6.2381,6.2381,6.2381,6.2381,6.2381,6.2381,6.2381,6.2381,6.2381,6.2381,6.2381,6.2313,6.167,6.1467,6.1332,0.0,0.0,0.0,0.0,0.0,0.0,0.0,0.0,0.0,0.0,4.0655,4.0944,0.0,0.0,0.0,0.0,0.0,0.0,0.0,0.0,0.0,4.2758,4.1585,4.1205,4.1826,4.1343,4.1056,4.0942,4.1332,4.146,4.1451,4.168,4.1784,4.1856,4.2009,4.2079,4.2102,4.2123,4.2589,4.329,4.3722,4.4314,4.5008,4.562,0.0,0.0,4.599,4.6993,4.8478,4.968,5.109,5.2462,5.288,5.3637,5.4451,5.5009,5.5684,5.6427,5.7442,5.778,5.7918,5.7918,5.8099,5.7904,5.6577,5.5925,5.5025,5.2877,5.1252,5.0424,5.1149,5.1908,5.3015,5.4908,5.6633,5.7909,5.853,5.9288,6.0116,6.1013,6.1806,6.2565,6.3324,6.3319,6.3205,6.3004,6.2825,6.2672,6.242,6.2381,6.2381,6.2381,6.2381,6.2381,6.2381,6.2381,6.2381,6.2381,6.2381,6.2381,6.2381,6.2381,6.2381,6.2381,6.2381,6.2381,6.2381,6.2381,6.2381,6.2381,6.2381,6.2381,6.2381,6.2245,6.2212,6.211,0.0,0.0,0.0,0.0,0.0,0.0,0.0,4.0263,4.0362,4.0313,4.0753,4.1116,4.1204,4.135,4.1619,0.0,0.0,0.0,0.0,0.0,0.0,4.3172,4.2102,4.1654,4.1974,4.2068,4.1688,4.0894,0.0,4.1688,4.0894,4.0894,4.0894,4.0894,4.1012,4.1024,4.1059,4.1198,4.1696,4.2486,4.3228,4.4018,4.4784,0.0,0.0,0.0,4.5787,4.6786,4.8186,4.8695,5.0466,5.2615,5.3567,5.4285,5.4897,5.5655,5.6024,5.6461,5.7577,5.7881,5.7881,5.7881,5.8027,5.7628,5.5485,5.4591,5.3378,5.0469,4.901,4.8459,4.9189,5.0287,5.1666,5.3497,5.5805,5.746,5.7805,5.953,6.0909,6.1254,6.2503,6.3406,6.3679,6.3894,6.3894,6.3568,6.3565,6.323,6.242,6.2381,6.2381,6.2381,6.2753,6.2956,6.2956,6.3362,6.3531,6.3531,6.3531,6.3531,6.3531,6.3159,6.2956,6.2956,6.255,6.2381,6.2381,6.2381,6.2381,6.2381,6.2381,6.2381,6.2381,6.2381,6.2381,6.2347,0.0,0.0,0.0,0.0,0.0,0.0,0.0,4.0484,4.0637,4.0535,4.1172,4.1486,4.1106,4.1749,4.226,0.0,0.0,0.0,0.0,0.0,0.0,0.0,0.0,0.0,4.2516,0.0,0.0,4.1378,4.262,0.0,0.0,0.0,0.0,0.0,4.0894,4.0894,4.0894,4.0894,4.1287,0.0,0.0,4.3776,4.4441,0.0,0.0,0.0,0.0,4.6342,4.7388,4.7651,4.9286,5.1468,5.2735,5.3629,5.4348,5.5213,5.5619,5.6021,5.7476,5.7881,5.7881,5.7881,5.8027,5.7355,5.436,5.3225,5.1806,4.8196,4.6872,4.6596,4.7327,4.8734,5.0252,5.1705,5.4287,5.6253,5.6736,5.9116,6.0944,6.1254,6.2958,6.4039,6.3861,6.4217,6.4358,6.4182,6.4075,6.3641,6.2736,6.2751,6.2814,6.2892,6.3441,6.3774,6.3854,6.4349,6.4613,6.4613,6.4613,6.4613,6.458,6.4005,6.3768,6.37,6.2956,6.2618,6.2618,6.2448,6.2381,6.2381,6.2381,6.2381,6.2381,6.2381,6.2381,6.2381,0.0,0.0,0.0,0.0,0.0,0.0,0.0,4.1741,4.193,4.193,4.2178,4.237,4.2354,4.2621,4.3108,0.0,0.0,0.0,0.0,0.0,0.0,0.0,0.0,0.0,0.0,0.0,0.0,4.3,4.3138,0.0,0.0,0.0,0.0,0.0,0.0,4.0894,4.0894,4.0894,0.0,0.0,0.0,0.0,0.0,0.0,0.0,0.0,0.0,4.5598,4.5864,4.7388,4.799,4.8361,4.9913,5.2042,5.4014,5.3954,5.4771,5.6021,5.7476,5.7881,5.7881,5.7881,5.7918,5.7042,5.3679,5.2343,5.0864,4.741,4.6052,4.5742,4.6562,4.7913,4.9396,5.0976,5.2632,5.4425,5.6495,5.8254,5.9806,6.1151,6.2958,6.4075,6.4075,6.4463,6.4602,6.4393,6.4004,6.3788,6.3679,6.3848,6.4106,6.4487,6.4506,6.468,6.5044,6.4748,6.4613,6.4613,6.4613,6.4613,6.4613,6.4546,6.4512,6.4478,6.3734,6.3429,0.0,6.2685,6.2381,6.2381,6.2381,6.2381,6.2381,6.2381,6.2381,6.2381,0.0,0.0,0.0,0.0,0.0,0.0,4.1766,4.1997,4.2206,4.2206,4.2807,4.3212,4.3212,4.3727,4.4065,4.4112,0.0,0.0,0.0,0.0,0.0,0.0,0.0,0.0,0.0,0.0,4.3655,4.3207,4.3655,0.0,0.0,0.0,0.0,0.0,0.0,4.0894,4.0894,4.0894,0.0,0.0,0.0,0.0,0.0,0.0,0.0,0.0,0.0,0.0,4.55,4.6167,4.6968,4.7638,4.7327,4.8839,5.1097,5.2816,5.3545,5.4364,5.6773,5.7347,5.734,5.778,5.7239,5.5888,5.3372,5.1492,4.9603,4.71,4.5949,4.5638,4.6458,4.7431,4.8465,4.9533,5.136,5.3011,5.3908,5.6943,5.9323,6.0184,6.2753,6.4533,6.474,6.5147,6.528,6.508,6.523,6.5338,6.5268,6.4754,6.4645,6.5014,6.5414,6.5549,6.5508,6.5779,6.5933,6.5933,6.5933,6.5933,6.5933,6.5459,6.5256,6.5222,6.4478,6.3903,0.0,6.3193,6.2787,6.2381,6.2381,6.2381,6.2381,6.2381,6.2381,6.2381,0.0,0.0,0.0,0.0,0.0,4.2812,4.2347,4.2557,4.2772,4.2772,4.3409,4.3857,4.3802,4.4552,4.4837,4.435,4.4955,0.0,0.0,0.0,0.0,0.0,0.0,0.0,0.0,0.0,4.4354,4.3862,4.4354,4.394,0.0,0.0,4.2171,4.124,0.0,0.0,0.0,0.0,0.0,0.0,0.0,0.0,0.0,0.0,0.0,0.0,0.0,0.0,0.0,0.0,0.0,4.6879,4.6017,4.6652,4.8192,5.0948,5.1967,5.2835,5.5417,5.6297,5.6596,5.7103,5.6156,5.4533,5.2524,5.0506,4.8543,4.6563,4.575,4.5638,4.6458,4.7189,4.7913,4.8672,5.0326,5.1671,5.2119,5.5391,5.794,5.8691,6.1492,6.3613,6.4303,6.5226,6.5779,6.58,6.6164,6.6457,6.6602,6.5953,6.5673,6.5886,6.628,6.6371,6.6241,6.6584,6.6812,6.6812,6.6812,6.6812,6.6779,6.6271,6.6034,6.5967,6.5256,6.4647,0.0,6.37,6.3193,6.2685,6.2482,6.2381,6.2381,6.2381,6.2381,6.2381,0.0,0.0,0.0,0.0,0.0,0.0,4.3565,4.3747,4.3864,4.3864,4.4121,4.4236,4.4126,4.5015,4.5389,4.4858,4.5042,0.0,0.0,0.0,0.0,0.0,0.0,0.0,0.0,0.0,4.5363,4.5363,4.5363,4.501,4.4276,4.4276,4.3448,4.1999,0.0,0.0,0.0,0.0,0.0,0.0,0.0,0.0,0.0,0.0,0.0,0.0,0.0,0.0,0.0,0.0,0.0,0.0,0.0,4.6052,4.5853,4.7929,4.9922,5.1849,5.3344,5.4703,5.5681,5.575,5.4634,5.2942,5.0798,4.9286,4.7728,4.563,4.5318,4.5638,4.6458,4.7189,4.7913,4.8672,4.9493,5.0528,5.1981,5.3563,5.5115,5.6633,5.8779,6.0771,6.2279,6.4457,6.5963,6.6378,6.6415,6.6743,6.7559,6.7553,6.7553,6.7553,6.7065,6.7022,6.7475,6.7022,6.6812,6.6812,6.6812,6.6812,6.6812,6.6812,6.6812,6.6779,6.6,6.5662,0.0,6.4106,6.3531,6.3429,6.2685,6.2381,6.2381,6.2381,6.2381,6.2381,0.0,0.0,0.0,0.0,0.0,0.0,0.0,4.4179,4.4463,4.4068,4.4519,4.4892,4.5028,4.5267,4.558,4.6059,4.5895,0.0,0.0,0.0,0.0,0.0,0.0,0.0,0.0,4.5397,4.5397,4.5397,4.5397,4.5044,4.4311,4.4311,4.3432,4.1886,4.195,4.1547,0.0,0.0,0.0,0.0,0.0,0.0,4.5103,0.0,0.0,0.0,0.0,0.0,0.0,0.0,0.0,0.0,0.0,0.0,0.0,4.6205,4.7426,4.9005,5.102,5.1715,5.1995,5.2503,5.1522,5.0132,4.9067,4.8073,4.7106,4.6048,4.5912,4.6433,4.7739,4.7823,4.812,4.9424,4.9717,4.9939,5.042,5.3613,5.6219,5.7091,6.102,6.3874,6.4433,6.5161,6.5898,6.6548,6.7014,6.7517,6.8183,6.8304,6.8089,6.7536,6.7373,6.7188,6.7022,6.6854,6.6812,6.6812,6.6812,6.6812,6.6812,6.6812,6.6812,6.6812,6.6542,6.617,6.5595,6.4647,6.3971,6.3429,6.2685,6.2381,6.2381,6.2381,6.2381,6.2381,0.0,0.0,0.0,0.0,0.0,0.0,0.0,4.4541,4.4708,4.4569,4.5054,4.5442,4.5511,4.5815,4.6136,4.6543,4.6328,0.0,0.0,0.0,0.0,0.0,0.0,0.0,4.5344,4.5371,4.5371,4.5344,4.5371,4.5156,4.4699,4.4699,4.3829,4.2259,4.2324,4.1773,0.0,0.0,0.0,0.0,0.0,0.0,4.5022,0.0,0.0,0.0,0.0,0.0,0.0,0.0,0.0,0.0,0.0,0.0,0.0,0.0,4.589,4.6862,4.8787,4.9532,4.9859,5.027,4.9255,4.8067,4.7717,4.7063,4.6504,4.6113,4.6327,4.7049,4.834,4.8226,4.8358,4.9653,4.9742,4.9855,5.0498,5.3421,5.6224,5.7985,6.1755,6.4299,6.4492,6.509,6.5939,6.6974,6.7438,6.7975,6.8641,6.8763,6.8474,6.7759,6.7719,6.7435,6.6812,6.698,6.698,6.6812,6.6812,6.6812,6.6812,6.6812,6.6812,6.6812,6.6812,6.6542,0.0,6.5324,6.458,6.3835,6.3091,6.2651,6.2381,6.2381,6.2381,6.2381,0.0,0.0,0.0,0.0,0.0,0.0,0.0,4.4892,4.479,4.5241,4.5673,4.59,4.5705,4.6577,4.6977,4.6389,0.0,0.0,0.0,0.0,0.0,0.0,0.0,0.0,4.5257,4.5371,4.5344,4.5203,4.5371,4.5423,4.5397,4.545,4.4578,4.298,4.3005,4.2156,4.0793,0.0,0.0,0.0,0.0,0.0,0.0,0.0,0.0,0.0,0.0,0.0,0.0,0.0,0.0,0.0,0.0,0.0,0.0,0.0,0.0,0.0,0.0,4.7953,4.8863,4.8741,4.7665,4.665,4.6718,4.6326,0.0,4.6039,4.6629,4.7455,4.8483,4.8431,4.8543,4.9512,4.956,5.0078,5.1737,5.3325,5.5714,5.9279,6.142,6.2662,6.2952,6.4492,6.6051,6.7441,6.772,6.8187,6.8945,6.901,6.8743,6.8162,6.8162,6.7765,6.6854,6.727,6.727,6.6812,6.6812,6.6812,6.6812,6.6812,6.6812,6.6812,6.6812,6.6812,6.6745,6.6,6.5256,6.4546,6.3802,6.3057,6.2381,6.2381,6.2381,6.2381,0.0,0.0,0.0,0.0,0.0,0.0,0.0,0.0,0.0,0.0,4.5925,4.6412,4.6507,4.6829,4.7003,0.0,0.0,0.0,0.0,0.0,0.0,0.0,0.0,0.0,4.5759,4.552,4.5344,4.5203,4.5752,4.5752,4.5257,4.5778,4.4792,4.2628,4.2903,4.2329,4.1332,4.2954,0.0,0.0,0.0,0.0,0.0,0.0,0.0,0.0,4.509,4.5132,0.0,0.0,0.0,0.0,0.0,0.0,0.0,0.0,4.552,4.5667,4.5677,0.0,4.583,4.5801,4.545,4.5263,0.0,4.6307,4.6743,4.7289,4.7233,4.7452,4.8809,4.8187,4.7899,4.9325,4.9381,4.9835,5.1395,5.5236,5.8909,6.1606,6.3275,6.4001,6.3637,6.4648,6.5772,6.683,6.7367,6.8009,6.8788,6.9134,6.908,6.859,6.893,6.8548,6.7353,6.7435,6.727,6.6812,6.6812,6.6812,6.6812,6.6812,6.6812,6.6812,6.6812,6.6812,6.6745,6.6,6.5256,6.4546,6.3802,6.3057,6.2381,6.2381,6.2381,6.2381,0.0,0.0,0.0,0.0,0.0,0.0,0.0,0.0,0.0,0.0,0.0,4.6793,4.6701,4.7126,0.0,0.0,0.0,0.0,0.0,0.0,0.0,0.0,0.0,4.5743,4.5407,4.5336,4.531,4.5389,4.5615,4.5675,4.5494,4.5598,4.4535,4.249,4.2339,4.2142,4.1988,4.3415,4.3992,0.0,4.4661,0.0,0.0,0.0,0.0,0.0,4.5156,4.5192,0.0,4.5426,4.5459,4.5397,0.0,0.0,0.0,0.0,4.5701,4.5778,4.5546,4.5283,4.5049,4.4858,4.4776,4.4878,4.5286,4.6209,4.7092,4.75,4.7747,4.8188,4.9063,4.9248,4.9364,4.956,5.0602,5.1877,5.3244,5.6745,5.9875,6.1846,6.3345,6.4213,6.421,6.4866,6.5634,6.6414,6.6908,6.7618,6.8611,6.8892,6.8989,6.9008,6.9264,6.8854,6.7799,6.7759,6.7557,6.7105,6.6896,6.6812,6.6812,6.6812,6.6812,6.6812,6.6812,6.6812,6.6779,6.6373,6.5561,6.4546,6.4174,6.3362,6.2381,6.2381,6.2381,6.2381,0.0,0.0,0.0,0.0,0.0,0.0,0.0,0.0,0.0,0.0,0.0,0.0,0.0,0.0,0.0,0.0,0.0,0.0,0.0,0.0,0.0,0.0,4.5815,4.5441,4.4898,4.4929,4.5113,4.5476,4.5286,4.5338,4.5569,4.5484,4.454,4.2961,4.2339,4.2296,4.2709,4.3723,4.4333,4.4643,4.4831,0.0,0.0,0.0,0.0,0.0,0.0,0.0,0.0,4.5552,4.5597,4.5371,4.5283,0.0,0.0,0.0,0.0,0.0,4.5854,4.584,4.5718,4.5056,4.4968,4.5022,4.5186,4.6178,4.717,4.741,4.8205,4.904,4.9562,5.0636,5.1134,5.0223,5.2426,5.4698,5.6028,5.8325,6.0289,6.143,6.2892,6.3969,6.4495,6.5011,6.5499,6.5965,6.6378,6.7085,6.8082,6.8328,6.8714,6.9202,6.9342,6.9043,6.8314,6.8201,6.7999,6.7557,6.7188,6.7022,6.7022,6.7022,6.7022,6.7022,6.7022,0.0,6.6896,6.6896,6.6042,6.4749,6.4647,6.3768,6.255,6.2415,6.2381,6.2381,0.0,0.0,0.0,0.0,0.0,0.0,0.0,0.0,0.0,0.0,0.0,0.0,0.0,0.0,0.0,0.0,0.0,0.0,0.0,0.0,0.0,4.6765,4.5788,4.527,4.5211,4.4265,4.4069,4.4744,4.5102,4.5054,4.4653,4.647,4.65,4.5105,4.512,4.4449,4.3356,4.4811,4.5119,4.4671,4.5196,0.0,0.0,0.0,0.0,0.0,0.0,0.0,0.0,4.4939,4.5097,4.5257,4.5468,0.0,0.0,0.0,0.0,0.0,4.5995,4.6974,4.7596,4.5752,4.515,4.5213,4.6082,4.6446,4.6997,4.8305,4.8494,4.9095,5.1344,5.0712,5.0275,5.1606,5.3808,5.6119,5.829,6.0809,6.251,6.2718,6.3799,6.4355,6.3828,6.4693,6.5251,6.5189,6.5994,6.6489,6.6566,6.7622,6.8323,6.8392,6.9024,6.9339,6.9227,6.8781,6.8397,6.8039,6.7925,6.7885,6.7885,6.7885,6.7885,6.7885,0.0,6.7719,6.7394,6.7394,6.6636,6.5459,6.485,6.4072,6.326,6.2618,6.2381,6.2381,0.0,0.0,0.0,0.0,0.0,0.0,0.0,0.0,0.0,0.0,0.0,0.0,0.0,0.0,0.0,0.0,0.0,0.0,0.0,0.0,4.7413,4.6694,4.5927,4.5574,4.574,4.5256,4.528,4.5847,4.5423,4.5435,4.5751,4.5789,4.5506,4.493,4.5032,4.4672,4.4122,4.5131,4.5399,4.5089,0.0,0.0,0.0,0.0,0.0,0.0,0.0,0.0,0.0,0.0,4.5049,4.5257,4.5624,0.0,0.0,0.0,0.0,0.0,4.6119,4.6595,4.7114,4.7021,4.7434,4.8052,4.8508,4.9264,4.9819,4.9686,5.008,5.0763,5.1977,5.2347,5.3441,5.6336,5.6646,5.7274,5.9392,6.0912,6.1987,6.237,6.3413,6.4144,6.4179,6.4769,6.5082,6.4843,6.5365,6.5753,6.6004,6.6989,6.776,6.8217,6.8989,6.9412,6.9412,6.9155,6.8854,6.8435,6.8201,6.8083,6.8083,6.8083,6.8083,6.8083,0.0,6.7999,6.7799,6.7597,6.6909,6.5922,6.4966,6.414,6.3429,6.2651,6.2381,6.2381,0.0,0.0,0.0,0.0,0.0,0.0,0.0,0.0,0.0,0.0,0.0,0.0,0.0,0.0,0.0,0.0,0.0,0.0,0.0,4.6975,4.7156,4.654,4.6356,4.6177,4.607,4.5965,4.6152,4.6663,4.5762,4.5951,4.7153,4.5831,4.5232,4.5306,4.532,4.5117,4.4848,4.543,4.552,4.5241,0.0,0.0,0.0,0.0,0.0,0.0,0.0,0.0,0.0,0.0,0.0,0.0,0.0,0.0,0.0,4.6374,4.6423,4.6242,4.6301,4.6449,4.6911,4.805,4.8966,4.9826,5.0614,5.1555,5.2079,5.1451,5.2131,5.2887,5.2978,5.4265,5.633,5.9264,5.8881,5.8885,6.0739,6.1396,6.1914,6.2473,6.3341,6.4074,6.4671,6.4877,6.4946,6.4706,6.4912,6.5193,6.5619,6.6497,6.7304,6.7901,6.8884,6.9412,6.9412,6.9412,6.9227,6.8857,6.8551,6.8397,6.8397,6.8397,6.8397,6.8397,6.8397,6.8319,6.8201,6.7919,6.7295,6.6479,6.5406,6.447,6.3555,6.2809,6.2537,6.2537,0.0,0.0,0.0,0.0,0.0,0.0,0.0,0.0,0.0,0.0,0.0,0.0,0.0,0.0,0.0,0.0,0.0,0.0,0.0,4.6203,4.6576,4.6504,4.7187,4.7053,4.593,4.5128,4.515,4.5974,4.5749,4.6453,4.7997,4.8074,4.8061,4.8005,4.8084,4.7122,4.5476,4.6024,4.5631,4.4692,4.5249,0.0,0.0,0.0,0.0,0.0,0.0,0.0,0.0,0.0,0.0,0.0,0.0,0.0,4.6094,4.6754,4.6684,4.6423,4.6542,4.753,4.8508,4.8486,4.7858,4.8041,5.1177,5.1442,5.1583,5.3618,5.4406,5.4878,5.5214,5.5939,5.6566,5.6846,5.9197,6.1584,6.3129,6.3971,6.4461,6.4496,6.4566,6.4671,6.4672,6.4877,6.4946,6.4706,6.4912,6.4946,6.4776,6.6216,6.7023,6.7093,6.8568,6.9412,6.9412,6.9412,6.9376,6.9339,6.9339,6.9302,6.9302,6.9302,6.9302,6.9302,6.9302,6.9043,6.8667,6.8628,6.8128,6.7339,6.6513,6.5318,6.3952,6.3235,6.2962,6.2962,0.0,0.0,0.0,0.0,0.0,0.0,0.0,0.0,0.0,0.0,0.0,0.0,0.0,0.0,0.0,0.0,0.0,0.0,0.0,4.5329,4.5743,4.5743,4.6069,4.6225,4.6281,4.6455,4.6672,4.7039,4.706,4.7096,4.724,4.7529,4.7635,4.7537,4.7283,4.6731,4.6,4.6196,4.5885,4.5169,4.532,4.5161,0.0,0.0,0.0,0.0,0.0,0.0,0.0,0.0,4.5415,4.5666,4.6179,4.6179,4.6105,4.659,4.6471,4.6204,4.6423,4.7452,4.8469,4.8495,4.8969,5.0134,5.2811,5.3963,5.4419,5.4314,5.5594,5.6619,5.625,5.8,5.951,5.951,6.1336,6.3091,6.4144,6.453,6.4672,6.4672,6.4672,6.4672,6.4672,6.474,6.4775,6.4706,6.474,6.4775,6.4706,6.6181,6.7023,6.7023,6.8568,6.9412,6.9412,6.9412,6.9412,6.9412,6.9412,6.9412,6.9412,6.9412,6.9412,6.9412,6.9412,6.9302,6.9118,6.8819,6.8513,6.8098,6.6273,6.4981,6.3991,6.3273,6.3152,6.334,0.0,0.0,0.0,0.0,0.0,0.0,0.0,0.0,0.0,0.0,0.0,0.0,0.0,0.0,0.0,0.0,0.0,0.0,4.3809,4.4495,4.5019,4.5273,4.5526,4.6069,4.6866,4.7467,4.772,4.7699,4.784,4.7632,4.7126,4.7394,4.7378,4.7115,4.699,4.6589,4.6049,4.6172,4.5825,4.5214,4.5294,4.5115,0.0,0.0,0.0,0.0,0.0,0.0,0.0,0.0,4.5598,4.5778,4.6217,4.6277,4.6179,4.6566,4.6751,4.6891,4.7139,4.7764,4.8566,4.9407,5.0276,5.161,5.4384,5.5648,5.6245,5.6139,5.7228,5.8,5.7474,5.951,6.13,6.13,6.2775,6.4109,6.4636,6.4672,6.4672,6.4672,6.4672,6.4672,6.4672,6.4672,6.4672,6.4672,6.4672,6.4672,6.4672,6.611,6.6917,6.7023,6.8531,6.9339,6.9412,6.9412,6.9412,6.9412,6.9412,6.9412,6.9412,6.9412,6.9412,6.9412,6.9412,6.9412,6.9376,6.9043,6.8819,6.8454,6.6239,6.5152,6.4717,6.3721,6.3491,6.3673,0.0,0.0,0.0,0.0,0.0,0.0,0.0,0.0,0.0,0.0,0.0,0.0,0.0,0.0,0.0,0.0,0.0,0.0,4.3086,4.3736,4.444,4.5273,4.6069,4.6866,4.7663,4.784,4.784,4.7699,4.784,4.7963,4.8012,4.8148,4.7834,4.7219,4.7752,4.7057,4.552,4.5925,4.5503,4.4637,4.5142,4.532,4.5285,0.0,0.0,0.0,0.0,0.0,0.0,0.0,4.5794,4.5844,4.6277,4.6423,4.6471,4.6708,4.7687,4.869,4.8851,4.87,4.9091,5.1372,5.147,5.1926,5.5753,5.6034,5.6385,5.9475,5.951,5.9018,5.9018,6.0282,6.1336,6.13,6.3231,6.4672,6.4672,6.4672,6.4672,6.4672,6.4672,6.4672,6.4672,6.4672,6.4672,6.4672,6.4672,6.4672,6.4707,6.5968,6.6808,6.6987,6.8385,6.919,6.9376,6.9412,6.9412,6.9412,6.9412,6.9412,6.9412,6.9412,6.9412,6.9412,6.9412,6.9412,6.9412,6.9412,6.9118,6.8493,6.6547,6.6035,6.6197,6.4702,6.4038,6.3892,0.0,0.0,0.0,0.0,0.0,0.0,0.0,0.0,0.0,0.0,0.0,0.0,0.0,0.0,0.0,0.0,0.0,0.0,4.3773,4.3988,4.444,4.5273,4.5606,4.619,4.6969,4.7636,4.7968,4.7891,4.8048,4.8108,4.8148,4.7793,4.7674,4.7752,4.708,4.6484,4.595,4.6472,4.586,4.4665,4.5528,4.5425,4.4852,0.0,0.0,0.0,0.0,0.0,0.0,0.0,0.0,0.0,4.6154,4.6253,4.6277,4.6471,4.6569,4.673,4.7044,4.8486,4.9963,5.0293,5.2277,5.4559,5.621,5.6877,5.786,6.0423,5.9931,5.9334,6.0423,6.1862,6.274,6.2178,6.3547,6.4672,6.4672,6.4672,6.4672,6.4672,6.4672,6.4672,6.4672,6.4672,6.4672,6.4672,6.4672,6.4882,6.5303,6.6212,6.6944,6.7392,6.8516,6.9115,6.919,6.9339,6.9412,6.9412,6.9412,6.9412,6.9412,6.9412,6.9412,6.9412,6.9412,6.9412,6.9412,6.9412,6.9118,6.86,6.7513,6.6783,6.6266,6.5294,6.4669,6.4217,0.0,0.0,0.0,0.0,0.0,0.0,0.0,0.0,0.0,0.0,4.3319,4.3591,0.0,0.0,0.0,0.0,0.0,0.0,4.549,4.5236,4.5417,4.6214,4.6021,4.6299,4.7175,4.7672,4.7951,4.7992,4.8072,4.8128,4.8128,4.7793,4.7648,4.7606,4.7151,4.666,4.6196,4.6495,4.6074,4.5372,4.5925,4.5708,4.5008,0.0,0.0,0.0,0.0,0.0,0.0,0.0,0.0,0.0,4.614,4.6214,4.6344,4.7015,4.7041,4.7194,4.8678,4.9837,5.1032,5.253,5.4208,5.6034,5.8,5.8843,5.958,6.102,6.1055,6.1125,6.2038,6.3196,6.3898,6.3407,6.4109,6.4672,6.4672,6.4672,6.4672,6.4672,6.4672,6.4672,6.4672,6.4672,6.4672,6.4672,6.4672,6.4953,6.5547,6.6244,6.6902,6.7591,6.847,6.8967,6.9115,6.9302,6.9412,6.9412,6.9412,6.9412,6.9412,6.9412,6.9412,6.9412,6.9412,6.9412,6.9412,6.9412,6.9264,6.89,6.8166,6.7326,6.6558,6.5826,6.5021,6.4252,0.0,0.0,0.0,0.0,0.0,0.0,0.0,0.0,0.0,0.0,4.47,4.5236,0.0,0.0,0.0,0.0,0.0,0.0,0.0,4.6902,4.6866,4.7642,4.7011,4.7037,4.7902,4.7902,4.7963,4.7992,4.7992,4.7992,4.7992,4.7951,4.7648,4.7173,4.7615,4.7262,4.6365,4.6293,4.627,4.6295,4.6235,4.5835,4.5268,4.5091,0.0,0.0,0.0,0.0,0.0,0.0,0.0,0.0,4.614,4.6214,4.6495,4.7847,4.8364,4.9091,5.1906,5.1934,5.2242,5.6526,5.6771,5.6877,6.0493,6.1336,6.1406,6.1476,6.2599,6.3618,6.3688,6.425,6.4672,6.4672,6.4672,6.4672,6.4672,6.4672,6.4672,6.4672,6.4672,6.4672,6.4672,6.4672,6.4672,6.4672,6.4672,6.4988,6.5652,6.6133,6.6788,6.762,6.8319,6.8781,6.9078,6.9264,6.9376,6.9412,6.9412,6.9412,6.9412,6.9412,6.9412,6.9412,6.9412,6.9412,6.9412,6.9412,6.9412,6.9305,6.8603,6.7796,6.6918,6.6251,6.5233,6.4144,0.0,0.0,0.0,0.0,0.0,0.0,0.0,0.0,0.0,0.0,0.0,0.0,0.0,0.0,0.0,0.0,0.0,0.0,0.0,4.6613,4.6866,4.7642,4.7638,4.7741,4.7951,4.7988,4.7968,4.7922,4.7951,4.7992,4.7992,4.7521,4.745,4.7699,4.732,4.7062,4.6936,4.7341,4.6713,4.5446,4.5447,4.4738,4.3667,4.3603,4.3464,0.0,0.0,0.0,0.0,0.0,0.0,0.0,4.614,4.6214,4.6224,4.6475,4.7394,4.8479,4.9143,5.1339,5.3818,5.5583,5.7579,5.951,6.0984,6.1757,6.2319,6.2986,6.3372,6.3793,6.4355,6.4601,6.4672,6.4672,6.4672,6.4672,6.4672,6.4672,6.4672,6.4672,6.4672,6.4672,6.4672,6.4672,6.4672,6.4672,6.4672,6.5128,6.6168,6.6338,6.6919,6.7964,6.8327,6.8551,6.8781,6.9005,6.9227,6.9412,6.9412,6.9412,6.9412,6.9412,6.9412,6.9412,6.9412,6.9412,6.9412,6.9412,6.9412,6.9412,6.92,6.8252,6.6952,6.6704,6.558,6.4144,0.0,0.0,0.0,0.0,0.0,0.0,0.0,0.0,0.0,0.0,0.0,0.0,0.0,0.0,0.0,0.0,0.0,0.0,0.0,0.0,4.7642,4.7699,4.7777,4.7804,4.7866,4.7866,4.7845,4.7819,4.7845,4.7866,4.7866,4.7536,4.7551,4.7798,4.7428,4.7385,4.7521,4.7515,4.6967,4.6074,4.5809,4.5036,4.4034,4.3711,4.3597,4.369,4.4104,0.0,0.0,0.0,0.0,0.0,0.0,0.0,4.633,4.6914,4.7133,4.7657,4.992,5.1459,5.3124,5.5934,5.8351,6.0388,6.1546,6.2108,6.2705,6.3898,6.4144,6.425,6.4636,6.4672,6.4672,6.4672,6.4672,6.4672,6.4672,6.4672,6.4672,6.4672,6.4672,6.4672,6.4672,6.4672,6.4672,6.4672,6.4953,6.5512,6.6373,6.6679,6.7219,6.8049,6.8397,6.859,6.8705,6.9043,6.9302,6.9412,6.9412,6.9412,6.9412,6.9412,6.9412,6.9412,6.9412,6.9412,6.9412,6.9412,6.9412,6.9376,6.9302,6.832,6.6987,6.6734,6.561,6.4144,0.0,0.0,0.0,0.0,0.0,0.0,0.0,0.0,0.0,0.0,0.0,0.0,0.0,0.0,0.0,0.0,0.0,0.0,0.0,0.0,0.0,4.7735,4.7699,4.7699,4.7699,4.7699,4.7699,4.7699,4.7699,4.7699,4.7699,4.7699,4.7699,4.7699,4.7699,4.7804,4.7931,4.7472,4.7171,4.6981,4.6395,4.5699,4.4916,4.4303,4.4167,4.4337,4.4216,4.4768,4.5569,4.5935,0.0,0.0,0.0,0.0,4.6435,4.7578,4.7203,4.7264,5.1046,5.1808,5.2529,5.6917,5.9053,6.0458,6.1862,6.2283,6.2775,6.4214,6.4636,6.4672,6.4672,6.4672,6.4672,6.4637,6.4637,6.4637,6.4637,6.4637,6.4672,6.4672,6.4672,6.4672,6.4672,6.4672,6.4672,6.4672,6.5268,6.5823,6.6373,6.6948,6.7553,6.8083,6.8474,6.8667,6.8705,6.9118,6.9376,6.9412,6.9412,6.9412,6.9412,6.9412,6.9412,6.9412,6.9412,6.9412,6.9412,6.9412,6.9412,6.9376,6.919,6.8315,6.7091,6.6586,6.5571,6.4282,0.0,0.0,0.0,0.0,0.0,0.0,0.0,0.0,0.0,0.0,4.8069,4.8786,0.0,0.0,0.0,0.0,0.0,0.0,0.0,0.0,0.0,4.7699,4.7699,4.7699,4.7699,4.7699,4.7699,4.7699,4.7699,4.7699,4.7699,4.7699,4.7699,4.7699,4.7699,4.7798,4.7902,4.784,4.7413,4.6769,4.6245,4.5545,4.4742,4.416,4.4185,4.4623,4.5046,4.5572,4.6109,4.6869,4.6835,0.0,0.0,0.0,4.6224,4.6285,4.7175,4.8242,4.866,5.1654,5.5364,5.8145,5.9475,6.0352,6.123,6.1932,6.2635,6.3547,6.425,6.4672,6.4672,6.4672,6.4637,6.4463,6.4428,6.4428,6.4428,6.4428,6.4498,6.4672,6.4672,6.4672,6.4672,6.4672,6.4672,6.4672,6.5268,6.5823,6.6373,6.6948,6.7553,6.8083,6.8319,6.8513,6.8705,6.8967,6.9227,6.9412,6.9412,6.9412,6.9412,6.9412,6.9412,6.9412,6.9412,6.9412,6.9412,6.9412,6.9412,6.9376,6.919,6.859,6.7642,6.6609,6.5662,6.4793,0.0,0.0,0.0,0.0,0.0,0.0,0.0,0.0,0.0,0.0,0.0,4.8478,0.0,0.0,0.0,0.0,0.0,0.0,0.0,0.0,0.0,4.7699,4.7699,4.7699,4.7699,4.7699,4.7699,4.7699,4.7699,4.7699,4.7699,4.7699,4.7699,4.7699,4.7699,4.7777,4.7881,4.7881,4.747,4.6785,4.6549,4.652,4.6473,4.5088,4.5397,4.652,4.587,4.5738,4.6047,4.6682,4.6554,4.6168,4.6411,0.0,0.0,0.0,4.657,4.7455,4.9098,5.2431,5.5874,5.7829,5.9229,6.0317,6.1125,6.1862,6.2599,6.3407,6.4179,6.4672,6.4672,6.4672,6.4637,6.4428,6.4393,6.4393,6.4393,6.4393,6.4463,6.4672,6.4672,6.4672,6.4672,6.4672,6.4672,6.4672,6.5268,6.5823,6.6373,6.6948,6.7631,6.828,6.8474,6.8667,6.893,6.9153,6.9302,6.9412,6.9412,6.9412,6.9412,6.9412,6.9412,6.9412,6.9412,6.9412,6.9412,6.9412,6.9339,6.919,6.8967,6.8401,6.7596,6.6456,6.5582,6.4895,0.0,0.0,0.0,0.0,0.0,0.0,0.0,0.0,0.0,0.0,0.0,0.0,0.0,0.0,0.0,0.0,0.0,0.0,0.0,0.0,0.0,4.7699,4.7699,4.7699,4.7699,4.7699,4.7699,4.7699,4.7699,4.7699,4.7699,4.7699,4.7699,4.7699,4.7699,4.7777,4.784,4.784,4.7538,4.7054,4.7454,4.8,4.8426,4.7374,4.7949,4.9075,4.7475,4.6914,4.6892,4.6954,4.6649,4.6304,4.6554,4.6602,0.0,0.0,0.0,4.675,4.938,5.1962,5.4501,5.6641,5.818,5.951,6.0704,6.1581,6.2319,6.3126,6.3898,6.4495,6.4671,6.4672,6.4602,6.4393,6.4358,6.4358,6.4358,6.4358,6.4428,6.4672,6.4672,6.4672,6.4672,6.4672,6.4672,6.4672,6.5268,6.5823,6.6373,6.6948,6.7631,6.8284,6.859,6.8781,6.9002,6.9264,6.9412,6.9412,6.9412,6.9412,6.9412,6.9412,6.9376,6.9339,6.9376,6.9412,6.9376,6.9339,6.9227,6.9078,6.8743,6.8281,6.7648,6.6374,6.5645,6.5063,0.0,0.0,0.0,0.0,0.0,0.0,0.0,0.0,0.0,0.0,0.0,0.0,4.7772,4.7907,4.7951,4.7902,4.7881,0.0,0.0,0.0,0.0,4.7699,4.7699,0.0,4.7699,4.7699,4.7699,4.7699,4.7699,4.7699,4.7699,4.7699,4.7699,4.7699,4.7699,4.7699,4.7699,4.7699,4.7699,4.7772,4.9314,4.993,5.0148,5.1565,5.218,5.2059,5.0457,4.9878,4.9683,4.8359,4.7752,4.7548,4.7756,4.7695,4.7527,0.0,0.0,0.0,4.8092,4.9108,5.0745,5.4495,5.612,5.7368,5.965,6.0774,6.1581,6.2283,6.3091,6.3863,6.4601,6.4672,6.4568,6.4251,6.4216,6.4216,6.4216,6.4216,6.4322,6.4637,6.4672,6.4672,6.4672,6.4672,6.4672,6.4672,6.5268,6.5823,6.6373,6.6948,6.7553,6.8123,6.8513,6.8705,6.8705,6.9155,6.9412,6.9412,6.9412,6.9412,6.9412,6.9412,6.9302,6.9115,6.9302,6.9412,6.9376,6.919,6.9115,6.904,6.859,6.8362,6.8154,6.6543,6.5914,6.5638,0.0,0.0,0.0,0.0,0.0,0.0,0.0,0.0,0.0,0.0,0.0,0.0,0.0,4.7824,4.7866,4.7798,4.7777,0.0,0.0,0.0,0.0,4.7699,4.7699,4.7699,4.7699,4.7699,4.7699,4.7699,4.7699,4.7699,4.7699,4.7699,4.7699,4.7699,4.7699,4.7699,4.7699,4.7699,4.7699,4.7844,4.9438,5.0728,5.1552,5.0746,5.1933,5.3628,5.0674,4.9588,4.9562,4.9189,4.8111,4.6981,4.7378,4.7478,4.7371,4.7182,4.6753,4.6667,4.8074,4.8951,5.022,5.321,5.5208,5.6856,5.8285,6.0001,6.1478,6.2082,6.2954,6.3794,6.4393,6.4602,6.4602,6.4358,6.4251,6.418,6.418,6.418,6.4287,6.4498,6.4637,6.4672,6.4672,6.4672,6.4672,6.4672,6.4918,6.5442,6.6373,6.6575,6.7191,6.8245,6.8551,6.8819,6.9155,6.9339,6.9412,6.9412,6.9412,6.9412,6.9376,6.9264,6.9153,6.9078,6.9005,6.8967,6.8967,6.9078,6.8892,6.8663,6.8474,6.8319,6.8098,6.6984,6.629,6.5738,0.0,0.0,0.0,0.0,0.0,0.0,0.0,0.0,4.7493,4.7678,0.0,0.0,0.0,0.0,4.7798,4.7699,4.7699,4.7699,4.7699,4.7699,4.7699,4.7699,4.7699,4.7699,4.7699,4.772,4.7756,4.7699,4.7756,4.772,4.7699,4.7699,4.7699,4.7699,4.7699,4.7699,4.7699,4.7699,4.7699,4.788,5.0017,5.1212,5.166,5.1322,5.2546,5.411,5.1107,5.0234,5.0388,5.0089,4.911,4.7959,4.8015,4.7767,4.75,4.7378,4.6949,4.6634,4.7632,4.8125,4.9048,5.1696,5.3456,5.5108,5.7303,5.9018,6.0461,6.1592,6.2501,6.3305,6.4008,6.4393,6.4568,6.4428,6.4287,6.418,6.418,6.418,6.4251,6.4358,6.4602,6.4672,6.4672,6.4672,6.4672,6.4672,6.4672,6.5093,6.61,6.6303,6.7026,6.8362,6.859,6.8857,6.9302,6.9302,6.9302,6.9302,6.9227,6.9155,6.9155,6.9005,6.893,6.8854,6.8743,6.8705,6.8705,6.8816,6.8701,6.8397,6.8319,6.8201,6.8014,6.7256,6.6531,6.5773,0.0,0.0,0.0,0.0,0.0,0.0,0.0,0.0,4.7735,4.7699,0.0,0.0,0.0,0.0,0.0,4.7735,4.7714,4.7699,4.7699,4.7699,4.7699,4.7699,0.0,0.0,4.7699,4.784,4.784,4.7699,4.784,4.784,4.7699,4.7699,4.7699,4.7699,4.7699,4.7699,4.7699,4.7699,4.7699,4.7953,5.1212,5.1574,5.0546,5.3748,5.4508,5.3676,5.2205,5.2147,5.2569,5.1227,5.0848,5.0645,4.9686,4.8699,4.7959,4.8192,4.7648,4.6868,0.0,0.0,0.0,4.987,5.0792,5.2067,5.6631,5.7719,5.8457,6.0774,6.1662,6.2398,6.3373,6.4007,6.4358,6.4358,6.4287,6.418,6.418,6.418,6.4251,6.4358,6.4602,6.4672,6.4672,6.4672,6.4672,6.4672,6.4672,6.4953,6.5547,6.6133,6.7026,6.8362,6.859,6.8819,6.9078,6.9078,6.9078,6.9078,6.8819,6.8705,6.8705,6.8705,6.859,6.8397,6.859,6.8705,6.8667,6.8474,6.8397,6.8358,6.8162,6.8083,6.8014,6.729,6.6531,6.5773,0.0,0.0,0.0,0.0,0.0,4.7699,4.7699,4.8185,4.8366,0.0,0.0,0.0,4.7751,4.7699,4.7932,4.8511,4.804,4.7699,4.7699,4.7699,4.7699,4.7699,4.7699,4.7699,4.7699,4.7756,4.7756,4.7699,4.7756,4.7756,4.7699,4.7699,4.7699,4.7699,4.7699,4.7699,4.7699,4.7699,4.7373,4.7228,5.1611,5.3096,5.2987,5.5595,5.7152,5.7742,5.618,5.5047,5.4409,5.5122,5.2761,4.9343,4.8626,4.8161,4.7919,4.7979,4.7715,4.7335,4.6936,0.0,0.0,0.0,0.0,0.0,5.3928,5.621,5.811,5.9211,6.0539,6.1728,6.2363,6.3236,6.383,6.383,6.4113,6.4358,6.4358,6.4358,6.4393,6.4393,6.4602,6.4672,6.4672,6.4672,6.4672,6.4672,6.4672,6.4953,6.5547,6.6545,6.7465,6.8362,6.8474,6.859,6.8781,6.8781,6.8781,6.8781,6.8743,6.8705,6.8705,6.8551,6.8474,6.8397,6.8319,6.828,6.828,6.8358,6.8319,6.8162,6.8123,6.8083,6.8083,6.7876,6.698,6.5842,0.0,0.0,0.0,0.0,0.0,4.8185,4.8185,4.8894,4.922,0.0,0.0,0.0,4.8749,4.8713,4.8894,4.9365,4.8967,4.8713,4.8713,4.8387,4.8185,4.8185,4.788,4.7699,4.7699,4.7741,4.7777,4.7699,4.7777,4.7741,4.7699,4.7699,4.788,4.8206,4.8249,4.827,4.827,4.827,4.7995,4.7844,5.1647,5.3204,5.3494,5.6174,5.7587,5.7996,5.7149,5.6459,5.6119,5.7065,5.4538,5.0878,5.0276,4.9234,4.8275,4.8207,4.7919,4.7591,4.7506,4.7291,4.7339,4.8491,0.0,0.0,5.3535,5.5543,5.7303,5.8962,6.0294,6.1274,6.1697,6.2431,6.3095,6.3446,6.3728,6.4044,6.4358,6.4393,6.4393,6.4393,6.4602,6.4672,6.4672,6.4672,6.4672,6.4672,6.4672,6.4953,6.5547,6.644,6.726,6.7912,6.8258,6.8474,6.859,6.859,6.859,6.859,6.8474,6.8435,6.8435,6.8319,6.828,6.828,6.8123,6.8083,6.8123,6.8635,6.852,6.8083,6.8083,6.8083,6.8083,6.8083,6.7152,6.5876,0.0,0.0,4.7989,4.7989,4.8568,4.9039,4.9039,4.9727,5.022,0.0,5.0112,5.0148,5.022,5.0148,5.0148,5.022,5.0148,5.0112,5.0112,4.9438,4.9039,4.9039,4.8351,4.7989,4.7989,4.8073,4.8073,4.7989,4.8073,4.8073,4.7989,4.7989,4.8351,4.9039,4.9168,4.9231,4.9231,4.9159,4.924,4.9619,5.1756,5.2733,5.3241,5.6391,5.7188,5.6704,5.6868,5.7278,5.7723,5.7571,5.6092,5.4239,5.3236,5.1367,4.9428,4.8972,4.8539,4.8307,4.8502,4.8251,4.8185,4.9184,4.9424,0.0,5.4197,5.5209,5.6094,5.8804,5.9908,6.0438,6.0601,6.1101,6.1701,6.2436,6.275,6.3275,6.4253,6.4393,6.4393,6.4428,6.4602,6.4672,6.4672,6.4672,6.4672,6.4672,6.4672,6.4953,6.5547,6.6065,6.6609,6.7288,6.7946,6.8327,6.8358,6.8358,6.8358,6.8358,6.8162,6.8083,6.8083,6.8083,6.8083,6.8083,6.8083,6.8083,6.8162,6.9017,6.8905,6.8241,6.8323,6.8319,6.8241,6.8241,6.7342,6.6132,0.0,4.9641,4.9641,4.9641,4.9764,4.9872,4.9872,5.0524,5.0814,5.0184,5.0112,5.0365,5.1017,5.051,5.0365,5.0995,5.0452,5.0112,5.0112,4.9945,4.9872,4.9872,4.9727,4.9641,4.9641,4.9641,4.9641,4.9641,4.9641,4.9641,4.9641,4.9641,4.9727,4.9894,5.0003,5.0046,5.0031,4.9425,5.0605,5.2872,5.3324,5.4218,5.5667,5.8891,6.0412,6.0819,6.0856,6.0178,5.8888,5.6979,5.6861,5.6964,5.3652,5.3202,5.3476,5.1018,5.125,5.1985,5.0602,5.0175,5.0211,5.0705,5.081,0.0,5.2121,5.3344,5.4276,5.4499,5.5618,5.6571,5.6601,5.714,5.7541,5.7716,5.9324,6.1457,6.4044,6.4393,6.4463,6.4637,6.4672,6.4672,6.4672,6.4672,6.4672,6.4672,6.4672,6.4953,6.5547,6.5686,6.6237,6.7288,6.7423,6.773,6.8162,6.8162,6.8162,6.8162,6.8123,6.8083,6.8083,6.8083,6.8083,6.8083,6.8083,6.8083,6.8162,6.8903,6.9126,6.9087,6.9743,6.96,6.8975,6.8975,6.8453,6.7578,5.0039,5.0112,5.0112,5.0112,5.0438,5.0728,5.0728,5.1357,5.1756,5.1357,5.1285,5.143,5.1828,5.1538,5.1466,5.1864,5.1538,5.1285,5.1285,5.0945,5.0728,5.0728,5.0329,5.0112,5.0112,5.0112,5.0112,5.0112,5.0112,5.0112,5.0112,5.0112,5.0741,5.1887,5.1201,5.1536,5.2554,5.0984,5.1457,5.3281,5.4047,5.5716,5.8094,6.0919,6.2259,6.2657,6.3056,6.2693,6.1752,6.0122,5.9072,5.8058,5.6066,5.5074,5.4228,5.2294,5.2511,5.3031,5.1313,5.0929,5.1131,5.1475,5.1551,0.0,0.0,5.3742,5.4456,5.4991,5.5502,5.5872,5.5872,5.5906,5.6115,5.6675,5.8184,5.9739,6.102,6.2746,6.3938,6.411,6.4392,6.4602,6.4672,6.4672,6.4672,6.4672,6.4672,6.4812,6.5128,6.5408,6.5858,6.6442,6.6983,6.7419,6.7722,6.795,6.8083,6.8083,6.8083,6.8083,6.8083,6.8083,6.8083,6.8123,6.8559,6.8711,6.8749,7.0024,7.0436,7.03,7.0366,6.9919,6.9237,6.9636,6.9034,6.8043,5.0583,5.0583,5.0583,5.0583,5.1104,5.1538,5.1538,5.2082,5.248,5.248,5.277,5.2951,5.2951,5.3241,5.3422,5.3422,5.3422,5.3277,5.2987,5.2335,5.1973,5.1973,5.1067,5.0728,5.1017,5.0728,5.0583,5.0583,5.0583,5.0583,5.0583,5.0583,5.1611,5.3422,5.2559,5.3063,5.4444,5.2867,5.2795,5.3862,5.5171,5.6987,5.9206,6.1806,6.2894,6.3147,6.4062,6.4396,6.4251,6.3273,6.1245,5.8963,5.8166,5.6733,5.4974,5.3308,5.3463,5.3776,5.1905,5.16,5.188,5.212,5.2263,5.2637,0.0,0.0,0.0,5.5846,5.5744,5.5455,5.5455,5.5147,5.5073,5.5778,5.6935,5.757,5.7169,5.9858,6.2051,6.2392,6.3482,6.4148,6.4006,6.4251,6.4497,6.4672,6.4601,6.4566,6.4672,6.5163,6.5477,6.5582,6.6577,6.7184,6.7284,6.7817,6.8083,6.8083,6.8245,6.8362,6.8362,6.852,6.8597,6.8597,6.9313,6.9529,6.9528,7.1127,7.164,7.1359,7.0901,7.03,6.9707,7.03,6.9737,6.8716,5.2226,5.2226,5.2226,5.2226,5.2299,5.2371,5.2371,5.2444,5.248,5.248,5.3748,5.4653,5.4653,5.5848,5.6681,5.6681,5.6681,5.6102,5.4725,5.4544,5.4508,5.4508,5.3023,5.2878,5.4327,5.2951,5.2226,5.2226,5.2226,5.2226,5.2226,5.2226,5.2371,5.2697,5.401,5.3971,5.2954,5.4232,5.5993,5.7933,5.8115,5.7569,5.6927,6.0088,6.1686,6.2495,6.3909,6.4396,6.4178,6.2657,6.1869,6.0991,5.7406,5.8011,5.9077,5.4209,5.4871,5.651,5.3644,5.3064,5.3279,5.3313,5.3432,5.3526,5.3319,0.0,5.3215,5.2898,0.0,5.2748,5.2748,0.0,0.0,5.1718,5.31,5.4154,5.3764,5.5588,5.7245,5.8199,6.135,6.289,6.156,6.2679,6.3798,6.4636,6.4109,6.4004,6.4671,6.4777,6.5058,6.5582,6.6203,6.6746,6.7284,6.7817,6.8083,6.8083,6.8868,6.924,6.9276,7.0092,7.0434,7.0229,7.0331,7.0298,7.0232,7.1099,7.1453,7.1453,7.216,7.1885,7.1131,7.1227,7.1191,7.0866,5.248,5.248,5.248,5.248,5.248,5.248,5.248,5.248,5.248,5.248,5.3096,5.3494,5.3494,5.4074,5.4834,5.5776,5.5884,5.5595,5.4943,5.4907,5.4472,5.3566,5.2842,5.2806,5.3494,5.2842,5.248,5.248,5.248,5.248,5.248,5.248,5.2987,5.3929,5.4629,5.5051,5.5366,5.6576,5.6805,5.6672,5.9045,5.8769,5.7388,6.1933,6.4154,6.4952,6.5583,6.5772,6.5627,6.4468,6.2875,6.1245,6.0955,5.9921,5.8548,5.7157,5.6891,5.651,5.4253,5.4243,5.4642,5.356,5.4263,5.4904,5.3642,5.3404,5.3444,5.3224,0.0,0.0,0.0,0.0,0.0,0.0,5.3363,5.3999,5.3126,5.5081,5.6809,5.7311,5.9065,6.0551,6.1315,6.2668,6.3762,6.4463,6.4356,6.439,6.4706,6.4672,6.4847,6.5058,6.5616,6.6237,6.678,6.7354,6.7787,6.8083,6.898,6.9386,6.9422,7.0364,7.0665,7.0499,7.1059,7.1159,7.1002,7.1824,7.2101,7.2041,7.2467,7.2071,7.1453,7.1891,7.1769,7.1262,5.248,5.248,5.248,5.248,5.248,5.248,5.248,5.248,5.248,5.248,5.3059,5.3458,5.3458,5.4436,5.5558,5.6754,5.7261,5.7224,5.6573,5.6102,5.545,5.4472,5.3204,5.2878,5.3748,5.2951,5.248,5.248,5.248,5.248,5.248,5.248,5.3132,5.4291,5.4907,5.5812,5.6935,5.8202,5.813,5.7442,6.0409,6.0943,6.0362,6.3973,6.5946,6.6786,6.6786,6.6786,6.6641,6.5627,6.3708,0.0,6.3056,6.1398,5.9056,5.9496,5.8878,5.7619,5.5447,5.5454,5.5573,5.3806,5.4391,5.5081,5.3796,5.36,5.3717,5.3775,5.3524,0.0,0.0,0.0,5.2776,5.2946,0.0,5.3941,5.2968,5.4477,5.5703,5.5785,5.6816,5.8533,6.1031,6.2517,6.3529,6.4001,6.4418,6.4665,6.4706,6.4672,6.4775,6.4944,6.5547,6.6216,6.7024,6.7361,6.798,6.8828,6.9493,6.9918,7.0159,7.1087,7.1376,7.1219,7.1915,7.2005,7.1769,7.2372,7.2582,7.2496,7.2496,7.2167,7.1769,7.2285,7.2167,7.1612,5.248,5.248,5.248,5.248,5.248,5.248,5.248,5.248,5.248,5.248,5.4472,5.5884,5.5884,5.9361,6.1725,6.1761,6.32,6.3092,6.0774,5.9144,5.8601,5.9361,5.4943,5.3929,5.6971,5.4074,5.248,5.248,5.248,5.248,5.248,5.248,5.2516,5.2661,5.4943,5.5993,5.6174,5.8565,6.0883,6.2947,6.3083,6.4468,6.6381,6.5117,6.5524,6.6786,6.6786,6.6786,6.6569,6.4975,6.4359,0.0,0.0,0.0,6.2576,6.0267,6.0665,6.1136,5.7974,0.0,5.5978,5.4374,5.3566,5.3235,5.344,5.3481,5.3561,5.3756,5.3775,5.3775,5.3775,5.3756,5.3496,5.2735,5.2904,0.0,0.0,5.2404,5.2246,5.215,5.4701,5.7449,5.9924,6.1659,6.2791,6.3213,6.4028,6.4557,6.4705,6.4672,6.4977,6.5665,6.6183,6.716,6.862,6.8322,6.9034,7.0698,7.0731,7.1219,7.205,7.2926,7.3162,7.2927,7.2955,7.2751,7.2467,7.2496,7.2496,7.2496,7.2496,7.2467,7.2467,7.2496,7.2467,7.2386,5.248,5.2915,5.2951,5.19,5.1719,5.1719,5.1719,5.2625,5.3639,5.4689,5.5957,5.7188,5.8275,5.9615,6.0819,6.1906,6.2512,6.2476,6.1652,6.0086,5.9325,5.9615,5.6066,5.4834,5.6355,5.4363,5.3023,5.248,5.248,5.248,5.248,5.248,5.277,5.3385,5.5196,5.6899,5.8528,6.0955,6.215,6.2512,6.3563,6.4794,6.5989,6.6047,6.6344,6.6786,6.6786,6.6786,0.0,6.617,6.5265,6.4432,6.4685,6.3727,6.2577,6.2721,6.2096,6.1098,0.0,0.0,5.9896,5.6867,0.0,0.0,0.0,0.0,5.4514,5.4592,5.4166,5.3794,5.3794,5.3794,5.372,5.346,5.3493,5.3528,0.0,5.3276,5.3136,5.3151,5.4231,5.5877,5.8053,5.9982,6.1579,6.2637,6.4202,6.5119,6.5141,6.5275,6.5629,6.6277,6.6101,6.6602,6.7889,6.8335,6.9024,6.9973,7.1086,7.1781,7.1998,7.2881,7.3118,7.2779,7.2779,7.2667,7.2496,7.2496,7.2496,7.2496,7.2496,7.2496,7.2496,7.2496,7.2496,7.2341,5.3613,5.4027,5.3908,5.2417,5.2371,5.2589,5.2589,5.3458,5.4689,5.621,5.7116,5.8347,6.0267,6.1208,6.2295,6.3599,6.4251,6.407,6.2947,6.1897,6.1064,6.0484,5.7985,5.708,5.8094,5.6029,5.4689,5.4182,5.3603,5.3349,5.3349,5.3349,5.3639,5.4182,5.545,5.7478,6.0158,6.2005,6.3309,6.4222,6.5555,6.6424,6.6931,6.7438,6.7293,6.6858,0.0,6.7655,6.7655,6.7655,6.675,6.5844,6.6895,6.5649,6.4001,6.4968,6.4199,6.2912,6.2286,6.2493,0.0,5.9339,5.9712,0.0,5.7221,0.0,5.622,0.0,0.0,0.0,0.0,5.502,5.4351,5.4648,5.4203,5.3794,0.0,5.3774,5.3716,5.3716,5.4159,5.5182,5.7115,5.873,6.0511,6.2426,6.3929,6.4951,6.54,6.5819,6.6277,6.6959,6.6582,6.6974,6.8268,6.877,6.9503,7.0483,7.1589,7.2233,7.2443,7.2972,7.3064,7.2779,7.2723,7.261,7.2496,7.2496,7.2496,7.2496,7.2496,7.2496,7.2496,7.2496,7.2496,7.2341,5.5618,5.5618,5.528,5.4119,5.4423,5.4834,5.4834,5.4979,5.5631,5.7224,5.8202,5.9687,6.2087,6.4396,6.6098,6.6858,6.8307,6.7902,6.483,6.4541,6.3852,6.234,6.0701,6.0484,6.2014,5.8927,5.7224,5.7188,5.5667,5.4907,5.4907,5.4907,5.4943,5.4979,5.5703,5.7804,6.0892,6.1725,6.4396,6.8126,6.8923,6.9207,6.9171,6.9279,6.8307,6.7112,6.8663,6.9207,6.9207,6.9207,6.8669,6.8054,6.8054,6.7547,6.6895,6.6858,6.6858,6.6533,6.4939,6.3989,6.3094,6.1725,6.0868,0.0,0.0,0.0,5.865,0.0,0.0,0.0,0.0,5.7266,5.5391,5.6097,5.4871,5.3794,5.3794,5.3794,5.3794,5.3794,5.4378,5.5406,5.7085,5.7919,5.9577,6.2442,6.3293,6.421,6.5422,6.6175,6.685,6.7604,6.764,6.8247,6.9633,6.9613,7.0487,7.2146,7.2106,7.2576,7.3372,7.3252,7.3118,7.2955,7.2751,7.261,7.2496,7.2496,7.2496,7.2496,7.2496,7.2496,7.2496,7.2496,7.2496,7.2414,5.5618,5.6095,5.6579,5.6845,5.5441,5.4176,5.4025,5.5993,5.8311,6.0484,6.2512,6.4649,6.7076,6.7873,6.8343,6.8591,6.8989,6.8845,6.8047,6.6858,6.6279,6.646,6.378,6.2476,6.2875,5.9724,5.7804,5.7188,5.5667,5.4907,5.4907,5.4907,5.5196,5.574,5.5921,5.813,6.1725,6.2549,6.5192,6.8959,6.9787,6.9358,6.8488,0.0,6.9937,6.8633,6.9062,6.9207,6.9207,6.9207,6.9062,6.8887,6.8887,6.8742,6.8452,6.7873,6.7692,6.7474,6.646,6.6199,6.5814,6.4256,6.405,6.3788,0.0,0.0,0.0,0.0,0.0,0.0,0.0,0.0,5.6543,5.5503,5.4463,5.3794,5.3794,5.3794,5.3794,5.3794,5.5035,5.5994,5.6219,5.7593,5.9491,6.1987,6.3073,6.4566,6.6721,6.5962,6.6355,6.821,6.7826,6.7989,6.8778,6.9383,7.0224,7.1255,7.1854,7.2516,7.3091,7.3064,7.2899,7.261,7.2553,7.2524,7.2496,7.2496,7.2496,7.2496,7.2496,7.2496,7.2496,7.2496,7.2496,7.2414,5.6968,5.7337,5.7847,5.8584,5.7914,5.724,5.7012,5.7808,5.9506,6.2657,6.4215,6.5989,6.8416,6.9285,6.9828,7.0154,7.0191,6.9756,6.8742,6.8488,6.809,6.751,6.6388,6.5663,6.5301,6.2838,6.081,5.9289,5.7732,5.6659,5.6092,5.6092,5.631,5.6673,5.6673,5.8486,6.1616,6.4215,6.6605,6.8778,7.0299,7.0335,0.0,7.0987,7.0951,7.0191,7.0191,7.0191,7.0191,7.0191,6.9973,6.975,6.975,6.9497,6.9134,6.8669,6.8525,6.8343,6.7547,6.7411,6.7287,6.629,6.6256,6.6098,6.4755,6.4253,6.401,0.0,6.3044,6.2301,0.0,0.0,5.7769,5.5391,5.4611,5.4203,5.3868,5.3794,5.3794,5.3794,5.4648,5.5255,5.5364,5.7302,5.9371,6.1402,6.2105,6.3392,6.5486,6.5551,6.6297,6.7924,6.7986,6.8146,6.8481,6.9298,7.0078,7.0895,7.1661,7.2436,7.3091,7.2955,7.2751,7.2582,7.2524,7.2496,7.2496,7.2496,7.2496,7.2496,7.2496,7.2496,7.2496,7.2496,7.2496,7.2459,5.8846,5.8958,5.9192,5.9738,6.088,6.1789,6.1865,6.0524,6.0774,6.4396,6.5048,6.6062,6.838,6.9865,7.0951,7.1603,7.1675,7.077,6.8597,6.9756,6.9539,6.7366,6.8597,6.8959,6.8162,6.6569,6.4613,6.2386,6.0646,5.9107,5.7813,5.7704,5.7631,5.7667,5.774,5.9197,6.177,6.6192,6.8229,6.8633,7.0729,7.1557,7.1557,7.162,7.162,7.162,7.162,7.1557,7.1494,7.1494,7.106,7.0517,7.0517,7.0046,6.9497,6.9388,6.9382,6.9231,6.844,6.8252,6.8211,6.7899,6.7814,6.7579,6.664,6.6425,6.6425,6.6327,6.5236,6.4865,0.0,0.0,5.9197,5.6134,5.5763,5.554,5.4723,5.4611,5.4537,5.4314,5.4388,0.0,5.4831,5.6932,5.8954,6.066,6.0729,6.1597,0.0,0.0,6.6314,6.7428,6.8134,6.8481,6.8481,6.9187,7.0004,7.087,7.1472,7.2246,7.3118,7.2835,7.2695,7.2667,7.2553,7.2496,7.2496,7.2496,7.2496,7.2496,7.2496,7.2496,7.2496,7.2496,7.2496,7.2496,5.9568,6.0295,6.0794,6.0899,6.1845,6.3232,6.5171,6.5395,6.5808,6.7184,6.8525,6.9973,7.1712,7.2146,7.2364,7.2472,7.2509,7.2038,7.0951,7.1168,7.0842,6.9792,7.0009,6.9823,6.8995,6.7402,6.5851,6.4321,6.2037,6.0222,5.8904,5.822,5.7927,5.7964,5.8647,6.1224,6.5232,6.7425,6.9315,7.0946,7.166,7.1897,7.1927,7.2233,7.2321,7.2321,7.2321,7.1957,7.1494,7.1494,7.1422,7.1313,7.1313,7.1205,7.0987,7.0372,7.0369,7.0331,6.9529,6.9514,6.9614,6.9121,6.9015,6.8834,6.821,6.8097,6.8097,6.8036,6.7813,6.7391,6.6462,0.0,0.0,0.0,0.0,5.9812,5.8937,5.8846,5.8364,5.7026,5.7435,5.7299,5.5973,5.627,5.7423,5.9522,5.9265,6.0915,0.0,0.0,6.5325,0.0,6.8407,6.8481,0.0,0.0,6.9397,7.0742,7.0865,7.1585,7.2779,7.2723,7.2638,7.2524,7.2496,7.2496,7.2496,7.2496,7.2496,7.2496,7.2496,7.2496,7.2496,7.2496,7.2496,7.2496,6.0518,6.0927,6.1552,6.2678,6.418,6.604,6.8328,6.9338,6.9575,6.8706,6.9647,7.0517,7.0842,7.1603,7.2074,7.2074,7.2074,7.1929,7.1531,7.1494,7.135,7.0987,7.0951,7.0589,6.9859,6.9032,6.7404,6.4803,6.3646,6.2054,6.0006,5.9232,5.8827,5.8878,6.0417,6.2535,6.5228,6.8055,6.9835,7.085,7.1838,7.2263,7.2292,7.2438,7.2496,7.2496,7.2496,7.2292,7.2018,7.2018,7.2018,7.2018,7.2018,7.2018,7.1981,7.158,7.156,7.1494,7.0718,7.0612,7.056,7.0048,6.9943,6.9773,6.9249,6.9113,6.9001,6.8593,6.8481,6.7999,6.6425,6.4753,0.0,0.0,0.0,0.0,0.0,6.0593,6.0295,5.9515,5.8995,5.8338,5.7392,5.6582,5.7059,5.9323,5.8946,6.0552,0.0,0.0,6.4916,0.0,0.0,0.0,6.8481,0.0,6.9249,7.0691,7.0639,7.133,7.2695,7.2638,7.2553,7.2496,7.2496,7.2496,7.2496,7.2496,7.2496,7.2496,7.2496,7.2496,7.2496,7.2496,7.2496,7.2496,6.1804,6.222,6.3066,6.4844,6.6953,6.8917,7.0514,7.197,7.2195,7.0185,7.0335,7.0444,6.9973,7.1024,7.178,7.1842,7.1842,7.1801,7.1749,7.1713,7.1713,7.1713,7.1713,7.1459,7.0841,7.0841,6.9245,6.6016,0.0,6.3906,6.1365,6.0404,6.0219,6.0788,6.2485,6.4057,0.0,0.0,7.034,7.0725,7.2067,7.2582,7.261,7.2667,7.2695,7.2695,7.2695,7.2695,7.2695,7.2695,7.261,7.2496,7.2496,7.2496,7.2496,7.2496,7.2524,7.2435,7.1801,7.171,7.16,7.1004,7.0835,7.0702,7.009,6.9967,6.9707,6.8927,6.8593,6.806,6.6611,6.5942,0.0,0.0,0.0,0.0,0.0,6.2524,6.2376,6.2004,6.0667,5.9616,5.9191,5.7968,5.7989,5.9967,5.9338,6.0478,6.4197,0.0,0.0,0.0,0.0,6.8246,6.8246,0.0,6.9199,7.0665,7.0507,7.1222,7.2667,7.2553,7.2496,7.2496,7.2496,7.2496,7.2496,7.2496,7.2496,7.2496,7.2496,7.2496,7.2496,7.2496,7.2496,7.2496,6.387,6.5517,6.6924,6.7541,6.9679,7.1156,7.0612,7.2288,7.3307,7.2463,7.182,7.1639,7.2291,7.2509,7.2708,7.302,7.3051,7.2881,7.2416,7.2409,7.2409,7.2409,7.2409,7.2372,7.2299,7.2299,7.1524,0.0,0.0,6.5496,0.0,6.1775,6.222,6.4336,0.0,0.0,0.0,7.027,7.1167,7.2304,7.2696,7.2881,7.2908,7.3215,7.332,7.332,7.332,7.332,7.332,7.332,7.2945,7.2496,7.2496,7.2496,7.2496,7.2496,7.2658,7.2844,7.277,7.296,7.3023,7.2232,7.2046,7.1824,7.097,7.0784,7.0561,6.9744,6.9001,6.8246,6.7354,6.7725,6.7874,0.0,0.0,0.0,0.0,0.0,6.6165,6.4619,6.3653,6.2769,6.1763,6.0966,6.0878,6.1703,6.0485,6.0811,0.0,0.0,0.0,6.7243,6.7391,6.7428,6.7428,6.8012,6.9073,7.0507,7.0374,7.1085,7.2524,7.2496,7.2496,7.2496,7.2496,7.2496,7.2496,7.2496,7.2496,7.2496,7.2496,7.2496,7.2496,7.2496,7.2496,7.2496,6.6555,6.7753,6.889,6.9389,7.1109,7.242,7.2437,7.3545,7.4139,7.3423,7.3027,7.2771,7.2589,7.2589,7.2649,7.2768,7.2768,7.268,7.2532,7.2496,7.2496,7.2496,7.2496,7.2496,7.2496,7.2496,7.1829,0.0,0.0,0.0,0.0,0.0,0.0,0.0,0.0,6.8878,7.0817,7.1806,7.2542,7.3054,7.3162,7.3215,7.3215,7.3346,7.3398,7.3398,7.3398,7.3398,7.3398,7.3398,7.3241,7.3027,7.3027,7.3027,7.3027,7.3027,7.3135,7.3215,7.3215,7.3294,7.3324,7.3027,7.2915,7.2704,7.1849,7.1663,7.1441,7.0598,6.9781,6.8964,6.8171,6.7887,6.7837,6.7986,0.0,0.0,0.0,0.0,6.7714,6.6974,6.5726,6.4705,6.4132,6.308,6.2521,6.2714,6.1818,6.1908,0.0,0.0,0.0,6.6574,0.0,6.7974,6.7901,6.8642,6.9477,7.0374,7.0836,7.1535,7.2496,7.2496,7.2524,7.261,7.261,7.261,7.261,7.2524,7.2496,7.2496,7.2496,7.2496,7.2496,7.2496,7.2496,7.2496,6.8746,6.9642,7.0597,7.1115,7.263,7.3813,7.3922,7.463,7.4961,7.4372,7.4335,7.3873,7.2635,7.2496,7.2524,7.261,7.2638,7.2667,7.2751,7.2751,7.2751,7.2751,7.2751,7.2751,7.2751,7.2751,7.2309,7.1342,6.9651,0.0,0.0,0.0,0.0,0.0,6.9558,7.0635,7.1738,7.2838,7.3357,7.3357,7.3357,7.3357,7.3357,7.3372,7.3398,7.3398,7.3398,7.3398,7.3398,7.3398,7.3398,7.3398,7.3398,7.3398,7.3398,7.3398,7.3398,7.3398,7.3398,7.3398,7.3398,7.3398,7.3398,7.325,7.2692,7.2544,7.2321,7.1478,7.066,6.9818,6.9001,6.8394,6.8134,6.8468,0.0,0.0,0.0,6.8457,0.0,6.7975,6.6852,6.6051,6.5913,6.5053,6.4335,6.3981,6.4012,6.4165,0.0,0.0,0.0,0.0,0.0,0.0,6.7951,6.8874,6.9669,7.033,7.1085,7.1838,7.2553,7.261,7.2695,7.2779,7.2779,7.2779,7.2779,7.261,7.2553,7.2553,7.2524,7.2496,7.2496,7.2496,7.2496,7.2496,7.0175,7.1409,7.2329,7.2778,7.4485,7.549,7.471,7.5267,7.5787,7.5787,7.5787,7.494,7.2737,7.2496,7.261,7.2881,7.2908,7.3017,7.3346,7.3372,7.3372,7.3372,7.3372,7.3372,7.3372,7.3372,7.3372,7.3335,0.0,0.0,6.9595,0.0,6.8556,7.0858,7.0858,7.1812,7.3372,7.3252,7.3199,7.3199,7.3199,7.3199,7.3225,7.3357,7.3398,7.3398,7.3398,7.3398,7.3398,7.3398,7.3398,7.3398,7.3398,7.3398,7.3398,7.3398,7.3398,7.3398,7.3398,7.3398,7.3398,7.3398,7.3398,7.3398,7.3398,7.3398,7.3175,7.2358,7.1478,7.0635,6.9818,6.967,6.941,6.8654,0.0,0.0,0.0,6.8408,0.0,6.7222,6.6988,6.6913,6.6888,6.6976,6.6716,6.584,6.7406,0.0,0.0,0.0,0.0,6.7317,6.7172,0.0,6.7099,6.8435,6.952,7.033,7.0973,7.1782,7.2695,7.2899,7.2982,7.2982,7.2982,7.2982,7.2982,7.2779,7.2695,7.2695,7.2553,7.2496,7.2496,7.2496,7.2496,7.2496,7.3693,7.4745,7.5389,7.4937,7.5882,7.6382,7.5527,7.6121,7.6456,7.5861,7.5787,7.5548,7.4838,7.4255,7.3754,7.3278,7.3241,7.3294,7.3372,7.3398,7.3398,7.3398,7.3398,7.3398,7.3398,7.3398,7.3398,7.3398,0.0,0.0,0.0,6.9967,7.0733,7.2473,7.2473,7.268,7.3145,7.3172,7.3199,7.3199,7.3305,7.3357,7.3357,7.3372,7.3398,7.3398,7.3398,7.3398,7.3398,7.3398,7.3398,7.3398,7.3398,7.3398,7.3398,7.3398,7.3398,7.3398,7.3398,7.3398,7.3398,7.3398,7.3398,7.3398,7.3398,7.3398,7.3175,7.2395,7.1961,7.1515,7.0672,7.0524,7.0227,6.9447,6.9249,0.0,6.8433,0.0,6.8047,6.7686,6.7675,6.7675,6.7572,6.7776,6.7605,6.6729,6.7295,0.0,0.0,0.0,0.0,0.0,6.7346,0.0,6.8472,6.9436,7.0275,7.0973,7.1838,7.2465,7.2927,7.3064,7.3145,7.3145,7.3145,7.3145,7.3118,7.2982,7.2927,7.2899,7.2695,7.2638,7.2638,7.2524,7.2496,7.2496,7.5458,7.6124,7.6419,7.5899,7.6493,7.6929,7.6344,7.7013,7.7347,7.679,7.6716,7.6604,7.6307,7.5824,0.0,7.3956,7.3844,7.3707,7.3435,7.3398,7.3398,7.3398,7.3398,7.3398,7.3398,7.3398,0.0,7.3398,7.2332,7.1849,7.1849,7.1798,7.2277,7.3199,7.3199,7.3145,7.3064,7.3172,7.3199,7.3199,7.3305,7.3294,7.3357,7.3372,7.3398,7.3398,7.3398,7.3398,7.3398,7.3398,7.3398,7.3398,7.3398,7.3398,7.3398,7.3398,7.3398,7.3398,7.3398,7.3398,7.3398,7.3398,7.3346,7.3331,7.3278,7.3305,7.3183,7.2611,7.2473,7.224,7.1413,7.1239,7.0953,7.0189,6.9939,6.9628,6.8839,0.0,6.8328,0.0,0.0,0.0,0.0,6.7728,6.7815,0.0,0.0,0.0,0.0,0.0,0.0,6.6766,6.7924,6.8757,6.9115,7.0219,7.0938,7.1406,7.2411,7.2945,7.3064,7.3225,7.3278,7.3278,7.3278,7.3278,7.3278,7.3118,7.3064,7.3064,7.2863,7.2807,7.2779,7.2638,7.2582,7.2553,7.5919,7.5973,7.5973,7.5973,7.6642,7.7189,7.7189,7.7793,7.8276,7.8276,7.8276,7.7979,7.7263,7.7189,7.653,7.4896,0.0,0.0,7.3547,7.351,7.3473,7.3398,7.3398,7.3398,7.3398,7.3398,7.3398,7.3398,7.3372,7.3372,7.3372,7.3252,7.3199,7.3172,7.3199,7.3199,7.3172,7.3199,7.3199,7.3199,7.3199,7.3225,7.3225,7.332,7.3398,7.3398,7.3398,7.3398,7.3398,7.3398,7.3398,7.3398,7.3398,7.3398,7.3398,7.3398,7.3398,7.3398,7.3398,7.3398,7.3398,7.3398,7.3305,7.3172,7.3064,7.3118,7.3172,7.3064,7.3037,7.2842,7.2135,7.1907,7.1622,7.0913,7.0687,7.0375,6.9691,6.9477,6.886,0.0,0.0,0.0,6.7235,6.7222,6.753,0.0,0.0,0.0,0.0,0.0,6.7555,6.8333,6.8841,6.9151,6.9262,7.0735,7.1536,7.1609,7.2694,7.3199,7.3225,7.332,7.3398,7.3398,7.3398,7.3398,7.3372,7.3278,7.3225,7.3199,7.3064,7.3009,7.2982,7.2779,7.2723,7.2695,7.7515,7.7682,7.7682,7.7682,7.7868,7.8016,7.8016,7.8165,7.8276,7.8276,7.8276,7.8202,7.8016,7.8016,7.7635,7.6594,7.5899,7.5156,7.4338,7.4301,7.4067,7.3435,7.3398,7.3398,7.3398,7.3398,7.3398,7.3398,7.3199,7.3145,7.3252,7.3225,7.3145,7.3037,7.3145,7.3145,7.3037,7.3145,7.3199,7.3199,7.3331,7.332,7.3383,7.3372,7.3398,7.3398,7.3398,7.3398,7.3398,7.3398,7.3398,7.3398,7.3398,7.3398,7.3398,7.3398,7.3398,7.3398,7.3398,7.3398,7.3398,7.3398,7.3372,7.332,7.3294,7.332,7.332,7.3294,7.3331,7.3257,7.306,7.2997,7.2737,7.1947,7.1732,7.1357,7.0531,7.0317,7.0091,0.0,6.9233,6.8876,6.8927,6.8482,6.8011,0.0,0.0,6.8334,6.8309,6.8513,6.8715,6.8899,6.9031,6.9704,7.0919,7.1324,7.1913,7.2795,7.3061,7.3252,7.3346,7.341,7.3398,7.3398,7.3398,7.3398,7.3372,7.3383,7.332,7.3357,7.3199,7.3145,7.3145,7.2982,7.2927,7.2899,7.8174,7.8276,7.8276,7.8276,7.8276,7.8276,7.8276,7.8276,7.8276,7.8276,7.8276,7.8276,7.8276,7.8276,7.809,7.7682,7.6865,7.6047,7.5193,7.5156,7.4784,7.3993,7.3956,7.3781,7.3435,7.3398,7.3398,7.3398,7.3241,7.3225,7.3305,7.3225,7.3145,7.3091,7.3172,7.3145,7.3091,7.3252,7.3305,7.3305,7.3346,7.3621,7.3956,7.3956,7.4153,7.4487,7.4487,7.4487,7.4487,7.4487,7.4253,7.3956,7.3956,7.3696,7.3398,7.3398,7.3398,7.3398,7.3398,7.3398,7.341,7.3331,7.3346,7.3346,7.3252,7.3278,7.3305,7.3252,7.3225,7.3252,7.3305,7.3278,7.3104,7.2711,7.2198,7.1738,7.1309,7.0887,7.0602,7.0691,7.036,7.0151,7.0151,6.983,6.941,6.8964,6.9286,0.0,6.9383,6.9699,6.979,6.971,7.0025,7.0652,7.1581,7.2041,7.261,7.3305,7.3305,7.3331,7.3398,7.3398,7.3398,7.3398,7.3398,7.3398,7.3398,7.3398,7.3398,7.3372,7.3331,7.3305,7.3278,7.3145,7.3091,7.3064,7.8276,7.8276,7.8276,7.8276,7.8276,7.8276,7.8276,7.8276,7.8276,7.8276,7.8276,7.8276,7.8276,7.8276,7.8276,7.8276,7.7709,7.6902,7.6047,7.5973,7.5601,7.4821,7.4784,7.445,7.3781,7.3632,7.3521,7.3398,7.3346,7.332,7.3346,7.3252,7.3199,7.3199,7.3225,7.3299,7.3437,7.3506,7.3658,7.377,7.377,7.4153,7.4784,7.4784,7.5193,7.5787,7.5787,7.5787,7.5787,7.5787,7.5267,7.4598,7.4598,7.4041,7.3398,7.3398,7.3398,7.3398,7.3398,7.3398,7.3346,7.3278,7.3331,7.332,7.3118,7.3145,7.3199,7.3091,7.3064,7.3091,7.3199,7.3145,7.3054,7.305,7.2415,7.1944,7.1939,0.0,7.1165,7.1267,7.1155,7.1081,7.1081,7.097,7.0895,7.0895,7.1007,7.1005,7.0891,7.1013,7.0972,7.0903,7.1323,7.1655,7.1901,7.2775,7.3305,7.3398,7.3398,7.3398,7.3398,7.3398,7.3398,7.3398,7.3398,7.3398,7.3398,7.3398,7.3398,7.3398,7.3398,7.3398,7.341,7.3278,7.3225,7.3225,7.8276,7.8276,7.8276,7.8276,7.8276,7.8276,7.8276,7.8276,7.8276,7.8276,7.8276,7.8276,7.8276,7.8276,7.8276,7.8276,7.8165,7.7784,7.6939,7.6902,7.6493,7.5639,7.5601,7.5564,7.5416,7.464,7.3972,7.3398,7.3172,7.3118,7.3225,7.3199,7.3199,7.3199,7.3331,7.3755,7.4386,7.4413,7.4784,7.5416,7.5416,7.549,7.5601,7.5601,7.5676,7.5787,7.5787,7.5787,7.5787,7.5787,7.5267,7.4598,7.4598,7.4041,7.3398,7.3398,7.3398,7.3398,7.3398,7.3398,7.341,7.3346,7.3372,7.3372,7.332,7.3346,7.3346,7.332,7.332,7.332,7.3383,7.3346,7.3097,7.2455,7.2789,7.2912,7.2232,0.0,7.2975,7.3001,7.2406,7.2023,7.2023,7.1329,7.0895,7.0895,7.1424,7.1717,7.1717,7.2314,7.2694,7.2801,7.2076,7.2086,7.2987,7.3231,7.3372,7.3398,7.3398,7.3398,7.3398,7.3398,7.3398,7.3398,7.3398,7.3398,7.3398,7.3398,7.3398,7.3398,7.3398,7.3398,7.3372,7.3372,7.3346,7.332,7.8276,7.8276,7.8276,7.8276,7.8276,7.8276,7.8276,7.8276,7.8276,7.8276,7.8276,7.8276,7.8276,7.8276,7.8276,7.8276,7.8276,7.8128,7.7784,7.7719,7.7347,7.653,7.6493,7.627,7.5787,7.5399,7.4991,7.4673,7.4566,7.4549,7.463,7.463,7.463,7.4593,7.4646,7.4896,7.523,7.523,7.5453,7.5787,7.5787,7.6084,7.6493,7.6493,7.6753,7.7125,7.7125,7.7125,7.7125,7.7125,7.6604,7.5861,7.5378,7.4673,7.393,7.3547,7.3398,7.3398,7.3398,7.3398,7.3398,7.3398,7.3398,7.3398,7.3398,7.3398,7.3398,7.3398,7.3398,7.3398,7.3398,7.3398,7.3287,7.2915,7.2804,0.0,0.0,7.2804,7.2915,7.3361,7.3064,7.2878,7.2878,7.2481,7.2258,7.2258,7.2541,7.2711,7.2711,7.3029,7.3252,7.3305,7.2844,7.2844,7.3294,7.3346,7.3398,7.3398,7.3398,7.3398,7.3398,7.3398,7.3398,7.3398,7.3398,7.3398,7.3398,7.3398,7.3398,7.3398,7.3398,7.3398,7.3398,7.3398,7.3398,7.3372,7.8276,7.8276,7.8276,7.8276,7.8276,7.8276,7.8276,7.8276,7.8276,7.8276,7.8276,7.8276,7.8276,7.8276,7.8276,7.8276,7.8276,7.8276,7.8276,7.8276,7.8016,7.7412,7.7375,7.6976,7.6121,7.6084,7.5973,7.5787,7.5787,7.5787,7.5787,7.5787,7.5787,7.5787,7.5787,7.5899,7.6084,7.6084,7.6196,7.6382,7.6382,7.6753,7.7375,7.7375,7.7756,7.8276,7.8276,7.8276,7.8276,7.8276,7.7784,7.6966,7.6047,7.523,7.4413,7.3658,7.3398,7.3398,7.3398,7.3398,7.3398,7.3398,7.3398,7.3398,7.3398,7.3398,7.3398,7.3398,7.3398,7.3398,7.3398,7.3398,7.3361,7.3175,0.0,0.0,0.0,7.2767,7.2729,7.3324,7.3398,7.3398,7.3398,7.3398,7.3398,7.3398,7.3398,7.3398,7.3398,7.3398,7.3398,7.3398,7.3398,7.3398,7.3398,7.3398,7.3398,7.3398,7.3398,7.3398,7.3398,7.3398,7.3398,7.3398,7.3398,7.3398,7.3398,7.3398,7.3398,7.3398,7.3398,7.3398,7.3398,7.3398,7.3398,7.3398,7.8276,7.8276,7.8276,7.8276,7.8276,7.8276,7.8276,7.8276,7.8276,7.8276,7.8276,7.8276,7.8276,7.8276,7.8276,7.8276,7.8276,7.8276,7.8276,7.8276,7.8239,7.8202,7.8202,7.7858,7.7013,7.7003,7.6604,7.5787,7.5787,7.5787,7.5787,7.5787,7.5787,7.5787,7.5787,7.6233,7.7003,7.7003,7.7449,7.809,7.809,7.8128,7.8202,7.8202,7.8239,7.8276,7.8276,7.8276,7.8276,7.8276,7.7784,7.6966,7.6047,7.523,7.4413,7.3658,7.3398,7.3398,7.3398,7.3398,7.3398,7.3398,7.3398,7.3398,7.3398,7.3398,7.3398,7.3398,7.3398,7.3398,7.3398,7.3398,7.3175,7.2432,0.0,0.0,7.2395,7.2878,7.3324,7.3398,7.3398,7.3398,7.3398,7.3398,7.3398,7.3398,7.3398,7.3398,7.3398,7.3398,7.3398,7.3398,7.3398,7.3398,7.3398,7.3398,7.3398,7.3398,7.3398,7.3398,7.3398,7.3398,7.3398,7.3398,7.3398,7.3398,7.3398,7.3398,7.3398,7.3398,7.3398,7.3398,7.3398,7.3398,7.3398,7.3398,7.8276,7.8276,7.8276,7.8276,7.8276,7.8276,7.8276,7.8276,7.8276,7.8276,7.8276,7.8276,7.8276,7.8276,7.8276,7.8276,7.8276,7.8276,7.8276,7.8276,7.8276,7.8276,7.8276,7.8165,7.783,7.783,7.7682,7.7347,7.7347,7.7347,7.7347,7.7347,7.7347,7.7347,7.7347,7.7533,7.783,7.783,7.8016,7.8276,7.8276,7.8276,7.8276,7.8276,7.8276,7.8276,7.8276,7.8276,7.8276,7.8276,7.809,7.7682,7.6892,7.601,7.5081,7.3781,7.3398,7.3398,7.3398,7.3398,7.3398,7.3398,7.3398,7.3398,7.3398,7.3398,7.3398,7.3398,7.3398,7.3398,7.3398,7.3398,7.3324,7.299,0.0,7.3287,7.299,7.3212,7.3398,7.3398,7.3398,7.3398,7.3398,7.3398,7.3398,7.3398,7.3398,7.3398,7.3398,7.3398,7.3398,7.3398,7.3398,7.3398,7.3398,7.3398,7.3398,7.3398,7.3398,7.3398,7.3398,7.3398,7.3398,7.3398,7.3398,7.3398,7.3398,7.3398,7.3398,7.3398,7.3398,7.3398,7.3398,7.3398,7.3398,7.3398,7.8276,7.8276,7.8276,7.8276,7.8276,7.8276,7.8276,7.8276,7.8276,7.8276,7.8276,7.8276,7.8276,7.8276,7.8276,7.8276,7.8276,7.8276,7.8276,7.8276,7.8276,7.8276,7.8276,7.8276,7.8276,7.8276,7.8276,7.8276,7.8276,7.8276,7.8276,7.8276,7.8276,7.8276,7.8276,7.8276,7.8276,7.8276,7.8276,7.8276,7.8276,7.8276,7.8276,7.8276,7.8276,7.8276,7.8276,7.8276,7.8276,7.8276,7.8276,7.8165,7.7375,7.6307,7.5193,7.4104,7.3595,7.3398,7.3398,7.3398,7.3398,7.3398,7.3398,7.3398,7.3398,7.3398,7.3398,7.3398,7.3398,7.3398,7.3398,7.3398,7.3398,7.3398,7.3398,7.3398,7.3398,7.3398,7.3398,7.3398,7.3398,7.3398,7.3398,7.3398,7.3398,7.3398,7.3398,7.3398,7.3398,7.3398,7.3398,7.3398,7.3398,7.3398,7.3398,7.3398,7.3398,7.3398,7.3398,7.3398,7.3398,7.3398,7.3398,7.3398,7.3398,7.3398,7.3398,7.3398,7.3398,7.3398,7.3398,7.3398,7.3398,7.3398,7.3398,7.3398,7.8276,7.8276,7.8276,7.8276,7.8276,7.8276,7.8276,7.8276,7.8276,7.8276,7.8276,7.8276,7.8276,7.8276,7.8276,7.8276,7.8276,7.8276,7.8276,7.8276,7.8276,7.8276,7.8276,7.8276,7.8276,7.8276,7.8276,7.8276,7.8276,7.8276,7.8276,7.8276,7.8276,7.8276,7.8276,7.8276,7.8276,7.8276,7.8276,7.8276,7.8276,7.8276,7.8276,7.8276,7.8276,7.8276,7.8276,7.8276,7.8276,7.8276,7.8276,7.8165,7.7375,7.5963,7.4598,7.4598,7.4004,7.3435,7.3398,7.3398,7.3398,7.3398,7.3398,7.3398,7.3398,7.3398,7.3398,7.3398,7.3398,7.3398,7.3398,7.3398,7.3398,7.3398,7.3398,7.3398,7.3398,7.3398,7.3398,7.3398,7.3398,7.3398,7.3398,7.3398,7.3398,7.3398,7.3398,7.3398,7.3398,7.3398,7.3398,7.3398,7.3398,7.3398,7.3398,7.3398,7.3398,7.3398,7.3398,7.3398,7.3398,7.3398,7.3398,7.3398,7.3398,7.3398,7.3398,7.3398,7.3398,7.3398,7.3398,7.3398,7.3398,7.3398,7.3398,7.3398,7.8276,7.8276,7.8276,7.8276,7.8276,7.8276,7.8276,7.8276,7.8276,7.8276,7.8276,7.8276,7.8276,7.8276,7.8276,7.8276,7.8276,7.8276,7.8276,7.8276,7.8276,7.8276,7.8276,7.8276,7.8276,7.8276,7.8276,7.8276,7.8276,7.8276,7.8276,7.8276,7.8276,7.8276,7.8276,7.8276,7.8276,7.8276,7.8276,7.8276,7.8276,7.8276,7.8276,7.8276,7.8276,7.8276,7.8276,7.8276,7.8276,7.8276,7.8276,7.8165,7.7375,7.678,7.6121,7.4933,7.4413,7.4115,7.3547,7.3398,7.3398,7.3398,7.3398,7.3398,7.3398,7.3398,7.3398,7.3398,7.3398,7.3398,7.3398,7.3398,7.3398,7.3398,7.3398,7.3398,7.3398,7.3398,7.3398,7.3398,7.3398,7.3398,7.3398,7.3398,7.3398,7.3398,7.3398,7.3398,7.3398,7.3398,7.3398,7.3398,7.3398,7.3398,7.3398,7.3398,7.3398,7.3398,7.3398,7.3398,7.3398,7.3398,7.3398,7.3398,7.3398,7.3398,7.3398,7.3398,7.3398,7.3398,7.3398,7.3398,7.3398,7.3398,7.3398,7.3398,7.8276,7.8276,7.8276,7.8276,7.8276,7.8276,7.8276,7.8276,7.8276,7.8276,7.8276,7.8276,7.8276,7.8276,7.8276,7.8276,7.8276,7.8276,7.8276,7.8276,7.8276,7.8276,7.8276,7.8276,7.8276,7.8276,7.8276,7.8276,7.8276,7.8276,7.8276,7.8276,7.8276,7.8276,7.8276,7.8276,7.8276,7.8276,7.8276,7.8276,7.8276,7.8276,7.8276,7.8276,7.8276,7.8276,7.8276,7.8276,7.8276,7.8276,7.8276,7.8202,7.7719,7.7115,7.6382,7.5341,7.4598,7.4004,7.3547,7.3398,7.3398,7.3398,7.3398,7.3398,7.3398,7.3398,7.3398,7.3398,7.3398,7.3398,7.3398,7.3398,7.3398,7.3398,7.3398,7.3398,7.3398,7.3398,7.3398,7.3398,7.3398,7.3398,7.3398,7.3398,7.3398,7.3398,7.3398,7.3398,7.3398,7.3398,7.3398,7.3398,7.3398,7.3398,7.3398,7.3398,7.3398,7.3398,7.3398,7.3398,7.3398,7.3398,7.3398,7.3398,7.3398,7.3398,7.3398,7.3398,7.3398,7.3398,7.3398,7.3398,7.3398,7.3398,7.3398,7.3398,7.8276,7.8276,7.8276,7.8276,7.8276,7.8276,7.8276,7.8276,7.8276,7.8276,7.8276,7.8276,7.8276,7.8276,7.8276,7.8276,7.8276,7.8276,7.8276,7.8276,7.8276,7.8276,7.8276,7.8276,7.8276,7.8276,7.8276,7.8276,7.8276,7.8276,7.8276,7.8276,7.8276,7.8276,7.8276,7.8276,7.8276,7.8276,7.8276,7.8276,7.8276,7.8276,7.8276,7.8276,7.8276,7.8276,7.8276,7.8276,7.8276,7.8276,7.8276,7.8276,7.8276,7.7199,7.5899,7.5824,7.471,7.351,7.3435,7.3398,7.3398,7.3398,7.3398,7.3398,7.3398,7.3398,7.3398,7.3398,7.3398,7.3398,7.3398,7.3398,7.3398,7.3398,7.3398,7.3398,7.3398,7.3398,7.3398,7.3398,7.3398,7.3398,7.3398,7.3398,7.3398,7.3398,7.3398,7.3398,7.3398,7.3398,7.3398,7.3398,7.3398,7.3398,7.3398,7.3398,7.3398,7.3398,7.3398,7.3398,7.3398,7.3398,7.3398,7.3398,7.3398,7.3398,7.3398,7.3398,7.3398,7.3398,7.3398,7.3398,7.3398,7.3398,7.3398,7.3398,7.8276,7.8276,7.8276,7.8276,7.8276,7.8276,7.8276,7.8276,7.8276,7.8276,7.8276,7.8276,7.8276,7.8276,7.8276,7.8276,7.8276,7.8276,7.8276,7.8276,7.8276,7.8276,7.8276,7.8276,7.8276,7.8276,7.8276,7.8276,7.8276,7.8276,7.8276,7.8276,7.8276,7.8276,7.8276,7.8276,7.8276,7.8276,7.8276,7.8276,7.8276,7.8276,7.8276,7.8276,7.8276,7.8276,7.8276,7.8276,7.8276,7.8276,7.8276,7.8276,7.8276,7.7608,7.6679,7.5973,7.5081,7.419,7.3558,7.3398,7.3398,7.3398,7.3398,7.3398,7.3398,7.3398,7.3398,7.3398,7.3398,7.3398,7.3398,7.3398,7.3398,7.3398,7.3398,7.3398,7.3398,7.3398,7.3398,7.3398,7.3398,7.3398,7.3398,7.3398,7.3398,7.3398,7.3398,7.3398,7.3398,7.3398,7.3398,7.3398,7.3398,7.3398,7.3398,7.3398,7.3398,7.3398,7.3398,7.3398,7.3398,7.3398,7.3398,7.3398,7.3398,7.3398,7.3398,7.3398,7.3398,7.3398,7.3398,7.3398,7.3398,7.3398,7.3398,7.3398,7.8276,7.8276,7.8276,7.8276,7.8276,7.8276,7.8276,7.8276,7.8276,7.8276,7.8276,7.8276,7.8276,7.8276,7.8276,7.8276,7.8276,7.8276,7.8276,7.8276,7.8276,7.8276,7.8276,7.8276,7.8276,7.8276,7.8276,7.8276,7.8276,7.8276,7.8276,7.8276,7.8276,7.8276,7.8276,7.8276,7.8276,7.8276,7.8276,7.8276,7.8276,7.8276,7.8276,7.8276,7.8276,7.8276,7.8276,7.8276,7.8276,7.8276,7.8276,7.8276,7.8276,7.7459,7.6382,7.5936,7.4933,7.393,7.351,7.3398,7.3398,7.3398,7.3398,7.3398,7.3398,7.3398,7.3398,7.3398,7.3398,7.3398,7.3398,7.3398,7.3398,7.3398,7.3398,7.3398,7.3398,7.3691,7.3861,7.3861,7.4179,7.4347,7.4347,7.4347,7.4347,7.4347,7.4347,7.4347,7.4347,7.4347,7.4347,7.4347,7.4347,7.4347,7.4347,7.4347,7.4347,7.4347,7.3729,7.3398,7.3398,7.3398,7.3398,7.3398,7.3398,7.3398,7.3398,7.3398,7.3398,7.3398,7.3398,7.3398,7.3398,7.3398,7.3398,7.3398,7.8276,7.8276,7.8276,7.8276,7.8276,7.8276,7.8276,7.8276,7.8276,7.8276,7.8276,7.8276,7.8276,7.8276,7.8276,7.8276,7.8165,7.809,7.809,7.7942,7.7868,7.7868,7.7868,7.7868,7.7868,7.8016,7.8165,7.8276,7.8276,7.8276,7.8276,7.8276,7.8276,7.8276,7.8276,7.8276,7.8276,7.8276,7.8276,7.8276,7.8276,7.8276,7.8276,7.8276,7.8276,7.8276,7.8276,7.8276,7.8276,7.8276,7.8276,7.8276,7.8276,7.7236,7.5973,7.5824,7.4747,7.3584,7.3435,7.3398,7.3398,7.3398,7.3398,7.3398,7.3398,7.3398,7.3398,7.3398,7.3398,7.3398,7.3398,7.3398,7.3398,7.3398,7.3398,7.3398,7.3398,7.3861,7.4226,7.4226,7.4709,7.5033,7.5033,7.518,7.5226,7.5226,7.5346,7.542,7.542,7.542,7.542,7.542,7.542,7.542,7.542,7.542,7.542,7.5383,7.4263,7.3691,7.3569,7.3569,7.3521,7.3398,7.3398,7.3398,7.3398,7.3398,7.3398,7.3398,7.3398,7.3398,7.3372,7.3346,7.3346,7.332,7.8276,7.8276,7.8276,7.8276,7.8276,7.8276,7.8276,7.8276,7.8276,7.8276,7.8276,7.8276,7.8276,7.8276,7.8276,7.8276,7.7645,7.7263,7.7263,7.6567,7.6121,7.6121,7.6121,7.6121,7.6121,7.6865,7.757,7.8276,7.8276,7.8276,7.8276,7.8276,7.8276,7.8276,7.8276,7.8276,7.8276,7.8276,7.8276,7.8276,7.8276,7.8276,7.8276,7.8276,7.8276,7.8276,7.8276,7.8276,7.8276,7.8276,7.8276,7.8276,7.8276,7.7645,7.678,7.601,7.5156,7.4264,7.3584,7.3398,7.3398,7.3398,7.3398,7.3398,7.3398,7.3398,7.3398,7.3398,7.3398,7.3398,7.3398,7.3398,7.3398,7.3398,7.3398,7.3398,7.3398,7.3484,7.3532,7.3532,7.3643,7.3654,7.3654,7.4216,7.4542,7.4542,7.507,7.542,7.542,7.542,7.542,7.542,7.542,7.542,7.542,7.542,7.542,7.542,7.5226,7.483,7.4263,7.4263,7.3972,7.3398,7.3398,7.3398,7.3398,7.3398,7.3398,7.3398,7.3398,7.3398,7.341,7.3278,7.3145,7.3064,7.8276,7.8276,7.8276,7.8276,7.8276,7.8276,7.8276,7.8276,7.8276,7.8276,7.8276,7.8276,7.8276,7.7905,7.7422,7.6939,7.6567,7.6344,7.6344,7.601,7.5787,7.5787,7.5787,7.5787,7.5787,7.6159,7.653,7.6902,7.783,7.8276,7.8276,7.8276,7.8276,7.8276,7.8276,7.8276,7.8276,7.8276,7.8276,7.8276,7.8276,7.8276,7.8276,7.8276,7.8276,7.8276,7.8276,7.8276,7.8276,7.8276,7.8276,7.8276,7.8276,7.7719,7.7013,7.6642,7.5601,7.4524,7.4153,7.3733,7.3398,7.3398,7.3398,7.3398,7.3398,7.3398,7.3398,7.3398,7.3398,7.3398,7.3398,7.3398,7.3398,7.3398,7.3398,7.3398,7.3398,7.3729,7.4104,7.4468,7.4505,7.4505,7.4505,7.4783,7.495,7.495,7.5226,7.542,7.542,7.542,7.5547,7.594,7.594,7.6133,7.6457,7.6457,7.6457,7.6457,7.6457,7.594,7.495,7.495,7.4589,7.3972,7.3972,7.3766,7.3398,7.3398,7.3398,7.3372,7.3331,7.3252,7.3172,7.3118,7.3037,7.2982]}]]